[[{"header":{"parameterUnit":"m.s-1","parameterCategory":1,"la1":30.6,"la2":29.2853,"lo1":-89.7004,"lo2":-87.6739,"dy":0.0162,"dx":0.0183,"nx":112,"ny":82,"refTime":"2023-06-07T06:00:00:Z","depth":0,"parameterNumber":2,"parameterNumberName":"U-component_of_WINDS"},"data":[0.0,0.0,0.0,0.0,0.0,0.0,0.0,0.0,0.0,0.0,0.0,0.0,0.0,0.0,0.0,0.0,0.0,0.0,0.0,0.0,0.0,0.0,0.0,0.0,0.0,0.0,0.0,0.0,0.0,0.0,0.0,0.0,0.0,0.0,0.0,0.0,0.0,0.0,0.0,0.0,0.0,0.0,0.0,0.0,0.0,0.0,0.0,0.0,0.0,0.0,0.0,0.0,0.0,0.0,0.0,0.0,0.0,0.0,0.0,0.0,0.0,0.0,0.0,0.0,0.0,0.0,0.0,0.0,0.0,0.0,0.0,0.0,0.0,0.0,0.0,0.0,0.0,0.0,0.0,0.0,0.0,0.0,0.0,0.0,0.0,0.0,0.0,0.0,0.0,0.0,-0.8378,-0.86,-0.9722,-1.099,-1.2304,-1.2643,-1.3172,-1.4111,0.0,0.0,0.0,0.0,0.0,0.0,0.0,0.0,0.0,0.0,0.0,0.0,0.0,0.0,0.0,0.0,0.0,0.0,0.0,0.0,0.0,0.0,0.0,0.0,0.0,0.0,0.0,0.0,0.0,0.0,0.0,0.0,0.0,0.0,0.0,0.0,0.0,0.0,0.0,0.0,0.0,0.0,0.0,0.0,0.0,0.0,0.0,0.0,0.0,0.0,0.0,0.0,0.0,0.0,0.0,0.0,0.0,0.0,0.0,0.0,0.0,0.0,0.0,0.0,0.0,0.0,0.0,0.0,0.0,0.0,0.0,0.0,0.0,0.0,0.0,0.0,0.0,0.0,0.0,0.0,0.0,0.0,0.0,0.0,0.0,0.0,0.0,0.0,0.0,0.0,0.0,0.0,0.0,0.0,0.0,0.0,0.0,0.0,0.0,0.0,0.0,0.0,0.0,0.0,-1.0091,-1.128,-1.1928,-1.2367,-1.2402,-1.2769,-1.2985,-1.289,0.0,0.0,0.0,0.0,0.0,0.0,0.0,0.0,0.0,0.0,0.0,0.0,0.0,0.0,0.0,0.0,0.0,0.0,0.0,0.0,0.0,0.0,0.0,0.0,0.0,0.0,0.0,0.0,0.0,0.0,0.0,0.0,0.0,0.0,0.0,0.0,0.0,0.0,0.0,0.0,0.0,0.0,0.0,0.0,0.0,0.0,0.0,0.0,0.0,0.0,0.0,0.0,0.0,0.0,0.0,0.0,0.0,0.0,0.0,0.0,0.0,0.0,0.0,0.0,0.0,0.0,0.0,0.0,0.0,0.0,0.0,0.0,0.0,0.0,0.0,0.0,0.0,0.0,0.0,0.0,0.0,0.0,0.0,0.0,0.0,0.0,0.0,0.0,0.0,0.0,0.0,0.0,0.0,0.0,0.0,0.0,0.0,0.0,0.0,0.0,0.0,0.0,0.0,-0.9855,-1.0703,-1.2149,-1.3008,-1.3471,-1.3593,-1.4439,-1.5036,-1.5047,-1.5891,0.0,0.0,0.0,0.0,0.0,0.0,0.0,0.0,0.0,0.0,0.0,0.0,0.0,0.0,0.0,0.0,0.0,0.0,0.0,0.0,0.0,0.0,0.0,0.0,0.0,0.0,0.0,0.0,0.0,0.0,0.0,0.0,0.0,0.0,0.0,0.0,0.0,0.0,0.0,0.0,0.0,0.0,0.0,0.0,0.0,0.0,0.0,0.0,0.0,0.0,0.0,0.0,0.0,0.0,0.0,0.0,0.0,0.0,0.0,0.0,0.0,0.0,0.0,0.0,0.0,0.0,0.0,0.0,0.0,0.0,0.0,0.0,0.0,0.0,0.0,0.0,0.0,0.0,0.0,0.0,0.0,0.0,0.0,0.0,0.0,0.0,0.0,0.0,0.0,0.0,0.0,0.0,0.0,0.0,0.0,0.0,0.0,0.0,0.0,0.0,0.0,0.0,-1.0672,-1.1366,-1.2901,-1.409,-1.4807,-1.5209,-1.6299,-1.6948,-1.7179,-1.7378,0.0,0.0,0.0,0.0,0.0,0.0,0.0,0.0,0.0,0.0,0.0,0.0,0.0,0.0,0.0,0.0,0.0,0.0,0.0,0.0,0.0,0.0,0.0,0.0,0.0,0.0,0.0,0.0,0.0,0.0,0.0,0.0,0.0,0.0,0.0,0.0,0.0,0.0,0.0,0.0,0.0,0.0,0.0,0.0,0.0,0.0,0.0,0.0,0.0,0.0,0.0,0.0,0.0,0.0,0.0,0.0,0.0,0.0,0.0,0.0,0.0,0.0,0.0,0.0,0.0,0.0,0.0,0.0,0.0,0.0,0.0,0.0,0.0,0.0,0.0,0.0,0.0,0.0,0.0,0.0,0.0,0.0,0.0,0.0,0.0,0.0,0.0,0.0,0.0,0.0,0.0,0.0,0.0,0.0,0.0,0.0,0.0,0.0,0.0,0.0,0.0,0.0,-1.1697,-1.3116,-1.433,-1.5956,-1.6942,-1.6955,-1.7378,-1.7483,-1.7173,-1.7179,0.0,0.0,0.0,0.0,0.0,0.0,0.0,0.0,0.0,0.0,0.0,0.0,0.0,0.0,0.0,0.0,0.0,0.0,0.0,0.0,0.0,0.0,0.0,0.0,0.0,0.0,0.0,0.0,0.0,0.0,0.0,0.0,0.0,0.0,0.0,0.0,0.0,0.0,0.0,0.0,0.0,0.0,0.0,0.0,0.0,0.0,0.0,0.0,0.0,0.0,0.0,0.0,0.0,0.0,0.0,0.0,0.0,0.0,0.0,0.0,0.0,0.0,0.0,0.0,0.0,0.0,0.0,0.0,0.0,0.0,0.0,0.0,0.0,0.0,0.0,0.0,0.0,0.0,0.0,0.0,0.0,0.0,0.0,0.0,0.0,0.0,0.0,0.0,0.0,0.0,0.0,0.0,0.0,0.0,0.0,0.0,0.0,0.0,0.0,0.0,0.0,0.0,-1.3667,-1.4239,-1.4995,-1.6187,-1.6624,-1.6074,-1.6836,-1.7378,-1.7483,0.0,0.0,0.0,0.0,0.0,0.0,0.0,0.0,0.0,0.0,0.0,0.0,0.0,0.0,0.0,0.0,0.0,0.0,0.0,0.0,0.0,0.0,0.0,0.0,0.0,0.0,0.0,0.0,0.0,0.0,0.0,0.0,0.0,0.0,0.0,0.0,0.0,0.0,0.0,0.0,0.0,0.0,0.0,0.0,0.0,0.0,0.0,0.0,0.0,0.0,0.0,0.0,0.0,0.0,0.0,0.0,0.0,0.0,0.0,0.0,0.0,0.0,0.0,0.0,0.0,0.0,0.0,0.0,0.0,0.0,0.0,0.0,0.0,0.0,0.0,0.0,0.0,0.0,0.0,0.0,0.0,0.0,0.0,0.0,0.0,0.0,0.0,0.0,0.0,0.0,0.0,0.0,0.0,0.0,0.0,0.0,0.0,0.0,0.0,0.0,0.0,0.0,-1.3259,-1.4254,-1.49,-1.5209,-1.6193,-1.6624,-1.6174,-1.6836,-1.7384,-1.7582,0.0,0.0,0.0,0.0,0.0,0.0,0.0,0.0,0.0,0.0,0.0,0.0,0.0,0.0,0.0,0.0,0.0,0.0,0.0,0.0,0.0,0.0,0.0,0.0,0.0,0.0,0.0,0.0,0.0,0.0,0.0,0.0,0.0,0.0,0.0,0.0,0.0,0.0,0.0,0.0,0.0,0.0,0.0,0.0,0.0,0.0,0.0,0.0,0.0,0.0,0.0,0.0,0.0,0.0,0.0,0.0,0.0,0.0,0.0,0.0,0.0,0.0,0.0,0.0,0.0,0.0,0.0,0.0,0.0,0.0,0.0,0.0,0.0,0.0,0.0,0.0,0.0,0.0,0.0,0.0,0.0,0.0,0.0,0.0,0.0,0.0,0.0,0.0,0.0,0.0,0.0,0.0,0.0,0.0,0.0,0.0,0.0,0.0,0.0,0.0,0.0,0.0,-1.0781,-1.3275,-1.5013,-1.5013,-1.6311,-1.7279,-1.7582,-1.7582,-1.7582,0.0,0.0,0.0,0.0,0.0,0.0,0.0,0.0,0.0,0.0,0.0,0.0,0.0,0.0,0.0,0.0,0.0,0.0,0.0,0.0,0.0,0.0,0.0,0.0,0.0,0.0,0.0,0.0,0.0,0.0,0.0,0.0,0.0,0.0,0.0,0.0,0.0,0.0,0.0,0.0,0.0,0.0,0.0,0.0,0.0,0.0,0.0,0.0,0.0,0.0,0.0,0.0,0.0,0.0,0.0,0.0,0.0,0.0,0.0,0.0,0.0,0.0,0.0,0.0,0.0,0.0,0.0,0.0,0.0,0.0,0.0,0.0,0.0,0.0,0.0,0.0,0.0,0.0,0.0,0.0,0.0,0.0,0.0,0.0,0.0,0.0,0.0,0.0,0.0,0.0,0.0,0.0,0.0,0.0,0.0,0.0,0.0,0.0,0.0,0.0,0.0,0.0,0.0,-1.4674,-1.5867,-1.663,-1.6836,-1.7265,-1.7477,-1.7582,-1.7582,-1.7582,-1.7582,0.0,0.0,0.0,0.0,0.0,0.0,0.0,0.0,0.0,0.0,0.0,0.0,0.0,0.0,0.0,0.0,0.0,0.0,0.0,0.0,0.0,0.0,0.0,0.0,0.0,0.0,0.0,0.0,0.0,0.0,0.0,0.0,0.0,0.0,0.0,0.0,0.0,0.0,0.0,0.0,0.0,0.0,0.0,0.0,0.0,0.0,0.0,0.0,0.0,0.0,0.0,0.0,0.0,0.0,0.0,0.0,0.0,0.0,0.0,0.0,0.0,0.0,0.0,0.0,0.0,0.0,0.0,0.0,0.0,0.0,0.0,0.0,0.0,0.0,0.0,0.0,0.0,0.0,0.0,0.0,0.0,0.0,0.0,0.0,0.0,0.0,0.0,0.0,0.0,0.0,0.0,0.0,0.0,0.0,0.0,0.0,0.0,0.0,0.0,0.0,0.0,0.0,-1.5654,-1.673,-1.7378,-1.7483,-1.7582,-1.7582,-1.7582,-1.7582,-1.7635,-1.7762,0.0,0.0,0.0,0.0,0.0,0.0,0.0,0.0,0.0,0.0,0.0,0.0,0.0,0.0,0.0,0.0,0.0,0.0,0.0,0.0,0.0,0.0,0.0,0.0,0.0,0.0,0.0,0.0,0.0,0.0,0.0,0.0,0.0,0.0,0.0,0.0,0.0,0.0,0.0,0.0,0.0,0.0,0.0,0.0,0.0,0.0,0.0,0.0,0.0,0.0,0.0,0.0,0.0,0.0,0.0,0.0,0.0,0.0,0.0,0.0,0.0,0.0,0.0,0.0,0.0,0.0,0.0,0.0,0.0,0.0,0.0,0.0,0.0,0.0,0.0,0.0,0.0,0.0,0.0,0.0,0.0,0.0,0.0,0.0,0.0,0.0,0.0,0.0,0.0,0.0,0.0,0.0,0.0,0.0,0.0,0.0,0.0,0.0,0.0,0.0,0.0,0.0,-1.49,-1.653,-1.7523,-1.7324,-1.755,-1.7662,-1.7662,-1.7662,-1.7789,-1.807,0.0,0.0,0.0,0.0,0.0,0.0,0.0,0.0,0.0,0.0,0.0,0.0,0.0,0.0,0.0,0.0,0.0,0.0,0.0,0.0,0.0,0.0,0.0,0.0,0.0,0.0,0.0,0.0,0.0,0.0,0.0,0.0,0.0,0.0,0.0,0.0,0.0,0.0,0.0,0.0,0.0,0.0,0.0,0.0,0.0,0.0,0.0,0.0,0.0,0.0,0.0,0.0,0.0,0.0,0.0,0.0,0.0,0.0,0.0,0.0,-0.852,-0.8482,0.0,0.0,0.0,0.0,0.0,0.0,0.0,0.0,0.0,0.0,0.0,0.0,0.0,0.0,0.0,0.0,0.0,0.0,0.0,0.0,0.0,0.0,0.0,0.0,0.0,0.0,0.0,0.0,0.0,0.0,0.0,0.0,0.0,0.0,0.0,0.0,0.0,0.0,0.0,0.0,-1.6524,-1.7368,-1.7842,-1.7842,-1.8163,-1.8297,-1.8297,-1.8297,-1.8323,-1.839,-1.817,0.0,0.0,0.0,0.0,0.0,0.0,0.0,0.0,0.0,0.0,0.0,0.0,0.0,0.0,0.0,0.0,0.0,0.0,0.0,0.0,0.0,0.0,0.0,0.0,0.0,0.0,0.0,0.0,0.0,0.0,0.0,0.0,0.0,0.0,0.0,0.0,0.0,0.0,0.0,0.0,0.0,0.0,0.0,0.0,0.0,0.0,0.0,0.0,0.0,0.0,0.0,0.0,0.0,0.0,0.0,0.0,0.0,0.0,0.0,-0.8737,-0.8703,0.0,0.0,0.0,0.0,0.0,0.0,0.0,0.0,0.0,0.0,0.0,0.0,0.0,0.0,0.0,0.0,0.0,0.0,0.0,0.0,0.0,0.0,0.0,0.0,0.0,0.0,0.0,0.0,0.0,0.0,0.0,0.0,0.0,0.0,0.0,0.0,0.0,0.0,0.0,0.0,-1.7475,-1.7945,-1.8263,-1.8263,-1.8397,-1.849,-1.849,-1.7922,-1.7633,-1.7766,-1.6631,0.0,0.0,0.0,0.0,0.0,0.0,0.0,0.0,0.0,0.0,0.0,0.0,0.0,0.0,0.0,0.0,0.0,0.0,0.0,0.0,0.0,0.0,0.0,0.0,0.0,0.0,0.0,0.0,0.0,0.0,0.0,0.0,0.0,0.0,0.0,0.0,0.0,0.0,0.0,0.0,0.0,0.0,0.0,0.0,0.0,0.0,0.0,0.0,0.0,0.0,0.0,0.0,0.0,-0.875,-0.8815,-0.894,-0.894,-0.894,-0.894,-0.894,-0.894,-0.894,-0.894,0.0,0.0,0.0,0.0,0.0,0.0,0.0,0.0,0.0,0.0,0.0,0.0,0.0,0.0,0.0,0.0,0.0,0.0,0.0,0.0,0.0,0.0,-0.9351,-0.9336,-0.9404,-0.9428,-0.9178,0.0,0.0,0.0,0.0,0.0,0.0,0.0,0.0,0.0,0.0,0.0,-1.7916,-1.8302,-1.8453,-1.7993,-1.8151,-1.8295,-1.7959,-1.7034,-1.6553,-1.6766,-1.4802,-1.3603,0.0,0.0,0.0,0.0,0.0,0.0,0.0,0.0,0.0,0.0,0.0,0.0,0.0,0.0,0.0,0.0,0.0,0.0,0.0,0.0,0.0,0.0,0.0,0.0,0.0,0.0,0.0,0.0,0.0,0.0,0.0,0.0,-0.8038,-0.8038,0.0,0.0,0.0,0.0,0.0,0.0,0.0,0.0,0.0,0.0,0.0,0.0,0.0,-0.8526,-0.8679,-0.8679,-0.8757,-0.891,-0.891,-0.892,-0.894,-0.894,-0.894,-0.894,-0.894,0.0,-0.894,-0.894,0.0,0.0,0.0,0.0,0.0,0.0,0.0,0.0,0.0,0.0,0.0,0.0,0.0,0.0,0.0,0.0,0.0,0.0,0.0,0.0,0.0,0.0,-0.9494,-0.9701,-0.9827,-0.9831,-1.0018,-0.9896,-1.0018,-1.1065,-1.1642,-1.2337,0.0,0.0,0.0,0.0,0.0,0.0,-1.6894,-1.8017,-1.8058,-1.5747,-1.675,-1.7235,-1.6066,-1.5831,-1.5729,-1.5757,-1.5521,-1.4826,-1.3784,-1.3665,0.0,0.0,0.0,0.0,0.0,0.0,0.0,0.0,0.0,0.0,0.0,0.0,0.0,0.0,0.0,0.0,0.0,0.0,0.0,0.0,0.0,0.0,0.0,0.0,0.0,0.0,0.0,0.0,0.0,-0.8038,-0.8038,-0.8038,-0.8038,-0.8038,0.0,0.0,0.0,0.0,0.0,0.0,0.0,0.0,0.0,-0.8608,-0.8611,-0.8682,-0.8835,-0.8838,-0.8872,-0.894,-0.894,-0.894,-0.894,-0.894,-0.894,-0.894,-0.894,-0.894,-0.894,-0.894,-0.894,-0.894,0.0,0.0,0.0,0.0,-0.9059,-0.9069,-0.9157,-0.9188,-0.9188,-0.9188,0.0,0.0,0.0,0.0,0.0,0.0,0.0,-0.949,-0.9405,-0.9621,-0.9965,-0.9998,-1.0159,-1.0458,-1.0576,-1.0695,-1.102,-1.1962,-1.2757,-1.3838,-1.5114,-1.5952,0.0,0.0,0.0,-1.7576,-1.7105,-1.8269,-1.8705,-1.7646,-1.7505,-1.722,-1.675,-1.6042,-1.5575,-1.5575,-1.4976,-1.4262,-1.3665,-1.3665,-1.3784,0.0,0.0,0.0,0.0,0.0,0.0,0.0,0.0,0.0,0.0,0.0,0.0,0.0,0.0,0.0,0.0,0.0,0.0,0.0,0.0,0.0,0.0,0.0,0.0,0.0,0.0,0.0,0.0,-0.8038,-0.8038,-0.8038,-0.8075,-0.8099,0.0,0.0,0.0,0.0,0.0,0.0,-0.854,-0.8577,-0.8652,-0.8764,-0.8767,-0.8821,-0.8937,-0.894,-0.894,-0.894,-0.894,-0.894,-0.894,-0.8977,-0.8994,-0.8994,-0.9035,-0.9052,-0.9049,-0.9011,-0.8994,-0.8998,-0.9035,-0.9052,-0.9066,-0.9171,-0.9211,-0.9228,-0.9344,-0.9381,-0.9381,-0.9381,-0.9408,-0.9445,-0.9483,0.0,0.0,0.0,0.0,-0.9874,-0.9759,-1.0014,-1.0276,-1.0405,-1.0583,-1.0789,-1.1035,-1.1277,-1.1595,-1.2039,-1.308,-1.4079,-1.5063,-1.6042,0.0,-1.6638,-1.7461,-1.7929,-1.7572,-1.8648,-1.9127,-1.8532,-1.7812,-1.7337,-1.6979,-1.6161,-1.5456,-1.5095,-1.4262,-1.3665,-1.3665,-1.3665,-1.4262,-1.5575,0.0,0.0,0.0,0.0,0.0,0.0,0.0,0.0,0.0,0.0,0.0,0.0,0.0,0.0,0.0,0.0,0.0,0.0,0.0,0.0,0.0,0.0,0.0,0.0,0.0,0.0,0.0,0.0,0.0,-0.8038,-0.817,0.0,0.0,0.0,0.0,-0.8472,-0.8611,-0.8699,-0.8699,-0.8835,-0.892,-0.8927,-0.8927,-0.893,-0.894,-0.894,-0.894,-0.894,-0.894,-0.894,-0.8944,-0.9079,-0.9144,-0.915,-0.9296,-0.9357,-0.9347,-0.9201,-0.9144,-0.9157,-0.9303,-0.9357,-0.9361,-0.9367,-0.9367,-0.9371,-0.9378,-0.9381,-0.9381,-0.9381,-0.9479,-0.9625,-0.9758,-1.0041,0.0,0.0,-1.0528,-1.0774,-1.0767,-1.0536,-1.0425,-1.114,-1.1023,-1.0914,-1.1651,-1.1776,-1.1647,-1.1386,-1.1631,-1.2005,-1.2014,0.0,-1.5693,-1.5693,-1.7707,-1.8887,-1.7689,-1.8648,-1.8415,-1.6048,-1.6868,-1.6979,-1.5811,-1.5693,-1.5095,-1.3904,-1.3784,-1.3665,-1.3665,-1.3665,-1.4262,-1.5575,-1.675,0.0,0.0,0.0,0.0,0.0,0.0,0.0,0.0,0.0,0.0,0.0,0.0,0.0,0.0,0.0,0.0,0.0,0.0,0.0,0.0,0.0,0.0,0.0,0.0,0.0,0.0,0.0,0.0,-0.8187,-0.8319,0.0,-0.8408,-0.854,-0.8628,-0.8628,-0.8771,-0.8859,-0.8859,-0.891,-0.894,-0.894,-0.894,-0.8984,-0.9076,-0.9076,-0.9127,-0.9225,-0.9225,-0.9225,-0.9225,-0.9276,-0.93,-0.9303,-0.9357,-0.9381,-0.9384,-0.9429,-0.9388,-0.9306,-0.9361,-0.9381,-0.9395,-0.9493,-0.953,-0.954,-0.9632,-0.9663,-0.9663,-0.9663,-0.97,-0.9754,-0.9805,-0.994,-0.994,-0.994,-1.0183,-1.0425,-1.0425,-1.0668,-1.1031,-1.1273,-1.1402,-1.153,-1.1776,-1.1776,-1.1776,-1.1647,-1.308,-1.4743,-1.6402,-1.675,-1.6862,-1.6862,-1.7578,-1.8046,-1.7572,-1.8648,-1.8771,-1.6985,-1.6514,-1.58,-1.45,-1.4381,-1.4143,-1.3784,-1.3665,-1.3665,-1.3665,-1.296,-1.308,-1.4381,-1.4028,-1.4619,0.0,0.0,0.0,0.0,0.0,0.0,0.0,0.0,0.0,0.0,0.0,0.0,0.0,0.0,0.0,0.0,0.0,0.0,0.0,0.0,0.0,0.0,0.0,0.0,0.0,0.0,-0.834,-0.834,-0.8472,-0.856,-0.856,-0.8699,-0.8788,-0.8788,-0.8879,-0.894,-0.894,-0.8984,-0.9011,-0.9011,-0.9062,-0.9133,-0.9228,-0.9228,-0.9283,-0.9381,-0.9381,-0.9381,-0.9384,-0.9435,-0.9459,-0.9459,-0.951,-0.953,-0.9537,-0.9639,-0.9622,-0.953,-0.953,-0.953,-0.954,-0.9642,-0.968,-0.9693,-0.9788,-0.9822,-0.9822,-0.9822,-0.9822,-0.9822,-0.9822,-0.9943,-1.0183,-1.0183,-1.0429,-1.0796,-1.0796,-1.1035,-1.1288,-1.1468,-1.161,-1.1756,-1.1943,-1.1955,-1.2073,-1.2559,-1.3532,-1.4862,-1.652,-1.6509,-1.6177,-1.6267,-1.656,-1.6897,-1.6978,-1.7633,-1.7818,-1.6985,-1.6042,-1.5213,-1.4381,-1.4381,-1.4143,-1.3784,-1.3665,-1.3665,-1.3665,-1.284,-1.308,-1.4262,-1.3555,-1.3913,-1.5575,0.0,0.0,0.0,0.0,0.0,0.0,0.0,0.0,0.0,0.0,0.0,0.0,0.0,0.0,0.0,0.0,0.0,0.0,0.0,0.0,0.0,0.0,0.0,-0.8296,-0.8397,-0.8489,-0.8489,-0.8625,-0.8716,-0.8716,-0.8852,-0.894,-0.8947,-0.8947,-0.8947,-0.8954,-0.9086,-0.9161,-0.9161,-0.9303,-0.9384,-0.9388,-0.9388,-0.9391,-0.9395,-0.9395,-0.9395,-0.9401,-0.9547,-0.9615,-0.9625,-0.9761,-0.9822,-0.9822,-0.9822,-0.9822,-0.9822,-0.9822,-0.9822,-0.9822,-0.9822,-0.9822,-0.9822,-0.9822,-0.9822,-0.9822,-0.9822,-0.9825,-0.9829,-0.9825,-1.0315,-1.0804,-1.0804,-1.1296,-1.1792,-1.1792,-1.1542,-1.1453,-1.1872,-1.1789,-1.1712,-1.2142,-1.2308,-1.2679,-1.3908,-1.2873,-1.1792,-1.1913,-1.2978,-1.3875,-1.3958,-1.4901,0.0,-1.5766,-1.5731,-1.5596,-1.5591,-1.5591,-1.5596,-1.5477,-1.5477,-1.4997,-1.3684,-1.3688,-1.3688,-1.3688,-1.3688,-1.4277,-1.5467,-1.5575,-1.5575,-1.5575,0.0,0.0,0.0,0.0,0.0,0.0,0.0,0.0,0.0,0.0,0.0,0.0,0.0,0.0,0.0,0.0,0.0,0.0,0.0,0.0,0.0,0.0,-0.8594,-0.8445,-0.8554,-0.8648,-0.8648,-0.8781,-0.8876,-0.8876,-0.8913,-0.8981,-0.9086,-0.9093,-0.9144,-0.9252,-0.9296,-0.9317,-0.9317,-0.9361,-0.9435,-0.9547,-0.9547,-0.9598,-0.97,-0.97,-0.97,-0.97,-0.9744,-0.9764,-0.9764,-0.9802,-0.9822,-0.9822,-0.9822,-0.9822,-0.9822,-0.9822,-0.9822,-0.9822,-0.9822,-0.9822,-0.9822,-0.9822,-0.9822,-0.9819,-1.0061,-1.0264,-1.0482,-1.0725,-1.0813,-1.0904,-1.1029,-1.1283,-1.1537,-1.1787,-1.1908,-1.2045,-1.2219,-1.2105,-1.2118,-1.2296,-1.2308,-1.243,-1.2805,-1.2474,-1.2777,-1.4612,-1.5222,-1.5489,-1.5551,-1.5755,-1.598,-1.6038,-1.5996,-1.5591,-1.4725,-1.4607,-1.4237,-1.3265,-1.3265,-1.3021,-1.2648,-1.2648,-1.2648,-1.2648,-1.2648,-1.2828,-1.3048,-1.3745,-1.4738,0.0,0.0,0.0,0.0,0.0,0.0,0.0,0.0,0.0,0.0,0.0,0.0,0.0,0.0,0.0,0.0,0.0,0.0,0.0,0.0,0.0,0.0,-0.8747,-0.8774,-0.8686,-0.875,-0.8804,-0.8804,-0.8882,-0.896,-0.9022,-0.9028,-0.9089,-0.9239,-0.9249,-0.9289,-0.9374,-0.9442,-0.9476,-0.9476,-0.9534,-0.9608,-0.9696,-0.9696,-0.9741,-0.9822,-0.9822,-0.9852,-0.9917,-0.9917,-0.9951,-1.0012,-1.0012,-1.0012,-1.0012,-1.0012,-1.0012,0.0,0.0,0.0,0.0,0.0,-1.0204,-1.026,-1.0383,-1.0383,-1.026,-1.0507,-1.0447,-1.0524,-1.09,-1.0966,-1.1038,-1.1422,-1.1549,-1.1802,-1.1929,-1.2182,-1.2324,-1.2398,-1.2414,-1.2434,-1.2511,-1.2527,-1.2527,-1.2527,-1.2527,0.0,-1.4421,-1.4659,-1.4572,-1.4654,-1.4596,-1.4572,-1.4659,-1.4591,-1.4168,-1.3416,-1.3416,-1.3048,-1.2304,-1.2308,0.0,0.0,0.0,-1.2308,-1.2308,-1.2308,0.0,0.0,0.0,-1.3812,-1.5145,-1.6481,0.0,0.0,-1.9043,-1.9633,0.0,0.0,0.0,0.0,0.0,0.0,0.0,0.0,0.0,0.0,0.0,0.0,0.0,0.0,0.0,0.0,-0.894,-0.8944,-0.896,-0.8964,-0.8964,-0.8964,-0.8964,-0.9018,-0.9164,-0.9178,-0.9242,-0.9395,-0.9408,-0.9415,-0.9432,0.0,0.0,0.0,0.0,-0.9829,-0.9846,-0.9846,-0.9856,-0.9873,-0.9873,-0.9944,-1.0076,-1.0076,-1.0151,-1.028,-1.028,-1.028,-1.028,-1.028,-1.028,-1.0253,-0.9981,-0.9873,-0.989,-1.0397,-1.0664,-1.0788,-1.1038,0.0,0.0,-1.0788,-1.0672,-1.0558,-1.094,-1.1206,-1.1475,-1.1857,-1.2111,-1.2365,-1.2365,-1.2365,-1.2406,-1.256,-1.2596,-1.2641,-1.28,-1.2836,-1.2836,-1.2836,-1.2836,-1.2836,-1.2836,-1.2576,-1.2418,-1.2572,-1.2467,-1.2422,-1.2572,-1.2462,-1.2365,-1.2365,0.0,0.0,-1.2365,-1.2365,-1.2365,-1.2365,-1.2365,-1.2365,-1.2365,-1.2349,-1.2337,-1.2337,-1.2316,-1.3052,-1.4663,-1.5799,-1.7168,-1.8649,-1.9748,-2.0234,0.0,0.0,0.0,0.0,0.0,0.0,0.0,0.0,0.0,0.0,0.0,0.0,0.0,0.0,0.0,-0.8933,-0.894,-0.8981,-0.9096,-0.9113,-0.9113,-0.9113,-0.9113,-0.9171,-0.9323,-0.9337,-0.9401,-0.9554,-0.9564,-0.9615,-0.973,-0.9764,-0.9781,-0.9781,-0.9805,-0.988,-1.0005,-1.0005,-1.0066,-1.0192,0.0,0.0,-1.0236,-1.0236,-1.0253,-1.028,-1.028,-1.028,-1.028,-1.028,-1.028,-1.0276,-1.0215,-1.0192,-1.0195,-1.0352,-1.0383,-1.0407,-1.0407,-1.0661,-1.0788,-1.1169,-1.1509,-1.1868,-1.213,-1.2228,0.0,-1.2473,-1.2473,-1.2342,-1.2604,-1.2735,-1.2743,-1.2775,-1.2783,-1.2791,-1.2828,-1.2836,-1.2836,-1.2836,-1.2836,-1.2836,-1.2836,-1.2779,-1.2747,-1.2779,-1.2755,-1.2747,-1.2779,-1.2755,-1.2735,-1.2735,-1.2735,-1.2735,-1.2735,-1.2735,-1.2735,-1.2735,-1.2735,-1.2735,-1.2735,-1.2592,-1.2515,-1.2515,-1.2377,-1.3546,-1.5892,-1.6452,-1.7929,-2.0204,-2.0219,-2.0234,0.0,0.0,0.0,0.0,0.0,0.0,0.0,0.0,0.0,0.0,0.0,-0.8849,0.0,0.0,-0.896,-0.9035,-0.9045,-0.9096,-0.9245,-0.9266,-0.9266,-0.9266,-0.9266,-0.9327,-0.9483,-0.9496,-0.9557,-0.9703,-0.9717,-0.9747,-0.9819,-0.9822,-0.9856,-0.9934,-0.9934,-1.0008,-1.0164,-1.0164,-1.0205,-1.028,-1.028,-1.0317,-1.0385,-1.0385,-1.0429,-1.05,-1.05,-1.05,-1.05,-1.05,-1.05,-1.05,-1.05,-1.0453,-1.0388,-1.0642,-1.0823,-1.102,-1.1279,-1.1408,-1.1538,-1.1797,-1.185,-1.2046,-1.2307,-1.237,-1.2309,-1.2704,-1.2704,-1.2572,-1.2704,-1.2836,-1.2836,-1.2836,-1.2836,-1.2836,-1.2836,-1.2836,-1.2836,-1.2836,-1.2836,-1.2836,-1.2836,-1.2836,-1.2836,-1.2836,-1.2836,-1.2836,-1.2836,-1.2836,-1.2836,-1.2836,-1.2836,-1.2836,-1.2836,-1.2836,-1.2836,-1.2836,-1.2836,-1.2836,-1.2836,-1.2747,-1.2702,-1.2702,-1.3251,-1.46,-1.6619,-1.75,-1.8837,-2.0889,-2.0742,-2.0668,0.0,0.0,0.0,0.0,0.0,0.0,0.0,0.0,-0.8781,-0.8876,-0.8916,-0.894,-0.894,-0.896,-0.9018,-0.9133,-0.9178,-0.9252,-0.9405,-0.9425,-0.9435,-0.9462,-0.9442,-0.9486,-0.9635,-0.9649,-0.9696,-0.9812,-0.9822,-0.9822,-0.9822,-0.9849,-0.992,-1.0046,-1.0076,-1.0168,-1.0321,-1.0321,-1.0337,-1.0368,-1.0368,-1.0426,-1.0534,-1.0534,-1.0605,-1.0721,-1.0721,-1.0721,-1.0721,-1.0721,-1.0721,-1.0721,-1.0721,-1.0774,-1.0668,-1.0925,-1.1399,-1.178,-1.2045,-1.2309,-1.2309,-1.2309,-1.2177,-1.2045,-1.2309,-1.2441,-1.2441,-1.2704,-1.2836,-1.2836,-1.2836,-1.2836,-1.2836,-1.2836,-1.2836,-1.2836,-1.2836,-1.2836,-1.2836,-1.2836,-1.2836,-1.2836,-1.2836,-1.2836,-1.2836,-1.2836,-1.2836,-1.2836,-1.2836,-1.2836,-1.2836,-1.2836,-1.2836,-1.2836,-1.2836,-1.2836,-1.2836,-1.2836,-1.2836,-1.2836,-1.2836,-1.2836,-1.2836,-1.2836,-1.387,-1.5298,-1.698,-1.8133,-1.9425,-2.1109,-2.1109,-2.1109,-0.5024,-0.5729,-0.6539,-0.6653,-0.7542,-0.8435,0.0,0.0,-0.8879,-0.876,-0.8845,-0.894,-0.894,-0.9042,-0.9133,-0.915,-0.9266,-0.9408,-0.9561,-0.9585,-0.9632,-0.9758,-0.9659,-0.9639,-0.9785,-0.9798,-0.9802,-0.9819,-0.9822,-0.9822,-0.9822,-0.9947,-1.0032,-1.0049,-1.0181,-1.0324,-1.0466,-1.047,-1.0534,-1.067,-1.067,-1.068,-1.0694,-1.0694,-1.0704,-1.0721,-1.0721,-1.0721,-1.0721,-1.0721,-1.0721,-1.0721,-1.0982,-1.1104,-1.109,-1.1222,-1.1497,-1.178,-1.178,-1.2045,-1.2309,-1.2309,-1.2441,-1.2704,-1.2704,-1.2704,-1.2704,-1.2836,-1.2836,-1.2836,-1.2836,-1.2836,-1.2836,-1.2836,-1.2836,-1.2836,-1.2836,-1.2836,-1.2836,-1.2836,-1.2836,-1.2836,-1.2836,-1.2836,-1.2836,-1.2836,-1.2836,-1.2836,-1.2836,-1.2836,-1.2836,-1.2836,-1.2836,-1.2836,-1.2836,-1.2836,-1.2836,-1.2836,-1.2836,-1.2836,-1.2836,-1.2836,-1.2836,-1.2836,-1.2968,-1.4394,-1.698,-1.7103,-1.8524,-2.1109,-2.1109,-2.1109,-0.4926,-0.5732,-0.6469,-0.6608,-0.7553,-0.8513,-0.8632,-0.8804,-0.892,-0.8855,-0.8896,-0.8964,-0.9049,-0.9113,-0.9211,0.0,-0.9473,-0.9564,-0.971,-0.9734,-0.9754,-0.9815,-0.9768,-0.9754,-0.9815,-0.9822,-0.9822,-0.9822,-0.9903,-0.9954,-0.9954,-1.01,-1.0222,-1.0304,-1.0371,-1.0473,-1.0622,-1.0626,-1.0656,-1.0721,-1.0721,-1.0721,-1.0721,-1.0721,-1.0721,-1.0721,-1.0721,-1.0721,-1.0721,-1.0721,-1.0853,-1.0982,-1.1115,-1.1512,-1.178,-1.1648,-1.178,-1.2045,-1.2045,-1.2309,-1.2572,-1.2572,-1.2704,-1.2836,-1.2836,-1.2836,-1.2836,-1.2836,-1.2836,-1.2836,-1.2836,-1.2836,-1.2836,-1.2836,-1.2836,-1.2836,-1.2836,-1.2836,-1.2836,-1.2836,-1.2836,-1.2836,-1.2836,-1.2836,-1.2836,-1.2836,-1.2836,-1.2836,-1.2836,-1.2836,-1.2836,-1.2836,-1.2836,-1.2836,-1.2836,-1.2836,-1.2836,-1.2836,-1.2836,-1.2836,-1.2836,-1.2836,-1.2836,-1.2836,-1.3613,-1.4651,-1.5814,-1.6586,-1.7625,-1.878,-1.9553,-1.9941,-0.413,-0.4949,-0.5713,-0.6386,-0.732,-0.8172,-0.8716,-0.891,-0.894,-0.894,-0.8971,-0.9028,-0.9133,-0.9222,-0.9351,-0.9571,-0.9642,-0.9703,-0.9805,-0.9822,-0.9822,-0.9822,-0.9822,-0.9822,-0.9822,-0.9822,-0.9839,-0.988,-0.9985,-1.0066,-1.011,-1.0256,-1.0385,-1.0487,-1.0531,-1.0609,-1.0717,-1.0721,-1.0721,-1.0721,-1.0721,-1.0721,-1.0721,-1.0721,-1.0721,-1.0721,-1.0721,-1.0721,-1.0853,-1.0853,-1.0982,-1.138,-1.1512,-1.178,-1.2309,-1.2177,-1.2177,-1.2441,-1.2441,-1.2572,-1.2836,-1.2836,-1.2836,-1.2836,-1.2836,-1.2836,-1.2836,-1.2836,-1.2836,-1.2836,-1.2836,-1.2836,-1.2836,-1.2836,-1.2836,-1.2836,-1.2836,-1.2836,-1.2836,-1.2836,-1.2836,-1.2836,-1.2836,-1.2836,-1.2836,-1.2836,-1.2836,-1.2836,-1.2836,-1.2836,-1.2836,-1.2836,-1.2836,-1.2836,-1.2836,-1.2836,-1.2836,-1.2836,-1.2836,-1.2836,-1.2836,-1.2836,-1.2836,-1.2836,-1.3744,-1.452,-1.4907,-1.5944,-1.6592,-1.6974,-1.8396,-1.9036,-0.2122,-0.2761,-0.3725,-0.5175,-0.6265,-0.7291,-0.8389,-0.8832,-0.894,-0.894,-0.9049,-0.9147,-0.9154,-0.9395,-0.9598,-0.9608,-0.9724,-0.9815,-0.9822,-0.9822,-0.9822,-0.9822,-0.9822,-0.9822,0.0,-0.9822,-0.9883,-1.0032,-1.0046,-1.0114,-1.0266,-1.0409,-1.0487,-1.049,-1.0636,-1.0714,-1.0721,-1.0721,-1.0721,-1.0721,-1.0721,-1.0721,-1.0721,-1.0721,-1.0721,-1.0721,-1.0721,-1.085,-1.1115,-1.1115,-1.138,-1.178,-1.2177,-1.2309,-1.2309,-1.2704,-1.2836,-1.2836,-1.2836,-1.2836,-1.2836,-1.2836,-1.2836,-1.2836,-1.2836,-1.2836,-1.2836,-1.2836,-1.2836,-1.2836,-1.2836,-1.2836,-1.2836,-1.2836,-1.2836,-1.2836,-1.2836,-1.2836,-1.2836,-1.2836,-1.2836,-1.2836,-1.2836,-1.2836,-1.2836,-1.2836,-1.2836,-1.2836,-1.2836,-1.2836,-1.2836,-1.2836,-1.2836,-1.2836,-1.2836,-1.2836,-1.2836,-1.2836,-1.2836,-1.2836,-1.2836,-1.2836,-1.2836,-1.2836,-1.2836,-1.3486,-1.4907,-1.4907,-1.5684,-1.6974,-1.8396,-1.9036,-0.2563,-0.3096,-0.3751,-0.4369,-0.5726,-0.6991,-0.7515,-0.8345,-0.8964,-0.9062,-0.912,-0.9215,-0.9418,-0.954,-0.9639,-0.9734,-0.9788,-0.9822,-0.9822,-0.9822,-0.9822,-0.9822,-0.9822,0.0,0.0,0.0,0.0,-1.0046,-1.0232,-1.0365,-1.0419,-1.0561,-1.0643,-1.0643,-1.0694,-1.0721,-1.0721,-1.0721,-1.0721,-1.0721,-1.0721,-1.0721,-1.0721,-1.0721,-1.0721,-1.0721,-1.0982,-1.1115,-1.1247,-1.1516,-1.178,-1.2177,-1.2309,-1.2441,-1.2704,-1.2704,-1.2836,-1.2836,-1.2836,-1.2836,-1.2836,-1.2836,-1.2836,-1.2836,-1.2836,-1.2836,-1.2836,-1.2836,-1.2836,-1.2836,-1.2836,-1.2836,-1.2836,-1.2836,-1.2836,-1.2836,-1.2836,-1.2836,-1.2836,-1.2836,-1.2836,-1.2836,-1.2836,-1.2836,-1.2836,-1.2836,-1.2836,-1.2836,-1.2836,-1.2836,-1.2836,-1.2836,-1.2836,-1.2836,-1.2836,-1.2836,-1.2836,-1.2836,-1.2836,-1.2836,-1.2836,-1.2836,-1.2836,-1.2836,-1.2836,-1.2964,-1.3486,-1.3486,-1.3744,-1.4263,-1.6586,-1.7619,-0.2792,-0.2931,-0.3293,-0.3798,-0.4818,-0.5953,-0.6911,-0.7709,-0.8418,-0.912,-0.9198,-0.931,-0.9564,-0.9649,-0.9717,-0.9805,-0.9822,-0.9822,-0.9822,-0.9822,-0.9822,-0.9822,-0.9822,-0.9842,0.0,0.0,0.0,-1.0131,-1.0354,-1.0517,-1.0571,-1.0666,-1.0721,-1.0721,-1.0721,-1.0721,-1.0721,-1.0721,-1.0721,-1.0721,-1.0721,-1.0721,-1.0721,-1.0721,-1.0721,-1.085,-1.1115,-1.138,-1.1648,-1.1912,-1.2177,-1.2441,-1.2441,-1.2572,-1.2836,-1.2836,-1.2836,-1.2836,-1.2836,-1.2836,-1.2836,-1.2836,-1.2836,-1.2836,-1.2836,-1.2836,-1.2836,-1.2836,-1.2836,-1.2836,-1.2836,-1.2836,-1.2836,-1.2836,-1.2836,-1.2836,-1.2836,-1.2836,-1.2836,-1.2836,-1.2836,-1.2836,-1.2836,-1.2836,-1.2836,-1.2836,-1.2836,-1.2836,-1.2836,-1.2836,-1.2836,-1.2836,-1.2836,-1.2836,-1.2836,-1.2836,-1.2836,-1.2836,-1.2836,-1.2836,-1.2836,-1.2836,-1.2836,-1.2836,-1.2836,-1.2836,-1.2836,-1.2836,-1.3095,-1.3617,-1.5944,-1.7232,-0.2596,-0.2451,-0.2515,-0.3605,-0.3759,-0.425,-0.6482,-0.7041,-0.7522,-0.8791,-0.9279,-0.9432,0.0,0.0,-0.9822,-0.9822,-0.9822,-0.9822,-0.9822,-0.9822,-0.9822,0.0,0.0,0.0,0.0,0.0,0.0,-1.029,0.0,-1.0568,-1.0714,-1.0721,-1.0721,-1.0721,-1.0721,-1.0721,-1.0721,-1.0721,-1.0721,-1.0721,-1.0721,-1.0721,-1.0721,-1.0721,-1.0853,-1.1247,-1.1247,-1.1648,-1.2309,-1.2309,-1.2572,-1.2836,-1.2836,-1.2836,-1.2836,-1.2836,-1.2836,-1.2836,-1.2836,-1.2836,-1.2836,-1.2836,-1.2836,-1.2836,-1.2836,-1.2836,-1.2836,-1.2836,-1.2836,-1.2836,-1.2836,-1.2836,-1.2836,-1.2836,-1.2836,-1.2836,-1.2836,-1.2836,-1.2836,-1.2836,-1.2836,-1.2836,-1.2836,-1.2836,-1.2836,-1.2836,-1.2836,-1.2836,-1.2836,-1.2836,-1.2836,-1.2836,-1.2836,-1.2836,-1.2836,-1.2836,-1.2836,-1.2836,-1.2836,-1.2836,-1.2836,-1.2836,-1.2836,-1.2836,-1.2836,-1.2836,-1.2836,-1.2836,-1.3486,-1.4907,-1.6333,-1.7748,-0.3165,-0.3013,-0.2963,-0.3218,-0.3795,-0.4365,-0.4698,-0.6146,-0.7544,-0.7878,-0.8768,-0.9459,0.0,0.0,0.0,-0.9822,-0.9822,0.0,-0.9822,-0.9822,0.0,-0.9822,0.0,-0.988,-1.0036,-1.0188,0.0,0.0,-1.0578,-1.068,-1.0717,-1.0721,-1.0721,-1.0721,-1.0721,-1.0721,-1.0721,-1.0721,-1.0721,-1.0721,-1.0721,-1.085,-1.1118,-1.1118,-1.1251,-1.1648,-1.1912,-1.2177,-1.2309,-1.2572,-1.2704,-1.2836,-1.2836,-1.2836,-1.2836,-1.2836,-1.2836,-1.2836,-1.2836,-1.2836,-1.2836,-1.2836,-1.2836,-1.2836,-1.2836,-1.2836,-1.2836,-1.2836,-1.2836,-1.2836,-1.2836,-1.2836,-1.2836,-1.2836,-1.2836,-1.2836,-1.2836,-1.2836,-1.2836,-1.2836,-1.2836,-1.2836,-1.2836,-1.2836,-1.2836,-1.2836,-1.2836,-1.2836,-1.2836,-1.2836,-1.2836,-1.2836,-1.2836,-1.2836,-1.2836,-1.2836,-1.2836,-1.2836,-1.2836,-1.2836,-1.2836,-1.2836,-1.2836,-1.2836,-1.2836,-1.2836,-1.2836,-1.2836,-1.3486,-1.4907,-1.6333,-1.7748,-0.3296,-0.3042,-0.2883,-0.2909,-0.3138,-0.3585,-0.4697,-0.5919,-0.7086,-0.819,-0.9096,0.0,-0.9683,-0.9778,0.0,0.0,0.0,0.0,-0.9822,-0.9822,-0.9822,0.0,-0.9822,0.0,-1.0131,-1.0229,-1.0368,0.0,-1.067,-1.0721,-1.0721,-1.0721,-1.0721,-1.0721,-1.0721,-1.0721,-1.0721,-1.0721,-1.0721,-1.0986,-1.0986,-1.1115,-1.1516,-1.1516,-1.1648,-1.2045,-1.2177,-1.2441,-1.2572,-1.2704,-1.2836,-1.2836,-1.2836,-1.2836,-1.2836,-1.2836,-1.2836,-1.2836,-1.2836,-1.2836,-1.2836,-1.2836,-1.2836,-1.2836,-1.2836,-1.2836,-1.2836,-1.2836,-1.2836,-1.2836,-1.2836,-1.2836,-1.2836,-1.2836,-1.2836,-1.2836,-1.2836,-1.2836,-1.2836,-1.2836,-1.2836,-1.2836,-1.2836,-1.2836,-1.2836,-1.2836,-1.2836,-1.2836,-1.2836,-1.2836,-1.2836,-1.2836,-1.2836,-1.2836,-1.2836,-1.2836,-1.2836,-1.2836,-1.2836,-1.2836,-1.2836,-1.2836,-1.2836,-1.2836,-1.2836,-1.2836,-1.2836,-1.2836,-1.3486,-1.4907,-1.6333,-1.7748,-0.31,-0.2957,-0.2806,-0.2918,-0.2579,-0.2912,-0.5584,-0.6142,-0.673,-0.8888,0.0,-0.975,-0.9578,-0.971,-0.9798,-0.9819,0.0,-0.9822,-0.9822,-0.9822,-0.9822,-0.9822,-0.9822,-0.9941,-1.0249,-1.028,-1.0402,-1.0697,-1.0721,-1.0721,-1.0721,-1.0721,-1.0721,-1.0721,-1.0721,-1.0721,-1.0721,-1.0721,-1.0853,-1.1247,-1.1247,-1.1516,-1.1912,-1.1912,-1.2045,-1.2309,-1.2309,-1.2572,-1.2836,-1.2836,-1.2836,-1.2836,-1.2836,-1.2836,-1.2836,-1.2836,-1.2836,-1.2836,-1.2836,-1.2836,-1.2836,-1.2836,-1.2836,-1.2836,-1.2836,-1.2836,-1.2836,-1.2836,-1.2836,-1.2836,-1.2836,-1.2836,-1.2836,-1.2836,-1.2836,-1.2836,-1.2836,-1.2836,-1.2836,-1.2836,-1.2836,-1.2836,-1.2836,-1.2836,-1.2836,-1.2836,-1.2836,-1.2836,-1.2836,-1.2836,-1.2836,-1.2836,-1.2836,-1.2836,-1.2836,-1.2836,-1.2836,-1.2836,-1.2836,-1.2836,-1.2836,-1.2836,-1.2836,-1.2836,-1.2836,-1.2836,-1.2836,-1.2836,-1.3617,-1.5168,-1.6462,-1.7882,-0.3361,-0.3202,-0.325,-0.4258,-0.4257,-0.4365,-0.5588,-0.6808,0.0,0.0,-0.8824,-0.9617,-0.9557,-0.9629,-0.9686,-0.9802,-0.9822,-0.9822,-0.9822,-0.9822,-0.9822,0.0,-0.9822,-0.9941,-1.0249,-1.028,0.0,0.0,-1.0721,-1.0721,-1.0721,-1.0721,-1.0721,-1.0721,-1.0721,-1.0721,-1.0721,-1.0986,-1.1115,-1.1247,-1.1512,-1.1912,-1.2177,-1.2177,-1.2441,-1.2704,-1.2704,0.0,-1.2836,-1.2836,-1.2836,-1.2836,-1.2836,-1.2836,-1.2836,-1.2836,-1.2836,-1.2836,-1.2836,-1.2836,-1.2836,-1.2836,-1.2836,-1.2836,-1.2836,-1.2836,-1.2836,-1.2836,-1.2836,-1.2836,-1.2836,-1.2836,-1.2836,-1.2836,-1.2836,-1.2836,-1.2836,-1.2836,-1.2836,-1.2836,-1.2836,-1.2836,-1.2836,-1.2836,-1.2836,-1.2836,-1.2836,-1.2836,-1.2836,-1.2836,-1.2836,-1.2836,-1.2836,-1.2836,-1.2836,-1.2836,-1.2836,-1.2836,-1.2836,-1.2836,-1.2836,-1.2836,-1.2836,-1.2836,-1.2836,-1.2836,-1.2836,-1.2836,-1.4132,-1.6586,-1.6845,-1.8396,-0.3481,-0.365,-0.4032,-0.4706,-0.4925,-0.5365,-0.6813,0.0,0.0,0.0,-0.9321,-0.9792,-0.9566,-0.9554,0.0,-0.9798,-0.9822,-0.9822,-0.9822,-0.9822,-0.9822,-0.9822,-0.9822,-0.9941,-1.0249,-1.028,-1.0402,-1.0697,-1.0721,-1.0721,-1.0721,-1.0721,-1.0721,-1.0986,-1.0853,-1.0721,-1.0986,-1.1118,-1.138,-1.178,-1.1912,-1.2177,-1.2572,-1.2572,-1.2704,-1.2836,-1.2836,-1.2836,-1.2836,-1.2836,-1.2836,-1.2836,-1.2836,-1.2836,-1.2836,-1.2836,-1.2836,-1.2836,-1.2836,-1.2836,-1.2836,-1.2836,-1.2836,-1.2836,-1.2836,-1.2836,-1.2836,-1.2836,-1.2836,-1.2836,-1.2836,-1.2836,-1.2836,-1.2836,-1.2836,-1.2836,-1.2836,-1.2836,-1.2836,-1.2836,-1.2836,-1.2836,-1.2836,-1.2836,-1.2836,-1.2836,-1.2836,-1.2836,-1.2836,-1.2836,-1.2836,-1.2836,-1.2836,-1.2836,-1.2836,-1.2836,-1.2836,-1.2836,-1.2836,-1.2836,-1.2836,-1.2836,-1.2836,-1.2836,-1.3486,-1.3875,-1.3875,-1.4651,-1.5684,-1.6974,-1.7753,-1.878,-0.3697,-0.42,-0.4702,-0.5371,-0.5701,-0.6364,-0.8149,-0.8481,0.0,-0.9372,-0.9698,-0.9723,-0.9422,-0.9456,-0.9608,0.0,-0.9802,-0.9822,-0.9822,-0.9822,-0.9822,0.0,-0.9822,0.0,-1.0249,-1.028,0.0,-1.0829,-1.0853,-1.0853,-1.0853,-1.0721,-1.0853,-1.1247,-1.0853,-1.0853,-1.1247,-1.1251,-1.1648,-1.2309,-1.2309,-1.2572,-1.2836,-1.2836,-1.2836,-1.2836,-1.2836,-1.2836,-1.2836,-1.2836,-1.2836,-1.2836,-1.2836,-1.2836,-1.2836,-1.2836,-1.2836,-1.2836,-1.2836,-1.2836,-1.2836,-1.2836,-1.2836,-1.2836,-1.2836,-1.2836,-1.2836,-1.2836,-1.2836,-1.2836,-1.2836,-1.2836,-1.2836,-1.2836,-1.2836,-1.2836,-1.2836,-1.2836,-1.2836,-1.2836,-1.2836,-1.2836,-1.2836,-1.2836,-1.2836,-1.2836,-1.2836,-1.2836,-1.2836,-1.2836,-1.2836,-1.2836,-1.2836,-1.2836,-1.2836,-1.2836,-1.2836,-1.2836,-1.2836,-1.2836,-1.2836,-1.2836,-1.2836,-1.2836,-1.4132,-1.4907,-1.4907,-1.6333,-1.7109,-1.749,-1.8524,-1.92,-0.4451,-0.4858,-0.5365,-0.7254,-0.759,-0.7703,-0.8602,0.0,-0.9265,-0.9047,-0.9282,-0.9446,-0.926,-0.93,-0.9452,-0.9605,0.0,-0.9822,-0.9822,-0.9822,-0.9822,-0.9822,0.0,0.0,-1.0249,-1.028,-1.0531,-1.1094,-1.1516,-1.1512,-1.1118,-1.0853,-1.0853,-1.1247,-1.0853,-1.0853,-1.1247,-1.1516,-1.1912,-1.2309,-1.2572,-1.2704,-1.2836,-1.2836,-1.2836,-1.2836,-1.2836,-1.2836,0.0,-1.2836,-1.2836,-1.2836,-1.2836,-1.2836,-1.2836,-1.2836,-1.2836,-1.2836,-1.2836,-1.2836,-1.2836,-1.2836,-1.2836,-1.2836,-1.2836,-1.2836,-1.2836,-1.2836,-1.2836,-1.2836,-1.2836,-1.2836,-1.2836,-1.2836,-1.2836,-1.2836,-1.2836,-1.2836,-1.2836,-1.2836,-1.2836,-1.2836,-1.2836,-1.2836,-1.2836,-1.2836,-1.2836,-1.2836,-1.2836,-1.2836,-1.2836,-1.2836,-1.2836,-1.2836,-1.2836,-1.2836,-1.2836,-1.2836,-1.2836,-1.2836,-1.2836,-1.2836,-1.2836,-1.2836,-1.4132,-1.4907,-1.4907,-1.6333,-1.7619,-1.878,-1.8908,-1.9817,-0.5424,-0.6174,-0.6919,-0.759,-0.826,-0.8819,-0.9158,0.0,-0.9379,-0.9268,-0.9268,-0.9314,-0.924,-0.9276,-0.9432,-0.9585,0.0,0.0,-0.9819,-0.9943,-1.0061,-0.9822,-0.9822,0.0,0.0,0.0,-1.0916,-1.149,-1.1648,-1.178,-1.1912,-1.1247,-1.1118,-1.1516,-1.1247,-1.1251,-1.1912,-1.2045,-1.2309,-1.2572,-1.2704,-1.2836,-1.2836,-1.2836,-1.2836,-1.2836,-1.2836,-1.2836,0.0,-1.2836,-1.2836,-1.2836,-1.2836,-1.2836,-1.2836,-1.2836,-1.2836,-1.2836,-1.2836,-1.2836,-1.2836,-1.2836,-1.2836,-1.2836,-1.2836,-1.2836,-1.2836,-1.2836,-1.2836,-1.2836,-1.2836,-1.2836,-1.2836,-1.2836,-1.2836,-1.2836,-1.2836,-1.2836,-1.2836,-1.2836,-1.2836,-1.2836,-1.2836,-1.2836,-1.2836,-1.2836,-1.2836,-1.2836,-1.2836,-1.2836,-1.2836,-1.2836,-1.2836,-1.2836,-1.2836,-1.2836,-1.2836,-1.2836,-1.2836,-1.2836,-1.2836,-1.2836,-1.3227,-1.4002,-1.5424,-1.6586,-1.7361,-1.878,-1.9686,-2.0208,-2.0509,-2.0915,-0.6343,-0.7325,-0.8094,-0.8137,-0.8816,-0.9489,0.0,0.0,-0.9268,-0.9268,-0.9268,-0.9189,-0.9181,-0.9249,-0.9415,0.0,0.0,-1.0183,-0.9822,-1.0183,-1.0304,-0.994,0.0,-1.0721,0.0,-1.0998,-1.1405,-1.1897,-1.2045,-1.2305,-1.2828,-1.2037,-1.1648,-1.1912,-1.1516,-1.1648,-1.2309,-1.2309,-1.2441,-1.2836,-1.2836,-1.2836,-1.2836,-1.2836,-1.2836,-1.2836,-1.2836,-1.2836,0.0,-1.2836,-1.2836,-1.2836,-1.2836,-1.2836,-1.2836,-1.2836,-1.2836,-1.2836,-1.2836,-1.2836,-1.2836,-1.2836,-1.2836,-1.2836,-1.2836,-1.2836,-1.2836,-1.2836,-1.2836,-1.2836,-1.2836,-1.2836,-1.2836,-1.2836,-1.2836,-1.2836,-1.2836,-1.2836,-1.2836,-1.2836,-1.2836,-1.2836,-1.2836,-1.2836,-1.2836,-1.2836,-1.2836,-1.2836,-1.2836,-1.2836,-1.2836,-1.2836,-1.2836,-1.2836,-1.2836,-1.2836,-1.2836,-1.2836,-1.2836,-1.2836,-1.2836,-1.2836,-1.3486,-1.4907,-1.6328,-1.7619,-1.9036,-2.0462,-2.1156,-2.1243,-2.1456,-2.1643,-0.727,-0.794,-0.852,-0.9226,-0.9596,-0.9596,0.0,0.0,-0.894,-0.894,-0.894,-0.894,-0.894,-0.9184,-0.9381,-0.9384,-0.9867,0.0,-0.9822,-1.0425,-1.0668,0.0,0.0,-1.2572,-1.1404,-1.1846,-1.2305,-1.2309,-1.2572,0.0,-1.4381,-1.3087,-1.2309,-1.2309,-1.1912,-1.1912,-1.2309,-1.2309,-1.2441,-1.2836,-1.2836,-1.2836,-1.2836,-1.2836,-1.2836,-1.2836,-1.2836,-1.2836,0.0,-1.2836,-1.2836,-1.2836,-1.2836,-1.2836,-1.2836,-1.2836,-1.2836,-1.2836,-1.2836,-1.2836,-1.2836,-1.2836,-1.2836,-1.2836,-1.2836,-1.2836,-1.2836,-1.2836,-1.2836,-1.2836,-1.2836,-1.2836,-1.2836,-1.2836,-1.2836,-1.2836,-1.2836,-1.2836,-1.2836,-1.2836,-1.2836,-1.2836,-1.2836,-1.2836,-1.2836,-1.2836,-1.2836,-1.2836,-1.2836,-1.2836,-1.2836,-1.2836,-1.2836,-1.2836,-1.2836,-1.2836,-1.2836,-1.2836,-1.2836,-1.2836,-1.2836,-1.2836,-1.3486,-1.4907,-1.6328,-1.7619,-1.9036,-2.0462,-2.1263,-2.155,-2.155,-2.1857,-0.8313,-0.8539,-0.869,-0.8852,-0.9106,-0.9352,-0.9023,0.0,-0.894,-0.894,-0.894,-0.894,-0.894,-0.9181,-0.9381,-0.9381,-1.0101,0.0,0.0,0.0,0.0,-1.1619,-1.2492,-1.2716,0.0,0.0,-1.2832,-1.4002,-1.4132,-1.4777,-1.6068,-1.5809,-1.5033,-1.3735,-1.2696,-1.2309,-1.2704,-1.2704,-1.2704,-1.2836,-1.2836,-1.2836,-1.2836,-1.2836,-1.2836,-1.2836,-1.2836,-1.2836,-1.2836,-1.2836,-1.2836,-1.2836,-1.2836,-1.2836,-1.2836,-1.2836,-1.2836,-1.2836,-1.2836,-1.2836,-1.2836,-1.2836,-1.2836,-1.2836,-1.2836,-1.2836,-1.2836,-1.2836,-1.2836,-1.2836,-1.2836,-1.2836,-1.2836,-1.2836,-1.2836,-1.2836,-1.2836,-1.2836,-1.2836,-1.2836,-1.2836,-1.2836,-1.2836,-1.2836,-1.2836,-1.2836,-1.2836,-1.2836,-1.2836,-1.2836,-1.2836,-1.2836,-1.2836,-1.2836,-1.2836,-1.2836,-1.2836,-1.2836,-1.2836,-1.2836,-1.2836,-1.2836,-1.387,-1.6333,-1.6716,-1.8139,-2.0462,-2.0849,-2.1363,-2.185,-2.2051,-2.2352,0.0,-0.8844,-0.8953,-0.8694,-0.8883,0.0,0.0,-0.8896,-0.894,-0.894,-0.894,-0.894,-0.894,-0.9181,-0.9497,-0.9613,-1.0224,0.0,0.0,0.0,0.0,-1.4231,0.0,0.0,0.0,-1.4194,-1.4516,-1.5554,-1.5684,-1.6333,-1.7625,-1.7232,-1.6457,-1.5419,-1.3997,-1.3091,-1.2836,-1.2836,-1.2836,-1.2836,-1.2836,-1.2836,-1.2836,-1.2836,-1.2836,-1.2836,-1.2836,-1.2836,0.0,-1.2836,-1.2836,-1.2836,-1.2836,-1.2836,-1.2836,-1.2836,-1.2836,-1.2836,-1.2836,-1.2836,-1.2836,-1.2836,-1.2836,-1.2836,-1.2836,-1.2836,-1.2836,-1.2836,-1.2836,-1.2836,-1.2836,-1.2836,-1.2836,-1.2836,-1.2836,-1.2836,-1.2836,-1.2836,-1.2836,-1.2836,-1.2836,-1.2836,-1.2836,-1.2836,-1.2836,-1.2836,-1.2836,-1.2836,-1.2836,-1.2836,-1.2836,-1.2836,-1.2836,-1.2836,-1.2836,-1.2836,-1.2836,-1.2836,-1.2836,-1.2836,-1.2836,-1.2836,-1.4132,-1.698,-1.698,-1.8396,-2.1109,-2.1329,-2.1753,-2.2254,-2.2532,-2.2957,0.0,-0.886,-0.8896,-0.8532,-0.8793,0.0,0.0,0.0,0.0,-0.894,-0.894,-0.894,-0.9061,-0.9301,-0.9729,-1.0088,-1.0699,0.0,0.0,-1.3421,0.0,0.0,-1.6975,0.0,-1.8369,-1.7607,-1.698,-1.7109,-1.7109,-1.7748,-1.9036,-1.8005,-1.7232,-1.698,-1.5684,-1.439,-1.2836,-1.2836,-1.2836,-1.2836,-1.2836,-1.2836,-1.2836,-1.2836,-1.2836,0.0,-1.2836,-1.2836,-1.2836,-1.2836,-1.2836,-1.2836,-1.2836,-1.2836,-1.2836,-1.2836,-1.2836,-1.2836,-1.2836,-1.2836,-1.2836,-1.2836,-1.2836,-1.2836,-1.2836,-1.2836,-1.2836,-1.2836,-1.2836,-1.2836,-1.2836,-1.2836,-1.2836,-1.2836,-1.2836,-1.2836,-1.2836,-1.2836,-1.2836,-1.2836,-1.2836,-1.2836,-1.2836,-1.2836,-1.2836,-1.2836,-1.2836,-1.2836,-1.2836,-1.2836,-1.2836,-1.2836,-1.2836,-1.2836,-1.2836,-1.2836,-1.2836,-1.2836,-1.2836,-1.2836,-1.2836,-1.2836,-1.4132,-1.698,-1.7232,-1.8524,-2.1109,-2.1697,-2.2247,-2.2524,-2.3126,-2.3679,-0.8182,0.0,-0.823,-0.8282,-0.8532,-0.8673,0.0,0.0,-0.894,-0.894,0.0,-0.9193,-1.0424,-1.0729,-1.1364,-1.2771,0.0,-1.377,-1.4128,0.0,0.0,-1.637,-1.723,-1.7607,-1.7222,-1.709,-1.749,-1.839,-1.8524,-1.917,-2.0589,-2.0335,-1.917,-1.7109,-1.6716,-1.5298,-1.2836,-1.2836,-1.2836,-1.2836,-1.2836,-1.2836,-1.2836,-1.2836,-1.2836,-1.2836,-1.2836,-1.2836,-1.2836,-1.2836,-1.2836,-1.2836,-1.2836,-1.2836,-1.2836,-1.2836,-1.2836,-1.2836,-1.2836,-1.2836,-1.2836,-1.2836,-1.2836,-1.2836,-1.2836,-1.2836,-1.2836,-1.2836,-1.2836,-1.2836,-1.2836,-1.2836,-1.2836,-1.2836,-1.2836,-1.2836,-1.2836,-1.2836,-1.2836,-1.2836,-1.2836,-1.2836,-1.2836,-1.2836,-1.2836,-1.2836,-1.2836,-1.2836,-1.2836,-1.2836,-1.2836,-1.2836,-1.2836,-1.2836,-1.2836,-1.2836,-1.2836,-1.2836,-1.2836,-1.2836,-1.2836,-1.2836,-1.4132,-1.698,-1.9042,-2.0462,-2.1109,-2.1957,-2.2372,-2.2524,-2.3403,-2.3959,-0.8038,-0.8137,-0.8158,-0.8143,-0.8326,-0.8503,0.0,0.0,0.0,0.0,0.0,0.0,0.0,0.0,0.0,0.0,-1.3991,0.0,0.0,0.0,-1.8121,-1.7678,-1.8623,-1.9069,0.0,-1.868,-1.917,-1.9941,-1.9941,-2.0329,-2.1109,-2.1109,-2.0075,-1.8011,-1.7361,-1.5684,-1.2836,-1.2836,-1.2836,-1.2836,-1.2836,-1.2836,-1.2836,-1.2836,-1.2836,-1.2836,-1.2836,-1.2836,-1.2836,-1.2836,-1.2836,-1.2836,-1.2836,-1.2836,-1.2836,-1.2836,-1.2836,-1.2836,-1.2836,-1.2836,-1.2836,-1.2836,-1.2836,-1.2836,-1.2836,-1.2836,-1.2836,-1.2836,-1.2836,-1.2836,-1.2836,-1.2836,-1.2836,-1.2836,-1.2836,-1.2836,-1.2836,-1.2836,-1.2836,-1.2836,-1.2836,-1.2836,-1.2836,-1.2836,-1.2836,-1.2836,-1.2836,-1.2836,-1.2836,-1.2836,-1.2836,-1.2836,-1.2836,-1.2836,-1.2836,-1.2836,-1.2836,-1.2836,-1.2836,-1.2836,-1.2836,-1.2836,-1.4132,-1.698,-1.9686,-2.1235,-2.1362,-2.2087,-2.2642,-2.3049,-2.3806,-2.4367,-0.8038,-0.8137,-0.8233,-0.8038,-0.8262,-0.8482,-0.8482,0.0,0.0,0.0,0.0,0.0,0.0,-1.1907,0.0,0.0,0.0,0.0,-1.7455,-1.8854,-1.9659,-1.9459,-2.0127,0.0,-2.0321,-2.0795,-2.1109,-2.1109,-2.1109,-2.1109,-2.1109,-2.1109,-2.0456,-1.9036,-1.7748,-1.5684,-1.3095,-1.2968,-1.2836,-1.2836,-1.2836,-1.2836,-1.2836,-1.2836,-1.2836,-1.2836,-1.2836,0.0,-1.2836,-1.2836,-1.2836,-1.2836,-1.2836,-1.2836,-1.2836,-1.2836,-1.2836,-1.2836,-1.2836,-1.2836,-1.2836,-1.2836,-1.2836,-1.2836,-1.2836,-1.2836,-1.2836,-1.2836,-1.2836,-1.2836,-1.2836,-1.2836,-1.2836,-1.2836,-1.2836,-1.2836,-1.2836,-1.2836,-1.2836,-1.2836,-1.2836,-1.2836,-1.2836,-1.2836,-1.2836,-1.2836,-1.2836,-1.2836,-1.2836,-1.2836,-1.2836,-1.2836,-1.2836,-1.2836,-1.2836,-1.2836,-1.2836,-1.2836,-1.2836,-1.2836,-1.2836,-1.3227,-1.452,-1.6974,-1.9814,-2.1362,-2.1607,-2.2339,-2.3035,-2.3579,-2.4343,-2.4781,-0.8038,-0.8038,-0.8038,-0.8038,-0.8262,-0.8482,-0.8482,0.0,0.0,0.0,0.0,0.0,0.0,-1.4035,-1.5221,0.0,0.0,-1.8648,0.0,0.0,-1.9506,-1.9713,0.0,-2.0381,-2.0588,-2.0915,-2.1109,-2.1109,-2.1109,-2.1109,-2.1109,-2.1109,-2.0456,-1.9036,-1.7748,-1.6203,-1.4651,-1.3354,-1.2836,-1.2836,-1.2836,-1.2836,-1.2836,-1.2836,-1.2836,-1.2836,0.0,-1.2836,-1.2836,-1.2836,-1.2836,-1.2836,-1.2836,-1.2836,-1.2836,-1.2836,-1.2836,-1.2836,-1.2836,-1.2836,-1.2836,-1.2836,-1.2836,-1.2836,-1.2836,-1.2836,-1.2836,-1.2836,-1.2836,-1.2836,-1.2836,-1.2836,-1.2836,-1.2836,-1.2836,-1.2836,-1.2836,-1.2836,-1.2836,-1.2836,-1.2836,-1.2836,-1.2836,-1.2836,-1.2836,-1.2836,-1.2836,-1.2836,-1.2836,-1.2836,-1.2836,-1.2836,-1.2836,-1.2836,-1.2836,-1.2836,-1.2836,-1.2836,-1.2836,-1.2836,-1.2836,-1.5038,-1.6592,-1.6974,-1.9935,-2.1607,-2.1607,-2.2863,-2.3427,-2.3579,-2.4618,-2.5052,-0.8038,-0.8038,-0.8058,-0.8143,-0.8326,-0.8503,-0.8587,0.0,0.0,0.0,0.0,0.0,0.0,0.0,-1.5926,-1.7137,0.0,-1.9366,-1.9366,-1.9499,-1.9593,0.0,0.0,-2.0287,-2.0421,-2.0702,-2.0942,-2.1096,-2.1109,-2.1109,-2.1109,-2.1109,-2.0849,-2.0202,-1.878,-1.7748,-1.7103,-1.5038,-1.3613,-1.2836,-1.2836,-1.2836,-1.2836,-1.2836,-1.2836,-1.2836,0.0,-1.2836,-1.2836,-1.2836,-1.2836,-1.2836,-1.2836,-1.2836,-1.2836,-1.2836,-1.2836,-1.2836,-1.2836,-1.2836,-1.2836,-1.2836,-1.2836,-1.2836,-1.2836,-1.2836,-1.2836,-1.2836,-1.2836,-1.2836,-1.2836,-1.2836,-1.2836,-1.2836,-1.2836,-1.2836,-1.2836,-1.2836,-1.2836,-1.2836,-1.2836,-1.2836,-1.2836,-1.2836,-1.2836,-1.2836,-1.2836,-1.2836,-1.2836,-1.2836,-1.2836,-1.2836,-1.2836,-1.2836,-1.2836,-1.2972,-1.2972,-1.2836,-1.2836,-1.2836,-1.2836,-1.5679,-1.7227,-1.7227,-2.0309,-2.1985,-2.2111,-2.295,-2.3523,-2.3833,-2.4569,-2.4883,-0.8038,-0.8038,-0.8082,-0.8275,-0.8401,-0.852,-0.8783,0.0,0.0,0.0,0.0,0.0,0.0,-1.5177,0.0,-1.7744,-1.8765,-1.9366,-1.9366,-1.9559,-1.9619,-1.9392,-1.982,-2.0154,-2.0227,-2.0501,-2.0795,-2.1089,-2.1109,-2.1109,-2.1109,-2.1109,-2.1109,-2.1109,-1.9686,-1.9036,-1.9036,-1.6586,-1.4651,-1.3223,-1.2964,-1.2836,-1.2836,-1.2836,-1.2836,-1.2836,-1.2836,-1.2836,-1.2836,-1.2836,-1.2836,-1.2836,-1.2836,-1.2836,-1.2836,-1.2836,-1.2836,-1.2836,-1.2836,-1.2836,-1.2836,-1.2836,-1.2836,-1.2836,-1.2836,-1.2836,-1.2836,-1.2836,-1.2836,-1.2836,-1.2836,-1.2836,-1.2836,-1.2836,-1.2836,-1.2836,-1.2836,-1.2836,-1.2836,-1.2836,-1.2836,-1.2836,-1.2836,-1.2836,-1.2836,-1.2836,-1.2836,-1.2836,-1.2836,-1.2836,-1.2836,-1.2836,-1.2836,-1.2836,-1.2972,-1.3231,-1.3494,-1.3486,-1.3354,-1.3354,-1.335,-1.6317,-1.7993,-1.8116,-2.0816,-2.2355,-2.2606,-2.3062,-2.3507,-2.4093,-2.4415,-2.4744,-0.8038,-0.8038,-0.8109,-0.8394,-0.8476,0.0,-0.9101,-0.9903,0.0,-1.2748,0.0,0.0,0.0,-1.6712,-1.7769,-1.9004,-1.9366,-1.9366,-1.9366,0.0,-1.9392,-1.9372,-1.9639,-1.994,-2.0207,-2.0501,-2.0795,-2.1089,-2.1109,-2.1109,-2.1109,-2.1109,-2.1109,-2.1109,-1.9686,-1.9036,-1.9036,-1.7619,-1.6203,-1.4782,-1.3486,-1.2836,-1.2836,-1.2836,-1.2836,-1.2836,-1.2836,-1.2836,-1.2836,-1.2836,-1.2836,-1.2836,-1.2836,-1.2836,-1.2836,-1.2836,-1.2836,-1.2836,-1.2836,-1.2836,-1.2836,-1.2836,-1.2836,-1.2836,-1.2836,-1.2836,-1.2836,-1.2836,-1.2836,-1.2836,-1.2836,-1.2836,-1.2836,-1.2836,-1.2836,-1.2836,-1.2836,-1.2836,-1.2836,-1.2836,-1.2836,-1.2836,-1.2836,-1.2836,-1.2836,-1.2836,-1.2836,-1.2836,-1.2836,-1.2836,-1.2836,-1.2836,-1.2836,-1.2968,-1.3367,-1.3621,-1.4394,-1.5554,-1.5038,-1.4907,-1.5154,-1.7865,-1.9528,-1.9782,-2.158,-2.2613,-2.2606,-2.3308,-2.3764,-2.4093,-2.4415,-2.4744,-0.8038,-0.8038,-0.8306,-0.953,-0.9723,0.0,0.0,-1.1059,-1.2195,-1.404,-1.4471,0.0,0.0,0.0,-1.7929,-1.9243,-1.9366,-1.9366,-1.9366,-1.9366,-1.9366,-1.9366,-1.9466,-1.972,-2.0187,-2.0334,-2.0595,-2.1069,-2.1109,-2.1109,-2.1109,-2.1109,-2.1109,-2.1109,-2.0589,-2.0335,-2.0335,-1.8908,-1.7619,-1.6203,-1.4777,-1.3613,-1.2836,-1.2836,-1.2836,-1.2836,-1.2836,-1.2836,-1.2836,-1.2836,-1.2836,-1.2836,-1.2836,-1.2836,-1.2836,-1.2836,-1.2836,-1.2836,-1.2836,-1.2836,-1.2836,-1.2836,-1.2836,-1.2836,-1.2836,-1.2836,-1.2836,-1.2836,-1.2836,-1.2836,-1.2836,-1.2836,-1.2836,-1.2836,-1.2836,-1.2836,-1.2836,-1.2836,-1.2836,-1.2836,-1.2836,-1.2836,-1.2836,-1.2836,-1.2836,-1.2836,-1.2836,-1.2836,-1.2836,-1.3613,-1.4132,-1.4132,-1.5033,-1.5809,-1.6208,-1.6322,-1.6705,-1.7479,-1.6198,-1.5934,-1.6953,-1.9012,-2.0297,-2.0417,-2.2083,-2.2863,-2.2863,-2.3104,-2.3464,-2.3786,-2.4115,-2.4437,-0.8137,-0.8468,-0.9164,0.0,0.0,0.0,-1.2323,-1.2842,-1.3496,-1.5007,-1.557,0.0,0.0,0.0,0.0,0.0,-1.9366,-1.9366,-1.9366,-1.9366,-1.9366,-1.9366,-1.9366,-1.9559,-2.0047,-2.0094,-2.0341,-2.0929,-2.0969,-2.1009,-2.1109,-2.1109,-2.0849,-2.0462,-2.0462,-2.0202,-1.9814,-1.8908,-1.7619,-1.6333,-1.5298,-1.4132,-1.2836,-1.2836,-1.2836,-1.2836,-1.2836,-1.2836,-1.2836,-1.2836,-1.2836,-1.2836,-1.2836,-1.2836,-1.2836,-1.2836,-1.2836,-1.2836,-1.2836,-1.2836,-1.2836,-1.2836,-1.2836,-1.2836,-1.2836,-1.2836,-1.2836,-1.2836,-1.2836,-1.2836,-1.2836,-1.2836,-1.2836,-1.2836,-1.2836,-1.2836,-1.2836,-1.2836,-1.2836,-1.2836,-1.2836,-1.2836,-1.2836,-1.2836,-1.2836,-1.2836,-1.2836,-1.2964,-1.3354,-1.4263,-1.5168,-1.5684,-1.6964,-1.7871,-1.8133,-1.825,-1.8628,-1.9279,-1.825,-1.7988,-1.875,-2.0417,-2.1315,-2.1441,-2.2466,-2.3106,-2.3106,-2.3106,-2.3274,-2.3603,-2.3823,-2.4159,-0.8432,-0.9638,-1.0822,0.0,0.0,0.0,-1.5364,-1.4995,-1.49,-1.5755,0.0,-1.849,-1.849,-1.8971,0.0,-1.9366,-1.9366,-1.9366,-1.9366,-1.9366,-1.9366,-1.9366,-1.9366,-1.9479,-1.9773,-1.98,-2.004,-2.0628,-2.0675,-2.0802,-2.1089,-2.1102,-2.0456,-1.9036,-1.9036,-1.8396,-1.698,-1.698,-1.6333,-1.4907,-1.4907,-1.4132,-1.2836,-1.2836,-1.2836,-1.2836,-1.2836,-1.2836,-1.2836,-1.2836,-1.2836,-1.2836,-1.2836,-1.2836,-1.2836,-1.2836,-1.2836,-1.2836,-1.2836,-1.2836,-1.2836,-1.2836,-1.2836,-1.2836,-1.2836,-1.2836,-1.2836,-1.2836,-1.2836,-1.2836,-1.2836,-1.2836,-1.2836,-1.2836,-1.2836,-1.2836,-1.2836,-1.2836,-1.2836,-1.2836,-1.2836,-1.2836,-1.2836,-1.2836,-1.2836,-1.2836,-1.2836,-1.3354,-1.4777,-1.4907,-1.5549,-1.735,-1.8122,-1.8506,-1.8506,-1.8902,-1.9674,-2.1076,-2.1076,-2.0943,-2.0676,-2.1964,-2.2738,-2.3106,-2.3106,-2.3106,-2.3106,-2.3106,-2.3274,-2.3596,-2.3596,-2.394,-1.0587,-1.1123,0.0,-1.3362,0.0,0.0,0.0,-1.6505,0.0,0.0,-1.6405,-1.7235,-1.7241,-1.769,0.0,-1.9249,-1.9366,-1.9366,-1.9366,-1.9366,-1.9127,-1.8169,-1.8046,-1.7799,-1.7229,-1.7132,-1.7271,-1.7596,-1.7619,-1.7729,-1.7978,-1.7989,-1.7822,-1.7613,-1.7619,-1.7361,-1.698,-1.698,-1.6333,-1.4907,-1.4907,-1.4132,-1.2836,-1.2836,-1.2836,-1.2836,-1.2836,-1.2836,-1.2836,-1.2836,-1.2836,-1.2836,-1.2836,-1.2836,-1.2836,-1.2836,-1.2836,-1.2836,-1.2836,-1.2836,-1.2836,-1.2836,-1.2836,-1.2836,-1.2836,-1.2836,-1.2836,-1.2836,-1.2836,-1.2836,-1.2836,-1.2836,-1.2836,-1.2836,-1.2836,-1.2836,-1.2836,-1.2836,-1.2836,-1.2836,-1.2836,-1.2836,-1.2836,-1.2836,-1.2836,-1.2836,-1.2836,-1.3744,-1.6452,-1.7608,-1.8762,-2.0563,-2.1076,-2.1328,-2.1328,-2.1706,-2.209,-2.2473,-2.2473,-2.2473,-2.2341,-2.2724,-2.2981,-2.3106,-2.3106,-2.3106,-2.3106,-2.3106,-2.3157,-2.3259,-2.3493,-2.3698,-1.1853,-1.2574,0.0,-1.4719,-1.5451,-1.6193,-1.7325,0.0,0.0,0.0,0.0,-1.6664,-1.6788,-1.7219,0.0,-1.9243,-1.9366,-1.9366,-1.9366,-1.9366,-1.8887,-1.7689,-1.7455,-1.7044,-1.6008,-1.5779,-1.6002,-1.6235,-1.6252,-1.6355,-1.6588,-1.6599,-1.6418,-1.5931,-1.6018,-1.5807,-1.5297,-1.5255,-1.4907,-1.4132,-1.4132,-1.3617,-1.2836,-1.2836,-1.2836,-1.2836,-1.2836,-1.2836,-1.2836,-1.2836,-1.2836,-1.2836,-1.2836,-1.2836,-1.2836,-1.2836,-1.2836,-1.2836,-1.2836,-1.2836,-1.2836,-1.2836,-1.2836,-1.2836,-1.2836,-1.2836,-1.2836,-1.2836,-1.2836,-1.2836,-1.2836,-1.2836,-1.2836,-1.2836,-1.2836,-1.2836,-1.2836,-1.2836,-1.2836,-1.2836,-1.2836,-1.2836,-1.2968,-1.3104,-1.3099,-1.3227,-1.4132,-1.5809,-1.825,-1.9789,-2.1076,-2.223,-2.2606,-2.2856,-2.2856,-2.2988,-2.3106,-2.3106,-2.3106,-2.3106,-2.3106,-2.3106,-2.3106,-2.3106,-2.3106,-2.3106,-2.3106,-2.3106,-2.3106,-2.3113,-2.331,-2.3471,-1.2559,0.0,0.0,-1.5322,-1.6542,0.0,-1.7582,-1.7477,-1.7147,-1.5968,0.0,-1.6434,-1.6334,-1.6754,-1.7572,-1.8887,-1.901,-1.901,-1.901,-1.901,-1.8532,-1.7337,-1.7097,-1.6626,-1.5332,-1.5219,-1.5303,-1.5634,-1.565,-1.5746,-1.5979,-1.599,-1.5504,-1.4293,-1.4341,-1.3806,-1.254,-1.2706,-1.2795,-1.2812,-1.2812,-1.282,-1.2836,-1.2836,-1.2836,-1.2836,-1.2836,-1.2836,-1.2836,-1.2836,-1.2836,-1.2836,-1.2836,-1.2836,-1.2836,-1.2836,-1.2836,-1.2836,-1.2836,-1.2836,-1.2836,-1.2836,-1.2836,-1.2836,-1.2836,-1.2836,-1.2836,-1.2836,-1.2836,-1.2836,-1.2836,-1.2836,-1.2836,-1.2836,-1.2836,-1.2836,-1.2836,-1.2836,-1.2836,-1.2836,-1.2836,-1.2968,-1.3371,-1.3371,-1.3625,-1.4006,-1.6457,-1.8646,-1.9916,-2.158,-2.2613,-2.2606,-2.2856,-2.3106,-2.3106,-2.3106,-2.3106,-2.3106,-2.3106,-2.3106,-2.3106,-2.3106,-2.3106,-2.3106,-2.3106,-2.3106,-2.3106,-2.3106,-2.3106,-2.3106,-2.3106,-2.3267,-1.4929,-1.5537,0.0,0.0,-1.7218,-1.7582,-1.7582,-1.6935,-1.5968,-1.4781,-1.4845,-1.4848,-1.4065,-1.4194,-1.4971,-1.6166,-1.6402,-1.6402,-1.6402,-1.6402,-1.5924,-1.4614,-1.4495,-1.4023,-1.2728,-1.2608,-1.2625,-1.2669,-1.2669,-1.2747,-1.2934,-1.2943,-1.2893,-1.28,-1.2843,-1.261,-1.2361,-1.2402,-1.2487,-1.2621,-1.2621,-1.2698,-1.2836,-1.2836,-1.2836,-1.2836,-1.2836,-1.2836,-1.2836,-1.2836,-1.2836,-1.2836,-1.2836,-1.2836,-1.2836,-1.2836,-1.2836,-1.2836,-1.2836,-1.2836,-1.2836,-1.2836,-1.2836,-1.2836,-1.2836,-1.2836,-1.2836,-1.2836,-1.2836,-1.2836,-1.2836,-1.2836,-1.2836,-1.2836,-1.2836,-1.2836,-1.2836,-1.2836,-1.2836,-1.2836,-1.3104,-1.3239,-1.3371,-1.3625,-1.4137,-1.5294,-1.7865,-1.9782,-2.0417,-2.1706,-2.2731,-2.2981,-2.3113,-2.3106,-2.3106,-2.3106,-2.3106,-2.3106,-2.3106,-2.3106,-2.3106,-2.3106,-2.3106,-2.3106,-2.3106,-2.3106,-2.3106,-2.3106,-2.3106,-2.3106,-2.3106,-2.3142,-1.5894,0.0,0.0,-1.5664,0.0,-1.6611,-1.6068,-1.5861,-1.5429,-1.3599,-1.3628,-1.3715,-1.3155,-1.3386,-1.4143,-1.5332,-1.5575,-1.5575,-1.5575,-1.5575,-1.5095,-1.3904,-1.3665,-1.3195,-1.1893,-1.1776,-1.1776,-1.1776,-1.1776,-1.1813,-1.1902,-1.191,-1.1951,-1.2048,-1.2134,-1.2174,-1.2174,-1.2264,-1.2353,-1.2442,-1.2442,-1.2491,-1.2588,-1.2759,-1.2836,-1.2836,-1.2836,-1.2836,-1.2836,-1.2836,-1.2836,-1.2836,-1.2836,-1.2836,-1.2836,-1.2836,-1.2836,-1.2836,-1.2836,-1.2836,-1.2836,-1.2836,-1.2836,-1.2836,-1.2836,-1.2836,-1.2836,-1.2836,-1.2972,-1.3104,-1.3104,-1.3231,-1.3358,-1.3358,-1.3095,-1.2836,-1.2836,-1.2968,-1.3104,-1.3104,-1.3363,-1.3752,-1.3888,-1.466,-1.6073,-1.8122,-1.9661,-2.081,-2.1699,-2.2466,-2.2863,-2.3113,-2.3106,-2.3106,-2.3106,-2.3106,-2.3106,-2.3106,-2.3106,-2.3106,-2.3106,-2.3106,-2.3106,-2.3106,-2.3106,-2.3106,-2.3106,-2.3106,-2.3106,-2.3106,-2.3106,-2.3106,-1.6266,0.0,-1.5312,-1.4574,-1.5215,0.0,-1.4347,-1.4674,-1.4781,-1.2847,-1.272,-1.2885,-1.2808,-1.3124,-1.3627,-1.4738,-1.4981,-1.4981,-1.4981,-1.4981,-1.4505,-1.355,-1.331,-1.296,-1.1897,-1.1776,-1.1776,-1.1776,-1.1776,-1.1776,-1.1776,-1.1776,-1.1776,-1.1776,-1.1914,-1.1983,-1.1983,-1.2138,-1.2231,-1.2259,-1.2292,-1.2308,-1.2316,-1.2613,-1.2759,-1.2791,-1.2824,-1.2836,-1.2836,-1.2836,-1.2836,-1.2836,-1.2836,-1.2836,-1.2836,-1.2836,-1.2836,-1.2836,-1.2836,-1.2836,-1.2836,-1.2836,-1.2836,-1.2836,-1.2836,-1.2836,-1.2836,-1.2836,-1.3235,-1.3498,-1.3498,-1.3752,-1.3875,-1.3875,-1.349,-1.2968,-1.2968,-1.3231,-1.3498,-1.3498,-1.401,-1.4525,-1.5047,-1.6592,-1.8512,-2.0823,-2.1328,-2.1839,-2.2981,-2.3106,-2.3106,-2.3106,-2.3106,-2.3106,-2.3106,-2.3106,-2.3106,-2.3106,-2.3106,-2.3106,-2.3106,-2.3106,-2.3106,-2.3106,-2.3106,-2.3106,-2.3106,-2.3106,-2.3106,-2.3106,-2.3106,-2.3106,0.0,0.0,-1.695,0.0,-1.5749,-1.5535,0.0,0.0,-1.2738,0.0,-1.2611,-1.2496,-1.1646,-1.1624,-1.1942,-1.2225,-1.2251,-1.2251,-1.2251,-1.2251,-1.2251,-1.2014,-1.2014,-1.2014,-1.1776,-1.1776,-1.1776,-1.1776,-1.1776,-1.1776,-1.1776,-1.1776,-1.1776,-1.1776,-1.1797,-1.1809,-1.1809,-1.1837,-1.1922,-1.2069,-1.2231,-1.2308,-1.2308,-1.2357,-1.2458,-1.2609,-1.2767,-1.2836,-1.2836,-1.2836,-1.2836,-1.2836,-1.2836,-1.2836,-1.2836,-1.2836,-1.2836,-1.2836,-1.2836,-1.2836,-1.2836,-1.2836,-1.2836,-1.2836,-1.2836,-1.3104,-1.3367,-1.3367,-1.3625,-1.3879,-1.3879,-1.3879,-1.3875,-1.3875,-1.3875,-1.3748,-1.3748,-1.3748,-1.3879,-1.3879,-1.5047,-1.6597,-1.8139,-1.954,-2.069,-2.1076,-2.209,-2.2856,-2.3113,-2.3106,-2.3106,-2.3106,-2.3106,-2.3106,-2.3106,-2.3106,-2.3106,-2.3106,-2.3106,-2.3106,-2.3106,-2.3106,-2.3106,-2.3106,-2.3106,-2.3106,-2.3106,-2.3106,-2.3106,-2.3106,-2.3106,-2.3106,-1.5999,-1.6308,-1.6393,0.0,-1.5429,-1.5535,-1.4347,0.0,-1.3166,-1.2521,-1.195,-1.1445,-1.1286,-1.1374,-1.1561,-1.1748,-1.1776,-1.1776,-1.1776,-1.1776,-1.1776,-1.1776,-1.1776,-1.1776,-1.1776,-1.1776,-1.1776,-1.1776,-1.1776,-1.1776,-1.1776,-1.1776,-1.1776,-1.1776,-1.1776,-1.1776,-1.1776,-1.1776,-1.1813,-1.189,-1.1971,-1.2012,-1.2012,-1.2109,-1.2247,-1.2426,-1.2503,-1.2596,-1.2682,-1.2682,-1.2743,-1.2836,-1.2836,-1.2836,-1.2836,-1.2836,-1.2836,-1.2836,-1.2836,-1.2836,-1.2836,-1.2836,-1.2836,-1.2836,-1.3104,-1.3235,-1.3498,-1.3625,-1.3884,-1.4141,-1.4141,-1.4272,-1.4403,-1.4403,-1.4403,-1.4403,-1.4403,-1.4272,-1.453,-1.5429,-1.6208,-1.7496,-1.9801,-2.0696,-2.1328,-2.2097,-2.2724,-2.3106,-2.3106,-2.3106,-2.3106,-2.3106,-2.3106,-2.3106,-2.3106,-2.3106,-2.3106,-2.3106,-2.3106,-2.3106,-2.3106,-2.3106,-2.3106,-2.3106,-2.3106,-2.3106,-2.3106,-2.3106,-2.3106,-2.3106,-2.3106,-2.3106,0.0,0.0,-1.6074,-1.4888,-1.5209,-1.5535,0.0,0.0,-1.3383,0.0,-1.1446,-1.0785,-1.1098,-1.1305,-1.1504,-1.174,-1.1776,-1.1776,-1.1776,-1.1776,-1.1776,-1.1776,-1.1776,-1.1776,-1.1776,-1.1776,-1.1776,-1.1776,-1.1776,-1.1776,-1.1776,-1.1776,-1.1776,-1.1776,-1.1776,-1.1776,-1.1776,-1.1776,-1.1776,-1.1776,-1.1776,-1.1776,-1.178,-1.1906,-1.204,-1.2178,-1.2268,-1.2381,-1.2499,-1.2499,-1.2605,-1.2767,-1.2767,-1.2795,-1.2836,-1.3227,-1.3354,-1.3354,-1.3744,-1.3613,-1.3354,-1.3354,-1.3099,-1.2972,-1.3371,-1.3498,-1.3757,-1.401,-1.4272,-1.4534,-1.4534,-1.467,-1.4931,-1.5318,-1.5443,-1.5443,-1.5443,-1.5183,-1.5689,-1.7619,-1.7999,-1.8768,-2.1202,-2.1587,-2.1964,-2.2981,-2.3106,-2.3106,-2.3106,-2.3106,-2.3106,-2.3106,-2.3106,-2.3106,-2.3106,-2.3106,-2.3106,-2.3106,-2.3106,-2.3106,-2.3106,-2.3106,-2.3106,-2.3106,-2.3106,-2.3106,-2.3106,-2.3106,-2.3106,-2.3106,-2.3106,-2.3106,0.0,-1.7463,0.0,-1.6074,-1.5861,0.0,0.0,0.0,-1.2521,-1.2417,-1.1446,-1.0753,-1.0944,-1.1122,-1.1354,-1.1715,-1.1776,-1.1776,-1.1776,-1.1776,-1.1776,-1.1776,-1.1776,-1.1776,-1.1776,-1.1776,-1.1776,-1.1776,-1.1776,-1.1776,-1.1776,-1.1776,-1.1776,-1.1776,-1.1776,-1.1776,-1.1776,-1.1776,-1.1776,-1.1776,-1.1776,-1.1776,-1.1776,-1.1784,-1.1797,-1.1825,-1.2162,-1.2312,-1.232,-1.232,-1.2422,-1.258,-1.258,-1.2682,-1.2964,-1.4263,-1.4782,-1.5038,-1.6328,-1.5944,-1.4782,-1.4782,-1.4141,-1.3367,-1.3371,-1.3888,-1.4403,-1.4403,-1.467,-1.4931,-1.4931,-1.4931,-1.5187,-1.6592,-1.685,-1.685,-1.685,-1.685,-1.7619,-2.0309,-2.0949,-2.1328,-2.2724,-2.2981,-2.2981,-2.3106,-2.3106,-2.3106,-2.3106,-2.3106,-2.3106,-2.3106,-2.3106,-2.3106,-2.3106,-2.3106,-2.3106,-2.3106,-2.3106,-2.3106,-2.3106,-2.3106,-2.3106,-2.3106,-2.3106,-2.3106,-2.3106,-2.3106,-2.3106,-2.3106,-2.3106,-2.3106,0.0,0.0,0.0,-1.7041,-1.7041,-1.6829,-1.6393,-1.5429,-1.4674,-1.4674,-1.3171,-1.1832,-1.2037,-1.1553,-1.1305,-1.1557,-1.1699,-1.1776,-1.1776,-1.1776,-1.1776,-1.1776,-1.1776,-1.1893,-1.2005,-1.2001,-1.2001,-1.2001,-1.2001,-1.201,-1.1776,-1.1776,-1.1776,-1.1776,-1.1776,-1.1776,-1.1776,-1.1776,-1.1776,-1.1776,-1.1776,-1.1776,-1.1776,-1.1776,-1.1776,-1.1784,-1.191,-1.2028,-1.213,-1.213,-1.2235,-1.241,-1.2519,-1.3113,-1.4078,-1.473,-1.5429,-1.6328,-1.7098,-1.6969,-1.6452,-1.5814,-1.5934,-1.6063,-1.453,-1.5434,-1.6845,-1.6208,-1.6721,-1.7501,-1.7501,-1.7501,-1.7625,-1.8133,-1.8262,-1.8518,-1.9413,-1.8902,-1.8902,-2.0696,-2.1076,-2.1587,-2.2856,-2.3106,-2.3106,-2.3106,-2.3106,-2.3106,-2.3106,-2.3106,-2.3106,-2.3106,-2.3106,-2.3106,-2.3106,-2.3106,-2.3106,-2.3106,-2.3106,-2.3106,-2.3106,-2.3106,-2.3106,-2.3106,-2.3106,-2.3106,-2.3106,-2.3106,-2.3106,-2.3106,-2.3106,-2.3106,-1.7528,0.0,0.0,0.0,0.0,-1.7582,-1.7582,-1.6723,-1.5861,-1.5861,-1.4352,-1.2915,-1.2696,-1.223,-1.1739,-1.1585,-1.1654,-1.1776,-1.1776,-1.1776,-1.1776,-1.1776,-1.1776,-1.1893,-1.2118,-1.2234,-1.2234,-1.2359,-1.2238,0.0,-1.1889,-1.1897,-1.1776,-1.1776,-1.1776,-1.1776,-1.1776,-1.1893,-1.1889,-1.1889,-1.201,-1.213,-1.213,-1.213,-1.213,-1.213,-1.213,-1.208,-1.1947,-1.1947,-1.2052,-1.2231,-1.291,-1.3897,-1.4861,-1.5853,-1.6969,-1.8127,-1.864,-1.864,-1.825,-1.7479,-1.7731,-1.7859,-1.6198,-1.7098,-1.8512,-1.7876,-1.8267,-1.9036,-1.9036,-1.9291,-1.9674,-1.9674,-2.0055,-2.069,-2.158,-2.069,-2.0055,-2.1461,-2.1713,-2.209,-2.2981,-2.3106,-2.3106,-2.3106,-2.3106,-2.3106,-2.3106,-2.3106,-2.3106,-2.3106,-2.3106,-2.3106,-2.3106,-2.3106,-2.3106,-2.3106,-2.3106,-2.3106,-2.3106,-2.3106,-2.3106,-2.3106,-2.3106,-2.3106,-2.3106,-2.3106,-2.3106,-2.3106,-2.3106,-2.3106,0.0,0.0,0.0,0.0,0.0,0.0,-1.7582,0.0,-1.5968,-1.5968,-1.4995,-1.3888,-1.2918,-1.2899,-1.2767,-1.1703,-1.1654,-1.1776,-1.1776,-1.1776,-1.1776,-1.1776,-1.1776,-1.1889,-1.2238,-1.2238,-1.2359,-1.2719,-1.2359,-1.2234,-1.2238,-1.201,-1.1776,-1.1776,-1.1776,-1.1776,-1.1776,-1.2122,-1.2234,-1.2234,-1.2595,-1.284,-1.2835,-1.2835,-1.2835,-1.2835,-1.2835,-1.2487,-1.1897,-1.1897,-1.1991,-1.2283,-1.383,-1.4775,-1.5478,-1.8024,-1.9534,-2.0303,-2.1348,-2.0956,-2.0176,-2.0176,-1.9407,-1.8634,-1.8506,-1.8768,-1.9164,-1.9036,-1.9036,-1.9164,-1.9164,-2.0182,-2.1202,-2.1202,-2.209,-2.3106,-2.3106,-2.209,-2.158,-2.2856,-2.3106,-2.3106,-2.3106,-2.3106,-2.3106,-2.3106,-2.3106,-2.3106,-2.3106,-2.3106,-2.3106,-2.3106,-2.3106,-2.3106,-2.3106,-2.3106,-2.3106,-2.3106,-2.3106,-2.3106,-2.3106,-2.3106,-2.3106,-2.3106,-2.3106,-2.3106,-2.3106,-2.3106,-2.3106,-2.3106,-2.3106,-2.3106,-1.7582,0.0,0.0,0.0,0.0,0.0,0.0,0.0,-1.7153,-1.7153,-1.618,-1.5398,-1.5327,-1.4803,-1.4023,-1.3096,-1.2248,-1.1893,-1.2001,-1.1889,-1.1893,-1.2126,-1.2122,-1.2242,-1.2479,-1.284,-1.2964,0.0,-1.296,-1.284,-1.2599,-1.2242,-1.2122,-1.2122,-1.2122,-1.2122,-1.2122,-1.2359,-1.3071,-1.3894,-1.4013,-1.4604,-1.5424,-1.5424,-1.5424,-1.5424,-1.5424,-1.5306,-1.5074,-1.4252,-1.3813,-1.4005,-1.5545,-1.6875,-1.8243,-1.9137,-2.038,-2.1594,-2.2104,-2.2104,-2.1839,-2.1069,-2.1328,-2.1447,-1.9413,-2.0303,-2.1706,-2.0823,-2.1202,-2.1964,-2.1964,-2.2215,-2.2598,-2.2598,-2.2856,-2.3106,-2.3106,-2.2856,-2.2606,-2.2988,-2.3106,-2.3106,-2.3106,-2.3106,-2.3106,-2.3106,-2.3106,-2.3106,-2.3106,-2.3106,-2.3106,-2.3106,-2.3106,-2.3106,-2.3106,-2.3106,-2.3106,-2.3106,-2.3106,-2.3106,-2.3106,-2.3106,-2.3106,-2.3106,-2.3106,-2.3106,-2.3106,-2.3106,-2.3106,-2.3106,-2.3106,-2.3106,-1.7582,-1.7582,-1.7582,-1.7582,0.0,0.0,-1.7582,-1.7582,-1.7582,0.0,-1.7138,-1.6649,-1.6484,-1.608,-1.5538,-1.4621,-1.3946,-1.3191,-1.2354,-1.2242,-1.2247,-1.2359,-1.2359,-1.2599,-1.284,-1.3084,-1.3204,-1.3444,-1.3324,-1.3084,-1.2719,-1.2479,-1.2359,-1.2359,-1.2359,-1.2715,-1.3181,-1.3545,-1.4376,-1.5548,-1.5666,-1.6138,-1.6844,-1.6844,-1.6844,-1.6844,-1.6844,-1.6844,-1.6844,-1.6609,-1.6138,-1.5569,-1.7005,-1.836,-1.962,-2.0152,-2.1327,-2.2487,-2.2613,-2.2731,-2.2731,-2.209,-2.2473,-2.2849,-2.1202,-2.1832,-2.2981,-2.209,-2.2473,-2.3106,-2.3106,-2.3106,-2.3106,-2.3106,-2.3106,-2.3106,-2.3106,-2.3106,-2.3106,-2.3106,-2.3106,-2.3106,-2.3106,-2.3106,-2.3106,-2.3106,-2.3106,-2.3106,-2.3106,-2.3106,-2.3106,-2.3106,-2.3106,-2.3106,-2.3106,-2.3106,-2.3106,-2.3106,-2.3106,-2.3106,-2.3106,-2.3106,-2.3106,-2.3106,-2.3106,-2.3106,-2.3106,-2.3106,-2.3106,-2.3106,-2.3106,-2.3106,-1.7582,-1.7582,-1.7582,-1.7582,-1.7582,0.0,-1.7582,-1.7582,-1.7595,0.0,-1.7836,-1.779,-1.7105,-1.7126,-1.7026,-1.634,-1.6262,-1.5435,-1.2831,-1.2715,-1.284,-1.2719,-1.2719,-1.2844,-1.3204,-1.3204,-1.3324,-1.3688,-1.3449,-1.3084,-1.284,-1.296,-1.2955,-1.2955,-1.3075,-1.366,-1.4842,-1.5203,-1.6026,-1.7202,-1.756,-1.7677,-1.78,-1.78,-1.78,-1.78,-1.78,-1.78,-1.7917,-1.9087,-1.8493,-1.6979,-1.8532,-1.9429,-2.0227,-2.1244,-2.2305,-2.3113,-2.2738,-2.2856,-2.3106,-2.3106,-2.3106,-2.3106,-2.3106,-2.3106,-2.3106,-2.3106,-2.3106,-2.3106,-2.3106,-2.3106,-2.3106,-2.3106,-2.3106,-2.3106,-2.3106,-2.3106,-2.3106,-2.3106,-2.3106,-2.3106,-2.3106,-2.3106,-2.3106,-2.3106,-2.3106,-2.3106,-2.3106,-2.3106,-2.3106,-2.3106,-2.3106,-2.3106,-2.3106,-2.3106,-2.3106,-2.3106,-2.3106,-2.3106,-2.3106,-2.3106,-2.3106,-2.3106,-2.3106,-2.3106,-2.3106,-2.3106,-2.3106,-2.3106,-2.3106,-2.3106,-1.7694,-1.7582,-1.7582,-1.7582,-1.7582,0.0,-1.7582,-1.7582,-1.7655,0.0,-1.8003,-1.8203,-1.8724,-1.8871,-1.865,-1.7622,-1.8033,-1.7449,-1.4847,-1.4371,-1.3899,-1.32,-1.3084,-1.3084,-1.3204,-1.3444,-1.3688,-1.3688,-1.3688,-1.3569,-1.3569,-1.4267,-1.4614,-1.4614,-1.5671,-1.6262,-1.6492,-1.685,-1.756,-1.8855,-1.8855,-1.9441,-2.05,-2.05,-2.05,-2.05,-2.05,-2.05,-2.05,-2.0737,-2.0026,-1.8855,-2.0211,-2.1181,-2.1817,-2.2002,-2.25,-2.3106,-2.2988,-2.3106,-2.3106,-2.3106,-2.3106,-2.3106,-2.3106,-2.3106,-2.3106,-2.3106,-2.3106,-2.3106,-2.3106,-2.3106,-2.3106,-2.3106,-2.3106,-2.3106,-2.3106,-2.3106,-2.3106,-2.3106,-2.3106,-2.3106,-2.3106,-2.3106,-2.3106,-2.3106,-2.3106,-2.3106,-2.3106,-2.3106,-2.3106,-2.3106,-2.3106,-2.3106,-2.3106,-2.3106,-2.3106,-2.3106,-2.3106,-2.3106,-2.3106,-2.3106,-2.3106,-2.3106,-2.3106,-2.3106,-2.3106,-2.3106,-2.3106,-2.3106,-2.3106,-2.3106,-1.7799,-1.7687,-1.7582,-1.7582,-1.7687,0.0,0.0,-1.7922,-1.8117,-1.8203,-1.8494,-1.8793,-1.9316,-1.9608,-1.9745,-1.9408,-1.955,-1.921,-1.7443,-1.6031,-1.4738,-1.3564,-1.4038,-1.4391,-1.4391,-1.451,-1.4396,-1.3808,-1.4277,-1.4629,-1.4629,-1.5682,-1.6267,-1.6267,-1.6856,-1.7554,-1.8144,-1.8267,-1.8971,-2.0263,-2.0263,-2.0622,-2.1211,-2.1211,-2.1211,-2.1211,-2.1211,-2.1211,-2.1211,-2.1211,-2.0852,-2.027,-2.0974,-2.1606,-2.2184,-2.2184,-2.2579,-2.3106,-2.3106,-2.3106,-2.3106,-2.3106,-2.3106,-2.3106,-2.3106,-2.3106,-2.3106,-2.3106,-2.3106,-2.3106,-2.3106,-2.3106,-2.3106,-2.3106,-2.3106,-2.3106,-2.3106,-2.3106,-2.3106,-2.3106,-2.3106,-2.3106,-2.3106,-2.3106,-2.3106,-2.3106,-2.3106,-2.3106,-2.3106,-2.3106,-2.3106,-2.3106,-2.3106,-2.3106,-2.3106,-2.3106,-2.3106,-2.3106,-2.3106,-2.3106,-2.3106,-2.3106,-2.3106,-2.3106,-2.3106,-2.3106,-2.3106,-2.3106,-2.3106,-2.3106,-2.3106,-2.3106,-1.8122,-1.7945,-1.788,-1.788,-1.8034,-1.8256,0.0,0.0,0.0,-1.8732,-1.9088,-1.9498,-1.9666,0.0,0.0,-2.0644,0.0,0.0,0.0,-1.7535,0.0,-1.451,-1.51,-1.5688,-1.5924,-1.588,-1.5403,-1.451,-1.5295,-1.5875,-1.5924,-1.7091,-1.7793,-1.7793,-1.8033,-1.8616,-1.9679,-1.9673,-2.0148,-2.1211,-2.1211,-2.1211,-2.1211,-2.1211,-2.1211,-2.1211,-2.1211,-2.1211,-2.1211,-2.1211,-2.1211,-2.1211,-2.1211,-2.1569,-2.2096,-2.2162,-2.2535,-2.3025,-2.3091,-2.3106,-2.3106,-2.3106,-2.3106,-2.3106,-2.3106,-2.3106,-2.3106,-2.3106,-2.3106,-2.3106,-2.3106,-2.3106,-2.3106,-2.3106,-2.3106,-2.3106,-2.3106,-2.3106,-2.3106,-2.3106,-2.3106,-2.3106,-2.3106,-2.3106,-2.3106,-2.3106,-2.3106,-2.3106,-2.3106,-2.3106,-2.3106,-2.3106,-2.3106,-2.3106,-2.3106,-2.3106,-2.3106,-2.3106,-2.3106,-2.3106,-2.3106,-2.3106,-2.3106,-2.3106,-2.3106,-2.3106,-2.3106,-2.3106,-2.3106,-2.3106,-2.3106,-2.3106,-1.8429,-1.8519,-1.8728,-1.8728,-1.9045,-1.9262,-1.929,0.0,-1.9388,-1.9584,0.0,-1.9892,-2.0501,0.0,0.0,0.0,0.0,0.0,-1.8757,-1.8698,-1.8389,-1.7091,-1.6155,-1.6042,-1.7091,-1.7,-1.6848,-1.6956,-1.6878,-1.697,-1.7196,-1.8383,-1.9087,-1.9087,-2.0148,-2.0852,-2.0974,-2.0974,-2.1096,-2.1211,-2.1211,-2.1211,-2.1211,-2.1211,-2.1211,-2.1211,-2.1211,-2.1211,-2.1211,-2.1211,-2.1211,-2.1211,-2.1211,-2.143,-2.1789,-2.2081,-2.2389,-2.2718,-2.301,-2.3106,-2.3106,-2.3106,-2.3106,-2.3106,-2.3106,-2.3106,-2.3106,-2.3106,-2.3106,-2.3106,-2.3106,-2.3106,-2.3106,-2.3106,-2.3106,-2.3106,-2.3106,-2.3106,-2.3106,-2.3106,-2.3106,-2.3106,-2.3106,-2.3106,-2.3106,-2.3106,-2.3106,-2.3106,-2.3106,-2.3106,-2.3106,-2.3106,-2.3106,-2.3106,-2.3106,-2.3106,-2.3106,-2.3106,-2.3106,-2.3106,-2.3106,-2.3106,-2.3106,-2.3106,-2.3106,-2.3106,-2.3106,-2.3106,-2.3106,-2.3106,-2.3106,-2.3106,-1.9277,-1.916,-1.9157,-1.9157,-1.9358,-1.9615,-1.9688,-1.9738,-1.9941,-2.0018,0.0,0.0,0.0,0.0,0.0,0.0,-2.1009,-2.0931,0.0,0.0,-1.9679,-1.7677,0.0,0.0,-1.85,-1.8244,-1.7849,-1.7424,-1.7778,-1.8205,-1.8487,-1.9679,-2.0385,-2.0385,-2.0974,-2.1211,-2.1211,-2.1211,-2.1211,-2.1211,-2.1211,-2.1211,-2.1211,-2.1211,-2.1211,-2.1211,-2.1211,-2.1211,-2.1211,-2.1211,-2.1211,-2.1211,-2.1211,-2.1408,-2.1737,-2.2059,-2.2374,-2.2674,-2.2996,-2.3106,-2.3106,-2.3106,-2.3106,-2.3106,-2.3106,-2.3106,-2.3106,-2.3106,-2.3106,-2.3106,-2.3106,-2.3106,-2.3106,-2.3106,-2.3106,-2.3106,-2.3106,-2.3106,-2.3106,-2.3106,-2.3106,-2.3106,-2.3106,-2.3106,-2.3106,-2.3106,-2.3106,-2.3106,-2.3106,-2.3106,-2.3106,-2.3106,-2.3106,-2.3106,-2.3106,-2.3106,-2.3106,-2.3106,-2.3106,-2.3106,-2.3106,-2.3106,-2.3106,-2.3106,-2.3106,-2.3106,-2.3106,-2.3106,-2.3106,-2.3106,-2.3106,-2.3106,-1.9895,-1.985,-1.9708,-1.9708,-1.9986,-2.0219,-2.0224,-2.0401,-2.0586,-2.058,-2.073,0.0,0.0,0.0,0.0,0.0,0.0,-2.1181,0.0,-2.1152,0.0,0.0,0.0,0.0,0.0,-1.9212,-1.9031,-1.8474,-1.8858,-1.9384,-1.9774,-2.0737,-2.1211,-2.1211,-2.1211,-2.1211,-2.1211,-2.1211,-2.1211,-2.1211,-2.1211,-2.1211,-2.1211,-2.1211,-2.1211,-2.1211,-2.1211,-2.1211,-2.1211,-2.1211,-2.1211,-2.1211,-2.1211,-2.1357,-2.1613,-2.203,-2.2315,-2.2557,-2.2967,-2.3106,-2.3106,-2.3106,-2.3106,-2.3106,-2.3106,-2.3106,-2.3106,-2.3106,-2.3106,-2.3106,-2.3106,-2.3106,-2.3106,-2.3106,-2.3106,-2.3106,-2.3106,-2.3106,-2.3106,-2.3106,-2.3106,-2.3106,-2.3106,-2.3106,-2.3106,-2.3106,-2.3106,-2.3106,-2.3106,-2.3106,-2.3106,-2.3106,-2.3106,-2.3106,-2.3106,-2.3106,-2.3106,-2.3106,-2.3106,-2.3106,-2.3106,-2.3106,-2.3106,-2.3106,-2.3106,-2.3106,-2.3106,-2.3106,-2.3106,-2.3106,-2.3106,-2.3106,0.0,0.0,0.0,-2.0706,0.0,0.0,0.0,0.0,-2.1196,0.0,0.0,-2.1211,-2.1211,0.0,0.0,0.0,0.0,0.0,0.0,0.0,-2.1211,-2.1096,0.0,0.0,0.0,-1.9829,-2.0405,-2.1045,-2.0499,-2.0419,-2.106,-2.1211,-2.1211,-2.1211,-2.1211,-2.1211,-2.1211,-2.1211,-2.1211,-2.1211,-2.1211,-2.1211,-2.1211,-2.1211,-2.1211,-2.1211,-2.1211,-2.1211,-2.1211,-2.1211,-2.1211,-2.1211,-2.1211,-2.1218,-2.1306,-2.195,-2.2191,-2.2286,-2.2893,-2.3106,-2.3106,-2.3106,-2.3106,-2.3106,-2.3106,-2.3106,-2.3106,-2.3106,-2.3106,-2.3106,-2.3106,-2.3106,-2.3106,-2.3106,-2.3106,-2.3106,-2.3106,-2.3106,-2.3106,-2.3106,-2.3106,-2.3106,-2.3106,-2.3106,-2.3106,-2.3106,-2.3106,-2.3106,-2.3106,-2.3106,-2.3106,-2.3106,-2.3106,-2.3106,-2.3106,-2.3106,-2.3106,-2.3106,-2.3106,-2.3106,-2.3106,-2.3106,-2.3106,-2.3106,-2.3106,-2.3106,-2.3106,-2.3106,-2.3106,-2.3106,-2.3106,-2.3106,0.0,0.0,-2.1042,-2.1042,0.0,0.0,0.0,0.0,0.0,0.0,0.0,0.0,0.0,0.0,0.0,0.0,0.0,0.0,0.0,-2.1137,-2.1211,-2.1211,-2.1211,0.0,0.0,0.0,-2.0742,-2.1181,-2.0801,-2.075,-2.1189,-2.1211,-2.1211,-2.1211,-2.1211,-2.1211,-2.1211,-2.1211,-2.1211,-2.1211,-2.1211,-2.1211,-2.1211,-2.1211,-2.1211,-2.1211,-2.1211,-2.1211,-2.1211,-2.1211,-2.1211,-2.1211,-2.1211,-2.1211,-2.1284,-2.1942,-2.2184,-2.2271,-2.2893,-2.3106,-2.3106,-2.3106,-2.3106,-2.3106,-2.3106,-2.3106,-2.3106,-2.3106,-2.3106,-2.3106,-2.3106,-2.3106,-2.3106,-2.3106,-2.3106,-2.3106,-2.3106,-2.3106,-2.3106,-2.3106,-2.3106,-2.3106,-2.3106,-2.3106,-2.3106,-2.3106,-2.3106,-2.3106,-2.3106,-2.3106,-2.3106,-2.3106,-2.3106,-2.3106,-2.3106,-2.3106,-2.3106,-2.3106,-2.3106,-2.3106,-2.3106,-2.3106,-2.3106,-2.3106,-2.3106,-2.3106,-2.3106,-2.3106,-2.3106,-2.3106,-2.3106,-2.3106,-2.1211,-2.1211,0.0,-2.1211,-2.1211,0.0,-2.1211,0.0,-2.1211,0.0,0.0,0.0,0.0,0.0,0.0,0.0,0.0,0.0,0.0,-2.1211,-2.1211,-2.1211,-2.1211,-2.1211,0.0,-2.0911,-2.0859,-2.1181,-2.0903,-2.0867,-2.1196,-2.1211,-2.1211,-2.1211,-2.1211,-2.1211,-2.1211,-2.1211,-2.1211,-2.1211,-2.1211,-2.1211,-2.1211,-2.1211,-2.1211,-2.1211,-2.1211,-2.1211,-2.1211,-2.1211,-2.1211,-2.1211,-2.1211,-2.1211,-2.1284,-2.1942,-2.2323,-2.2571,-2.2974,-2.3106,-2.3106,-2.3106,-2.3106,-2.3106,-2.3106,-2.3106,-2.3084,-2.2967,-2.3018,-2.3084,-2.2967,-2.3025,-2.3106,-2.3106,-2.3106,-2.3106,-2.3106,-2.3106,-2.3106,-2.3106,-2.3106,-2.3106,-2.3106,-2.3106,-2.3106,-2.3106,-2.3106,-2.3106,-2.3106,-2.3106,-2.3106,-2.3106,-2.3106,-2.3106,-2.3106,-2.3106,-2.3106,-2.3106,-2.3106,-2.3106,-2.3106,-2.3106,-2.3106,-2.3106,-2.3106,-2.3106,-2.3106,-2.3106,-2.3106,-2.3106,-2.3106,-2.3106]},{"header":{"parameterUnit":"m.s-1","parameterCategory":1,"la1":30.6,"la2":29.2853,"lo1":-89.7004,"lo2":-87.6739,"dy":0.0162,"dx":0.0183,"nx":112,"ny":82,"refTime":"2023-06-07T06:00:00:Z","depth":0,"parameterNumber":3,"parameterNumberName":"V-component_of_WINDS"},"data":[0.0,0.0,0.0,0.0,0.0,0.0,0.0,0.0,0.0,0.0,0.0,0.0,0.0,0.0,0.0,0.0,0.0,0.0,0.0,0.0,0.0,0.0,0.0,0.0,0.0,0.0,0.0,0.0,0.0,0.0,0.0,0.0,0.0,0.0,0.0,0.0,0.0,0.0,0.0,0.0,0.0,0.0,0.0,0.0,0.0,0.0,0.0,0.0,0.0,0.0,0.0,0.0,0.0,0.0,0.0,0.0,0.0,0.0,0.0,0.0,0.0,0.0,0.0,0.0,0.0,0.0,0.0,0.0,0.0,0.0,0.0,0.0,0.0,0.0,0.0,0.0,0.0,0.0,0.0,0.0,0.0,0.0,0.0,0.0,0.0,0.0,0.0,0.0,0.0,0.0,-4.5763,-4.5841,-4.6235,-4.6673,-4.7151,-4.7183,-4.7099,-4.6887,0.0,0.0,0.0,0.0,0.0,0.0,0.0,0.0,0.0,0.0,0.0,0.0,0.0,0.0,0.0,0.0,0.0,0.0,0.0,0.0,0.0,0.0,0.0,0.0,0.0,0.0,0.0,0.0,0.0,0.0,0.0,0.0,0.0,0.0,0.0,0.0,0.0,0.0,0.0,0.0,0.0,0.0,0.0,0.0,0.0,0.0,0.0,0.0,0.0,0.0,0.0,0.0,0.0,0.0,0.0,0.0,0.0,0.0,0.0,0.0,0.0,0.0,0.0,0.0,0.0,0.0,0.0,0.0,0.0,0.0,0.0,0.0,0.0,0.0,0.0,0.0,0.0,0.0,0.0,0.0,0.0,0.0,0.0,0.0,0.0,0.0,0.0,0.0,0.0,0.0,0.0,0.0,0.0,0.0,0.0,0.0,0.0,0.0,0.0,0.0,0.0,0.0,0.0,0.0,-4.6476,-4.6985,-4.6966,-4.6973,-4.7106,-4.7655,-4.8042,-4.8108,0.0,0.0,0.0,0.0,0.0,0.0,0.0,0.0,0.0,0.0,0.0,0.0,0.0,0.0,0.0,0.0,0.0,0.0,0.0,0.0,0.0,0.0,0.0,0.0,0.0,0.0,0.0,0.0,0.0,0.0,0.0,0.0,0.0,0.0,0.0,0.0,0.0,0.0,0.0,0.0,0.0,0.0,0.0,0.0,0.0,0.0,0.0,0.0,0.0,0.0,0.0,0.0,0.0,0.0,0.0,0.0,0.0,0.0,0.0,0.0,0.0,0.0,0.0,0.0,0.0,0.0,0.0,0.0,0.0,0.0,0.0,0.0,0.0,0.0,0.0,0.0,0.0,0.0,0.0,0.0,0.0,0.0,0.0,0.0,0.0,0.0,0.0,0.0,0.0,0.0,0.0,0.0,0.0,0.0,0.0,0.0,0.0,0.0,0.0,0.0,0.0,0.0,0.0,-4.6866,-4.73,-4.7837,-4.7712,-4.7765,-4.8198,-4.8359,-4.8422,-4.846,-4.784,0.0,0.0,0.0,0.0,0.0,0.0,0.0,0.0,0.0,0.0,0.0,0.0,0.0,0.0,0.0,0.0,0.0,0.0,0.0,0.0,0.0,0.0,0.0,0.0,0.0,0.0,0.0,0.0,0.0,0.0,0.0,0.0,0.0,0.0,0.0,0.0,0.0,0.0,0.0,0.0,0.0,0.0,0.0,0.0,0.0,0.0,0.0,0.0,0.0,0.0,0.0,0.0,0.0,0.0,0.0,0.0,0.0,0.0,0.0,0.0,0.0,0.0,0.0,0.0,0.0,0.0,0.0,0.0,0.0,0.0,0.0,0.0,0.0,0.0,0.0,0.0,0.0,0.0,0.0,0.0,0.0,0.0,0.0,0.0,0.0,0.0,0.0,0.0,0.0,0.0,0.0,0.0,0.0,0.0,0.0,0.0,0.0,0.0,0.0,0.0,0.0,0.0,-4.7647,-4.827,-4.857,-4.834,-4.8431,-4.8982,-4.8713,-4.8532,-4.8513,-4.8401,0.0,0.0,0.0,0.0,0.0,0.0,0.0,0.0,0.0,0.0,0.0,0.0,0.0,0.0,0.0,0.0,0.0,0.0,0.0,0.0,0.0,0.0,0.0,0.0,0.0,0.0,0.0,0.0,0.0,0.0,0.0,0.0,0.0,0.0,0.0,0.0,0.0,0.0,0.0,0.0,0.0,0.0,0.0,0.0,0.0,0.0,0.0,0.0,0.0,0.0,0.0,0.0,0.0,0.0,0.0,0.0,0.0,0.0,0.0,0.0,0.0,0.0,0.0,0.0,0.0,0.0,0.0,0.0,0.0,0.0,0.0,0.0,0.0,0.0,0.0,0.0,0.0,0.0,0.0,0.0,0.0,0.0,0.0,0.0,0.0,0.0,0.0,0.0,0.0,0.0,0.0,0.0,0.0,0.0,0.0,0.0,0.0,0.0,0.0,0.0,0.0,0.0,-4.9195,-4.9381,-4.9165,-4.8744,-4.8514,-4.855,-4.8401,-4.8363,-4.8494,-4.8513,0.0,0.0,0.0,0.0,0.0,0.0,0.0,0.0,0.0,0.0,0.0,0.0,0.0,0.0,0.0,0.0,0.0,0.0,0.0,0.0,0.0,0.0,0.0,0.0,0.0,0.0,0.0,0.0,0.0,0.0,0.0,0.0,0.0,0.0,0.0,0.0,0.0,0.0,0.0,0.0,0.0,0.0,0.0,0.0,0.0,0.0,0.0,0.0,0.0,0.0,0.0,0.0,0.0,0.0,0.0,0.0,0.0,0.0,0.0,0.0,0.0,0.0,0.0,0.0,0.0,0.0,0.0,0.0,0.0,0.0,0.0,0.0,0.0,0.0,0.0,0.0,0.0,0.0,0.0,0.0,0.0,0.0,0.0,0.0,0.0,0.0,0.0,0.0,0.0,0.0,0.0,0.0,0.0,0.0,0.0,0.0,0.0,0.0,0.0,0.0,0.0,0.0,-4.8867,-4.9252,-4.9048,-4.873,-4.8623,-4.8746,-4.855,-4.8401,-4.8363,0.0,0.0,0.0,0.0,0.0,0.0,0.0,0.0,0.0,0.0,0.0,0.0,0.0,0.0,0.0,0.0,0.0,0.0,0.0,0.0,0.0,0.0,0.0,0.0,0.0,0.0,0.0,0.0,0.0,0.0,0.0,0.0,0.0,0.0,0.0,0.0,0.0,0.0,0.0,0.0,0.0,0.0,0.0,0.0,0.0,0.0,0.0,0.0,0.0,0.0,0.0,0.0,0.0,0.0,0.0,0.0,0.0,0.0,0.0,0.0,0.0,0.0,0.0,0.0,0.0,0.0,0.0,0.0,0.0,0.0,0.0,0.0,0.0,0.0,0.0,0.0,0.0,0.0,0.0,0.0,0.0,0.0,0.0,0.0,0.0,0.0,0.0,0.0,0.0,0.0,0.0,0.0,0.0,0.0,0.0,0.0,0.0,0.0,0.0,0.0,0.0,0.0,-4.8635,-4.8902,-4.9118,-4.8982,-4.8748,-4.8623,-4.8692,-4.855,-4.8419,-4.8306,0.0,0.0,0.0,0.0,0.0,0.0,0.0,0.0,0.0,0.0,0.0,0.0,0.0,0.0,0.0,0.0,0.0,0.0,0.0,0.0,0.0,0.0,0.0,0.0,0.0,0.0,0.0,0.0,0.0,0.0,0.0,0.0,0.0,0.0,0.0,0.0,0.0,0.0,0.0,0.0,0.0,0.0,0.0,0.0,0.0,0.0,0.0,0.0,0.0,0.0,0.0,0.0,0.0,0.0,0.0,0.0,0.0,0.0,0.0,0.0,0.0,0.0,0.0,0.0,0.0,0.0,0.0,0.0,0.0,0.0,0.0,0.0,0.0,0.0,0.0,0.0,0.0,0.0,0.0,0.0,0.0,0.0,0.0,0.0,0.0,0.0,0.0,0.0,0.0,0.0,0.0,0.0,0.0,0.0,0.0,0.0,0.0,0.0,0.0,0.0,0.0,0.0,-5.0183,-4.9541,-4.9104,-4.9104,-4.875,-4.8457,-4.8306,-4.8306,-4.8306,0.0,0.0,0.0,0.0,0.0,0.0,0.0,0.0,0.0,0.0,0.0,0.0,0.0,0.0,0.0,0.0,0.0,0.0,0.0,0.0,0.0,0.0,0.0,0.0,0.0,0.0,0.0,0.0,0.0,0.0,0.0,0.0,0.0,0.0,0.0,0.0,0.0,0.0,0.0,0.0,0.0,0.0,0.0,0.0,0.0,0.0,0.0,0.0,0.0,0.0,0.0,0.0,0.0,0.0,0.0,0.0,0.0,0.0,0.0,0.0,0.0,0.0,0.0,0.0,0.0,0.0,0.0,0.0,0.0,0.0,0.0,0.0,0.0,0.0,0.0,0.0,0.0,0.0,0.0,0.0,0.0,0.0,0.0,0.0,0.0,0.0,0.0,0.0,0.0,0.0,0.0,0.0,0.0,0.0,0.0,0.0,0.0,0.0,0.0,0.0,0.0,0.0,0.0,-4.9145,-4.8834,-4.8642,-4.855,-4.842,-4.8344,-4.8306,-4.8306,-4.8306,-4.8306,0.0,0.0,0.0,0.0,0.0,0.0,0.0,0.0,0.0,0.0,0.0,0.0,0.0,0.0,0.0,0.0,0.0,0.0,0.0,0.0,0.0,0.0,0.0,0.0,0.0,0.0,0.0,0.0,0.0,0.0,0.0,0.0,0.0,0.0,0.0,0.0,0.0,0.0,0.0,0.0,0.0,0.0,0.0,0.0,0.0,0.0,0.0,0.0,0.0,0.0,0.0,0.0,0.0,0.0,0.0,0.0,0.0,0.0,0.0,0.0,0.0,0.0,0.0,0.0,0.0,0.0,0.0,0.0,0.0,0.0,0.0,0.0,0.0,0.0,0.0,0.0,0.0,0.0,0.0,0.0,0.0,0.0,0.0,0.0,0.0,0.0,0.0,0.0,0.0,0.0,0.0,0.0,0.0,0.0,0.0,0.0,0.0,0.0,0.0,0.0,0.0,0.0,-4.8903,-4.8587,-4.8401,-4.8363,-4.8306,-4.8306,-4.8306,-4.8306,-4.8453,-4.8802,0.0,0.0,0.0,0.0,0.0,0.0,0.0,0.0,0.0,0.0,0.0,0.0,0.0,0.0,0.0,0.0,0.0,0.0,0.0,0.0,0.0,0.0,0.0,0.0,0.0,0.0,0.0,0.0,0.0,0.0,0.0,0.0,0.0,0.0,0.0,0.0,0.0,0.0,0.0,0.0,0.0,0.0,0.0,0.0,0.0,0.0,0.0,0.0,0.0,0.0,0.0,0.0,0.0,0.0,0.0,0.0,0.0,0.0,0.0,0.0,0.0,0.0,0.0,0.0,0.0,0.0,0.0,0.0,0.0,0.0,0.0,0.0,0.0,0.0,0.0,0.0,0.0,0.0,0.0,0.0,0.0,0.0,0.0,0.0,0.0,0.0,0.0,0.0,0.0,0.0,0.0,0.0,0.0,0.0,0.0,0.0,0.0,0.0,0.0,0.0,0.0,0.0,-4.9118,-4.8697,-4.8473,-4.8586,-4.8546,-4.8526,-4.8526,-4.8526,-4.8875,-4.9646,0.0,0.0,0.0,0.0,0.0,0.0,0.0,0.0,0.0,0.0,0.0,0.0,0.0,0.0,0.0,0.0,0.0,0.0,0.0,0.0,0.0,0.0,0.0,0.0,0.0,0.0,0.0,0.0,0.0,0.0,0.0,0.0,0.0,0.0,0.0,0.0,0.0,0.0,0.0,0.0,0.0,0.0,0.0,0.0,0.0,0.0,0.0,0.0,0.0,0.0,0.0,0.0,0.0,0.0,0.0,0.0,0.0,0.0,0.0,0.0,-4.8317,-4.8105,0.0,0.0,0.0,0.0,0.0,0.0,0.0,0.0,0.0,0.0,0.0,0.0,0.0,0.0,0.0,0.0,0.0,0.0,0.0,0.0,0.0,0.0,0.0,0.0,0.0,0.0,0.0,0.0,0.0,0.0,0.0,0.0,0.0,0.0,0.0,0.0,0.0,0.0,0.0,0.0,-4.8678,-4.9047,-4.9354,-4.9354,-4.9903,-5.027,-5.027,-5.027,-5.0343,-5.0527,-5.0606,0.0,0.0,0.0,0.0,0.0,0.0,0.0,0.0,0.0,0.0,0.0,0.0,0.0,0.0,0.0,0.0,0.0,0.0,0.0,0.0,0.0,0.0,0.0,0.0,0.0,0.0,0.0,0.0,0.0,0.0,0.0,0.0,0.0,0.0,0.0,0.0,0.0,0.0,0.0,0.0,0.0,0.0,0.0,0.0,0.0,0.0,0.0,0.0,0.0,0.0,0.0,0.0,0.0,0.0,0.0,0.0,0.0,0.0,0.0,-4.9548,-4.9356,0.0,0.0,0.0,0.0,0.0,0.0,0.0,0.0,0.0,0.0,0.0,0.0,0.0,0.0,0.0,0.0,0.0,0.0,0.0,0.0,0.0,0.0,0.0,0.0,0.0,0.0,0.0,0.0,0.0,0.0,0.0,0.0,0.0,0.0,0.0,0.0,0.0,0.0,0.0,0.0,-4.9693,-4.9981,-5.0178,-5.0178,-5.0545,-5.0802,-5.0802,-5.0964,-5.1209,-5.1597,-5.1954,0.0,0.0,0.0,0.0,0.0,0.0,0.0,0.0,0.0,0.0,0.0,0.0,0.0,0.0,0.0,0.0,0.0,0.0,0.0,0.0,0.0,0.0,0.0,0.0,0.0,0.0,0.0,0.0,0.0,0.0,0.0,0.0,0.0,0.0,0.0,0.0,0.0,0.0,0.0,0.0,0.0,0.0,0.0,0.0,0.0,0.0,0.0,0.0,0.0,0.0,0.0,0.0,0.0,-4.9625,-4.999,-5.0702,-5.0702,-5.0702,-5.0702,-5.0702,-5.0702,-5.0702,-5.0702,0.0,0.0,0.0,0.0,0.0,0.0,0.0,0.0,0.0,0.0,0.0,0.0,0.0,0.0,0.0,0.0,0.0,0.0,0.0,0.0,0.0,0.0,-5.3029,-5.2278,-5.2663,-5.2797,-5.1394,0.0,0.0,0.0,0.0,0.0,0.0,0.0,0.0,0.0,0.0,0.0,-5.0945,-5.0974,-5.1044,-5.1167,-5.1256,-5.1308,-5.1427,-5.1658,-5.2102,-5.2772,-5.3376,-5.4057,0.0,0.0,0.0,0.0,0.0,0.0,0.0,0.0,0.0,0.0,0.0,0.0,0.0,0.0,0.0,0.0,0.0,0.0,0.0,0.0,0.0,0.0,0.0,0.0,0.0,0.0,0.0,0.0,0.0,0.0,0.0,0.0,-4.5586,-4.5586,0.0,0.0,0.0,0.0,0.0,0.0,0.0,0.0,0.0,0.0,0.0,0.0,0.0,-4.8355,-4.9221,-4.9221,-4.9663,-5.0529,-5.0529,-5.0587,-5.0702,-5.0702,-5.0702,-5.0702,-5.0702,0.0,-5.0702,-5.0702,0.0,0.0,0.0,0.0,0.0,0.0,0.0,0.0,0.0,0.0,0.0,0.0,0.0,0.0,0.0,0.0,0.0,0.0,0.0,0.0,0.0,0.0,-5.3163,-5.2986,-5.3023,-5.3042,-5.2768,-5.2752,-5.2768,-5.2619,-5.2514,-5.2395,0.0,0.0,0.0,0.0,0.0,0.0,-5.1232,-5.1593,-5.2075,-5.2738,-5.3125,-5.3442,-5.3805,-5.3875,-5.3965,-5.4059,-5.4127,-5.4382,-5.4776,-5.4806,0.0,0.0,0.0,0.0,0.0,0.0,0.0,0.0,0.0,0.0,0.0,0.0,0.0,0.0,0.0,0.0,0.0,0.0,0.0,0.0,0.0,0.0,0.0,0.0,0.0,0.0,0.0,0.0,0.0,-4.5586,-4.5586,-4.5586,-4.5586,-4.5586,0.0,0.0,0.0,0.0,0.0,0.0,0.0,0.0,0.0,-4.8817,-4.8836,-4.924,-5.0106,-5.0125,-5.0317,-5.0702,-5.0702,-5.0702,-5.0702,-5.0702,-5.0702,-5.0702,-5.0702,-5.0702,-5.0702,-5.0702,-5.0702,-5.0702,0.0,0.0,0.0,0.0,-5.1375,-5.1433,-5.1933,-5.2106,-5.2106,-5.2106,0.0,0.0,0.0,0.0,0.0,0.0,0.0,-5.3818,-5.3337,-5.3874,-5.4427,-5.3944,-5.4153,-5.4434,-5.4411,-5.4388,-5.4164,-5.3403,-5.3138,-5.3029,-5.3146,-5.3003,0.0,0.0,0.0,-5.2528,-5.2642,-5.2684,-5.2821,-5.3122,-5.3477,-5.3795,-5.3944,-5.4158,-5.4315,-5.4315,-5.4463,-5.4654,-5.4806,-5.4806,-5.4776,0.0,0.0,0.0,0.0,0.0,0.0,0.0,0.0,0.0,0.0,0.0,0.0,0.0,0.0,0.0,0.0,0.0,0.0,0.0,0.0,0.0,0.0,0.0,0.0,0.0,0.0,0.0,0.0,-4.5586,-4.5586,-4.5586,-4.5797,-4.5932,0.0,0.0,0.0,0.0,0.0,0.0,-4.8432,-4.8644,-4.9067,-4.9702,-4.9721,-5.0029,-5.0683,-5.0702,-5.0702,-5.0702,-5.0702,-5.0702,-5.0702,-5.0914,-5.101,-5.101,-5.1241,-5.1337,-5.1318,-5.1106,-5.101,-5.1029,-5.1241,-5.1337,-5.1414,-5.201,-5.2241,-5.2337,-5.2991,-5.3203,-5.3203,-5.3203,-5.3356,-5.3568,-5.378,0.0,0.0,0.0,0.0,-5.4603,-5.3968,-5.4696,-5.5442,-5.4802,-5.5086,-5.5504,-5.5476,-5.5427,-5.5142,-5.4306,-5.3965,-5.3955,-5.4317,-5.4158,0.0,-5.3999,-5.3738,-5.3584,-5.3682,-5.34,-5.3272,-5.344,-5.3623,-5.3758,-5.3851,-5.4123,-5.4349,-5.443,-5.4654,-5.4806,-5.4806,-5.4806,-5.4654,-5.4315,0.0,0.0,0.0,0.0,0.0,0.0,0.0,0.0,0.0,0.0,0.0,0.0,0.0,0.0,0.0,0.0,0.0,0.0,0.0,0.0,0.0,0.0,0.0,0.0,0.0,0.0,0.0,0.0,0.0,-4.5586,-4.6336,0.0,0.0,0.0,0.0,-4.8048,-4.8836,-4.9336,-4.9336,-5.0106,-5.0587,-5.0625,-5.0625,-5.0644,-5.0702,-5.0702,-5.0702,-5.0702,-5.0702,-5.0702,-5.0721,-5.1491,-5.1856,-5.1895,-5.2722,-5.3068,-5.301,-5.2183,-5.1856,-5.1933,-5.276,-5.3068,-5.3087,-5.3126,-5.3126,-5.3145,-5.3183,-5.3203,-5.3203,-5.3203,-5.376,-5.4587,-5.5338,-5.5525,0.0,0.0,-5.5455,-5.5427,-5.5389,-5.5493,-5.5573,-5.5375,-5.5418,-5.5499,-5.5409,-5.5403,-5.539,-5.5345,-5.5314,-5.5294,-5.5332,0.0,-5.4281,-5.4281,-5.3699,-5.3336,-5.3643,-5.34,-5.3481,-5.4177,-5.3907,-5.3851,-5.4246,-5.4281,-5.443,-5.4746,-5.4776,-5.4806,-5.4806,-5.4806,-5.4654,-5.4315,-5.3944,0.0,0.0,0.0,0.0,0.0,0.0,0.0,0.0,0.0,0.0,0.0,0.0,0.0,0.0,0.0,0.0,0.0,0.0,0.0,0.0,0.0,0.0,0.0,0.0,0.0,0.0,0.0,0.0,-4.6432,-4.7182,0.0,-4.7682,-4.8432,-4.8933,-4.8933,-4.974,-5.024,-5.024,-5.0529,-5.0702,-5.0702,-5.0702,-5.0952,-5.1471,-5.1471,-5.176,-5.2318,-5.2318,-5.2318,-5.2318,-5.2606,-5.2741,-5.276,-5.3068,-5.3203,-5.3222,-5.3472,-5.3241,-5.2779,-5.3087,-5.3203,-5.328,-5.3837,-5.4049,-5.4107,-5.4626,-5.4799,-5.4799,-5.4799,-5.5011,-5.5318,-5.5607,-5.5662,-5.5662,-5.5662,-5.5618,-5.5573,-5.5573,-5.5527,-5.5456,-5.5408,-5.5421,-5.5434,-5.5403,-5.5403,-5.5403,-5.539,-5.5009,-5.4546,-5.4071,-5.3944,-5.3888,-5.3888,-5.37,-5.3545,-5.3682,-5.34,-5.3378,-5.387,-5.4016,-5.4209,-5.4591,-5.4623,-5.4685,-5.4776,-5.4806,-5.4806,-5.4806,-5.5038,-5.5009,-5.4623,-5.4735,-5.456,0.0,0.0,0.0,0.0,0.0,0.0,0.0,0.0,0.0,0.0,0.0,0.0,0.0,0.0,0.0,0.0,0.0,0.0,0.0,0.0,0.0,0.0,0.0,0.0,0.0,0.0,-4.7298,-4.7298,-4.8048,-4.8548,-4.8548,-4.9336,-4.9837,-4.9837,-5.0356,-5.0702,-5.0702,-5.0952,-5.1106,-5.1106,-5.1395,-5.1798,-5.2337,-5.2337,-5.2645,-5.3203,-5.3203,-5.3203,-5.3222,-5.351,-5.3645,-5.3645,-5.3933,-5.4049,-5.4087,-5.4664,-5.4568,-5.4049,-5.4049,-5.4049,-5.4107,-5.4684,-5.4895,-5.4972,-5.5511,-5.5703,-5.5703,-5.5703,-5.5703,-5.5703,-5.5703,-5.5682,-5.5618,-5.5618,-5.5593,-5.5542,-5.5542,-5.5476,-5.5484,-5.5746,-5.5817,-5.5906,-5.6186,-5.6243,-5.6198,-5.6071,-5.5302,-5.4514,-5.4035,-5.3997,-5.4179,-5.4479,-5.4166,-5.4,-5.4261,-5.3867,-5.3641,-5.387,-5.4158,-5.4397,-5.4623,-5.4623,-5.4685,-5.4776,-5.4806,-5.4806,-5.4806,-5.5066,-5.5009,-5.4654,-5.4874,-5.4784,-5.4315,0.0,0.0,0.0,0.0,0.0,0.0,0.0,0.0,0.0,0.0,0.0,0.0,0.0,0.0,0.0,0.0,0.0,0.0,0.0,0.0,0.0,0.0,0.0,-4.7048,-4.7625,-4.8144,-4.8144,-4.8913,-4.9433,-4.9433,-5.0202,-5.0702,-5.0741,-5.0741,-5.0741,-5.0779,-5.1529,-5.1952,-5.1952,-5.276,-5.3222,-5.3241,-5.3241,-5.326,-5.328,-5.328,-5.328,-5.3318,-5.4145,-5.453,-5.4587,-5.5357,-5.5703,-5.5703,-5.5703,-5.5703,-5.5703,-5.5703,-5.5703,-5.5703,-5.5703,-5.5703,-5.5703,-5.5703,-5.5703,-5.5703,-5.5703,-5.5722,-5.5742,-5.5722,-5.5654,-5.5581,-5.5581,-5.5523,-5.5479,-5.5479,-5.5492,-5.567,-5.646,-5.6677,-5.6933,-5.7741,-5.7905,-5.7785,-5.7381,-5.6321,-5.5479,-5.5453,-5.5114,-5.5136,-5.5981,-5.5131,0.0,-5.5438,-5.4859,-5.439,-5.4371,-5.4371,-5.439,-5.4424,-5.4424,-5.4538,-5.4882,-5.4901,-5.4901,-5.4901,-5.4901,-5.4711,-5.4386,-5.4315,-5.4315,-5.4315,0.0,0.0,0.0,0.0,0.0,0.0,0.0,0.0,0.0,0.0,0.0,0.0,0.0,0.0,0.0,0.0,0.0,0.0,0.0,0.0,0.0,0.0,-4.874,-4.7894,-4.8509,-4.9048,-4.9048,-4.9798,-5.0337,-5.0337,-5.0548,-5.0933,-5.1529,-5.1568,-5.1856,-5.2472,-5.2722,-5.2837,-5.2837,-5.3087,-5.351,-5.4145,-5.4145,-5.4434,-5.5011,-5.5011,-5.5011,-5.5011,-5.5261,-5.5376,-5.5376,-5.5588,-5.5703,-5.5703,-5.5703,-5.5703,-5.5703,-5.5703,-5.5703,-5.5703,-5.5703,-5.5703,-5.5703,-5.5703,-5.5703,-5.5684,-5.564,-5.606,-5.6556,-5.6491,-5.6951,-5.7431,-5.7407,-5.7378,-5.7347,-5.7296,-5.7251,-5.7282,-5.7485,-5.7569,-5.7626,-5.7848,-5.7905,-5.7859,-5.7758,-5.745,-5.7043,-5.65,-5.6319,-5.6327,-5.6553,-5.6334,-5.619,-5.6396,-5.6246,-5.6218,-5.6431,-5.6481,-5.6576,-5.6892,-5.6892,-5.6968,-5.7052,-5.7052,-5.7052,-5.7052,-5.7052,-5.6692,-5.596,-5.5129,-5.4528,0.0,0.0,0.0,0.0,0.0,0.0,0.0,0.0,0.0,0.0,0.0,0.0,0.0,0.0,0.0,0.0,0.0,0.0,0.0,0.0,0.0,0.0,-4.9606,-4.976,-4.926,-4.9625,-4.9933,-4.9933,-5.0375,-5.0818,-5.1164,-5.1202,-5.1548,-5.2395,-5.2452,-5.2683,-5.3164,-5.3549,-5.3741,-5.3741,-5.4068,-5.4491,-5.4991,-5.4991,-5.5241,-5.5703,-5.5703,-5.5876,-5.6242,-5.6242,-5.6434,-5.678,-5.678,-5.678,-5.678,-5.678,-5.678,0.0,0.0,0.0,0.0,0.0,-5.6428,-5.6736,-5.6713,-5.6713,-5.6736,-5.6691,-5.7059,-5.7482,-5.7412,-5.7757,-5.8141,-5.8087,-5.8062,-5.8011,-5.7985,-5.7932,-5.7982,-5.8326,-5.8402,-5.8498,-5.8861,-5.8937,-5.8937,-5.8937,-5.8937,0.0,-5.8382,-5.7718,-5.7378,-5.7699,-5.7472,-5.7378,-5.7718,-5.7453,-5.7358,-5.7538,-5.7538,-5.7663,-5.7886,-5.7905,0.0,0.0,0.0,-5.7905,-5.7905,-5.7905,0.0,0.0,0.0,-5.5917,-5.5551,-5.5638,0.0,0.0,-5.4151,-5.394,0.0,0.0,0.0,0.0,0.0,0.0,0.0,0.0,0.0,0.0,0.0,0.0,0.0,0.0,0.0,0.0,-5.0702,-5.0721,-5.0818,-5.0837,-5.0837,-5.0837,-5.0837,-5.1144,-5.1972,-5.2049,-5.2414,-5.328,-5.3356,-5.3395,-5.3491,0.0,0.0,0.0,0.0,-5.5742,-5.5838,-5.5838,-5.5895,-5.5992,-5.5992,-5.6395,-5.7146,-5.7146,-5.7569,-5.83,-5.83,-5.83,-5.83,-5.83,-5.83,-5.8146,-5.6607,-5.5992,-5.6088,-5.679,-5.7536,-5.8208,-5.8141,0.0,0.0,-5.8208,-5.8289,-5.8389,-5.8318,-5.8328,-5.8355,-5.8279,-5.8226,-5.8173,-5.8173,-5.8173,-5.8364,-5.909,-5.9262,-5.9472,-6.0217,-6.0389,-6.0389,-6.0389,-6.0389,-6.0389,-6.0389,-5.9166,-5.8421,-5.9147,-5.8651,-5.844,-5.9147,-5.8631,-5.8173,-5.8173,0.0,0.0,-5.8173,-5.8173,-5.8173,-5.8173,-5.8173,-5.8173,-5.8173,-5.8096,-5.8039,-5.8039,-5.7944,-5.7682,-5.7213,-5.6971,-5.6594,-5.6144,-5.5767,-5.5592,0.0,0.0,0.0,0.0,0.0,0.0,0.0,0.0,0.0,0.0,0.0,0.0,0.0,0.0,0.0,-5.0664,-5.0702,-5.0933,-5.1587,-5.1683,-5.1683,-5.1683,-5.1683,-5.201,-5.2876,-5.2953,-5.3318,-5.4184,-5.4241,-5.453,-5.5184,-5.5376,-5.5472,-5.5472,-5.5607,-5.603,-5.6742,-5.6742,-5.7088,-5.78,0.0,0.0,-5.805,-5.805,-5.8146,-5.83,-5.83,-5.83,-5.83,-5.83,-5.83,-5.828,-5.7934,-5.78,-5.7819,-5.797,-5.8143,-5.8277,-5.8277,-5.8231,-5.8208,-5.8136,-5.8527,-5.8994,-5.896,-5.9439,0.0,-5.9966,-5.9966,-5.9993,-5.9939,-5.9911,-5.995,-6.0102,-6.0141,-6.0179,-6.0351,-6.0389,-6.0389,-6.0389,-6.0389,-6.0389,-6.0389,-6.0122,-5.9969,-6.0122,-6.0007,-5.9969,-6.0122,-6.0007,-5.9911,-5.9911,-5.9911,-5.9911,-5.9911,-5.9911,-5.9911,-5.9911,-5.9911,-5.9911,-5.9911,-5.9243,-5.888,-5.888,-5.823,-5.7528,-5.6823,-5.7375,-5.7299,-5.6662,-5.593,-5.5592,0.0,0.0,0.0,0.0,0.0,0.0,0.0,0.0,0.0,0.0,0.0,-5.0183,0.0,0.0,-5.0818,-5.1241,-5.1298,-5.1587,-5.2433,-5.2549,-5.2549,-5.2549,-5.2549,-5.2895,-5.378,-5.3857,-5.4203,-5.503,-5.5107,-5.528,-5.5684,-5.5703,-5.5895,-5.6338,-5.6338,-5.6761,-5.7646,-5.7646,-5.7877,-5.83,-5.83,-5.8511,-5.8896,-5.8896,-5.9146,-5.955,-5.955,-5.955,-5.955,-5.955,-5.955,-5.955,-5.955,-5.9281,-5.8915,-5.885,-5.9115,-5.9456,-5.9407,-5.9383,-5.9358,-5.9307,-5.9575,-5.9874,-5.9821,-6.0127,-6.0499,-6.0417,-6.0417,-6.0444,-6.0417,-6.0389,-6.0389,-6.0389,-6.0389,-6.0389,-6.0389,-6.0389,-6.0389,-6.0389,-6.0389,-6.0389,-6.0389,-6.0389,-6.0389,-6.0389,-6.0389,-6.0389,-6.0389,-6.0389,-6.0389,-6.0389,-6.0389,-6.0389,-6.0389,-6.0389,-6.0389,-6.0389,-6.0389,-6.0389,-6.0389,-5.9969,-5.9759,-5.9759,-5.9159,-5.8559,-5.7957,-5.8146,-5.7973,-5.7391,-5.6987,-5.6785,0.0,0.0,0.0,0.0,0.0,0.0,0.0,0.0,-4.9798,-5.0337,-5.0567,-5.0702,-5.0702,-5.0818,-5.1144,-5.1798,-5.2049,-5.2472,-5.3337,-5.3453,-5.351,-5.3664,-5.3549,-5.3799,-5.4645,-5.4722,-5.4991,-5.5645,-5.5703,-5.5703,-5.5703,-5.5857,-5.6261,-5.6973,-5.7146,-5.7665,-5.8531,-5.8531,-5.8627,-5.88,-5.88,-5.9127,-5.9742,-5.9742,-6.0146,-6.08,-6.08,-6.08,-6.08,-6.08,-6.08,-6.08,-6.08,-6.0334,-5.9738,-5.9672,-6.0041,-6.0604,-6.0552,-6.0499,-6.0499,-6.0499,-6.0525,-6.0552,-6.0499,-6.0472,-6.0472,-6.0417,-6.0389,-6.0389,-6.0389,-6.0389,-6.0389,-6.0389,-6.0389,-6.0389,-6.0389,-6.0389,-6.0389,-6.0389,-6.0389,-6.0389,-6.0389,-6.0389,-6.0389,-6.0389,-6.0389,-6.0389,-6.0389,-6.0389,-6.0389,-6.0389,-6.0389,-6.0389,-6.0389,-6.0389,-6.0389,-6.0389,-6.0389,-6.0389,-6.0389,-6.0389,-6.0389,-6.0389,-6.008,-5.9692,-5.9215,-5.8852,-5.8479,-5.7997,-5.7997,-5.7997,-4.5878,-4.5835,-4.5805,-4.5887,-4.6957,-4.7836,0.0,0.0,-5.0356,-4.9683,-5.0164,-5.0702,-5.0702,-5.1279,-5.1798,-5.1895,-5.2549,-5.3356,-5.4222,-5.4357,-5.4626,-5.5338,-5.478,-5.4664,-5.5491,-5.5568,-5.5588,-5.5684,-5.5703,-5.5703,-5.5703,-5.6415,-5.6896,-5.6992,-5.7742,-5.855,-5.9358,-5.9377,-5.9742,-6.0512,-6.0512,-6.0569,-6.0646,-6.0646,-6.0704,-6.08,-6.08,-6.08,-6.08,-6.08,-6.08,-6.08,-6.0734,-6.0652,-6.0575,-6.0551,-6.0559,-6.0604,-6.0604,-6.0552,-6.0499,-6.0499,-6.0472,-6.0417,-6.0417,-6.0417,-6.0417,-6.0389,-6.0389,-6.0389,-6.0389,-6.0389,-6.0389,-6.0389,-6.0389,-6.0389,-6.0389,-6.0389,-6.0389,-6.0389,-6.0389,-6.0389,-6.0389,-6.0389,-6.0389,-6.0389,-6.0389,-6.0389,-6.0389,-6.0389,-6.0389,-6.0389,-6.0389,-6.0389,-6.0389,-6.0389,-6.0389,-6.0389,-6.0389,-6.0389,-6.0389,-6.0389,-6.0389,-6.0389,-6.0361,-5.9956,-5.9215,-5.9159,-5.875,-5.7997,-5.7997,-5.7997,-4.5908,-4.5854,-4.6032,-4.7018,-4.7687,-4.8279,-4.8952,-4.9933,-5.0587,-5.0221,-5.0452,-5.0837,-5.1318,-5.1683,-5.2241,0.0,-5.3722,-5.4241,-5.5068,-5.5203,-5.5318,-5.5665,-5.5395,-5.5318,-5.5665,-5.5703,-5.5703,-5.5703,-5.6165,-5.6453,-5.6453,-5.728,-5.7973,-5.8434,-5.8819,-5.9396,-6.0242,-6.0262,-6.0435,-6.08,-6.08,-6.08,-6.08,-6.08,-6.08,-6.08,-6.08,-6.08,-6.08,-6.08,-6.0777,-6.0734,-6.071,-6.0635,-6.0604,-6.0629,-6.0604,-6.0552,-6.0552,-6.0499,-6.0444,-6.0444,-6.0417,-6.0389,-6.0389,-6.0389,-6.0389,-6.0389,-6.0389,-6.0389,-6.0389,-6.0389,-6.0389,-6.0389,-6.0389,-6.0389,-6.0389,-6.0389,-6.0389,-6.0389,-6.0389,-6.0389,-6.0389,-6.0389,-6.0389,-6.0389,-6.0389,-6.0389,-6.0389,-6.0389,-6.0389,-6.0389,-6.0389,-6.0389,-6.0389,-6.0389,-6.0389,-6.0389,-6.0389,-6.0389,-6.0389,-6.0389,-6.0389,-6.0389,-6.0159,-5.9874,-5.9537,-5.9306,-5.9026,-5.8669,-5.8437,-5.8326,-4.6046,-4.6122,-4.6525,-4.7699,-4.8257,-4.8833,-5.0067,-5.0529,-5.0702,-5.0702,-5.0875,-5.1202,-5.1798,-5.2299,-5.3029,-5.428,-5.4684,-5.503,-5.5607,-5.5703,-5.5703,-5.5703,-5.5703,-5.5703,-5.5703,-5.5703,-5.5799,-5.603,-5.6626,-5.7088,-5.7338,-5.8165,-5.8896,-5.9473,-5.9723,-6.0165,-6.0781,-6.08,-6.08,-6.08,-6.08,-6.08,-6.08,-6.08,-6.08,-6.08,-6.08,-6.08,-6.0777,-6.0777,-6.0734,-6.066,-6.0635,-6.0604,-6.0499,-6.0525,-6.0525,-6.0472,-6.0472,-6.0444,-6.0389,-6.0389,-6.0389,-6.0389,-6.0389,-6.0389,-6.0389,-6.0389,-6.0389,-6.0389,-6.0389,-6.0389,-6.0389,-6.0389,-6.0389,-6.0389,-6.0389,-6.0389,-6.0389,-6.0389,-6.0389,-6.0389,-6.0389,-6.0389,-6.0389,-6.0389,-6.0389,-6.0389,-6.0389,-6.0389,-6.0389,-6.0389,-6.0389,-6.0389,-6.0389,-6.0389,-6.0389,-6.0389,-6.0389,-6.0389,-6.0389,-6.0389,-6.0389,-6.0389,-6.0129,-5.9906,-5.9791,-5.9502,-5.9325,-5.9196,-5.8791,-5.8586,-4.6279,-4.6813,-4.7334,-4.7256,-4.8405,-4.9525,-4.9469,-5.0087,-5.0702,-5.0702,-5.1318,-5.1875,-5.1914,-5.328,-5.4434,-5.4491,-5.5145,-5.5665,-5.5703,-5.5703,-5.5703,-5.5703,-5.5703,-5.5703,0.0,-5.5703,-5.6049,-5.6896,-5.6973,-5.7357,-5.8223,-5.9031,-5.9473,-5.9492,-6.0319,-6.0762,-6.08,-6.08,-6.08,-6.08,-6.08,-6.08,-6.08,-6.08,-6.08,-6.08,-6.08,-6.0757,-6.071,-6.071,-6.066,-6.0604,-6.0525,-6.0499,-6.0499,-6.0417,-6.0389,-6.0389,-6.0389,-6.0389,-6.0389,-6.0389,-6.0389,-6.0389,-6.0389,-6.0389,-6.0389,-6.0389,-6.0389,-6.0389,-6.0389,-6.0389,-6.0389,-6.0389,-6.0389,-6.0389,-6.0389,-6.0389,-6.0389,-6.0389,-6.0389,-6.0389,-6.0389,-6.0389,-6.0389,-6.0389,-6.0389,-6.0389,-6.0389,-6.0389,-6.0389,-6.0389,-6.0389,-6.0389,-6.0389,-6.0389,-6.0389,-6.0389,-6.0389,-6.0389,-6.0389,-6.0389,-6.0389,-6.0389,-6.0389,-6.0207,-5.9791,-5.9791,-5.9571,-5.9196,-5.8791,-5.8586,-4.6942,-4.7242,-4.7665,-4.8711,-4.9297,-4.9745,-5.0281,-5.0546,-5.0837,-5.1395,-5.1722,-5.226,-5.3414,-5.4107,-5.4664,-5.5203,-5.5511,-5.5703,-5.5703,-5.5703,-5.5703,-5.5703,-5.5703,0.0,0.0,0.0,0.0,-5.6973,-5.803,-5.8781,-5.9088,-5.9896,-6.0358,-6.0358,-6.0646,-6.08,-6.08,-6.08,-6.08,-6.08,-6.08,-6.08,-6.08,-6.08,-6.08,-6.08,-6.0734,-6.071,-6.0685,-6.0655,-6.0604,-6.0525,-6.0499,-6.0472,-6.0417,-6.0417,-6.0389,-6.0389,-6.0389,-6.0389,-6.0389,-6.0389,-6.0389,-6.0389,-6.0389,-6.0389,-6.0389,-6.0389,-6.0389,-6.0389,-6.0389,-6.0389,-6.0389,-6.0389,-6.0389,-6.0389,-6.0389,-6.0389,-6.0389,-6.0389,-6.0389,-6.0389,-6.0389,-6.0389,-6.0389,-6.0389,-6.0389,-6.0389,-6.0389,-6.0389,-6.0389,-6.0389,-6.0389,-6.0389,-6.0389,-6.0389,-6.0389,-6.0389,-6.0389,-6.0389,-6.0389,-6.0389,-6.0389,-6.0389,-6.0389,-6.0342,-6.0207,-6.0207,-6.0129,-5.9988,-5.9306,-5.9008,-4.734,-4.7918,-4.8619,-4.964,-5.0042,-5.0293,-5.0782,-5.0825,-5.0989,-5.1722,-5.2164,-5.2799,-5.4241,-5.4722,-5.5107,-5.5607,-5.5703,-5.5703,-5.5703,-5.5703,-5.5703,-5.5703,-5.5703,-5.5818,0.0,0.0,0.0,-5.7453,-5.8723,-5.9646,-5.9954,-6.0492,-6.08,-6.08,-6.08,-6.08,-6.08,-6.08,-6.08,-6.08,-6.08,-6.08,-6.08,-6.08,-6.08,-6.0757,-6.071,-6.066,-6.0629,-6.0578,-6.0525,-6.0472,-6.0472,-6.0444,-6.0389,-6.0389,-6.0389,-6.0389,-6.0389,-6.0389,-6.0389,-6.0389,-6.0389,-6.0389,-6.0389,-6.0389,-6.0389,-6.0389,-6.0389,-6.0389,-6.0389,-6.0389,-6.0389,-6.0389,-6.0389,-6.0389,-6.0389,-6.0389,-6.0389,-6.0389,-6.0389,-6.0389,-6.0389,-6.0389,-6.0389,-6.0389,-6.0389,-6.0389,-6.0389,-6.0389,-6.0389,-6.0389,-6.0389,-6.0389,-6.0389,-6.0389,-6.0389,-6.0389,-6.0389,-6.0389,-6.0389,-6.0389,-6.0389,-6.0389,-6.0389,-6.0389,-6.0389,-6.0389,-6.0313,-6.0178,-5.9502,-5.9122,-4.7546,-4.8806,-5.0073,-4.9987,-5.0583,-5.1152,-5.0956,-5.0902,-5.109,-5.1838,-5.2626,-5.3491,0.0,0.0,-5.5703,-5.5703,-5.5703,-5.5703,-5.5703,-5.5703,-5.5703,0.0,0.0,0.0,0.0,0.0,0.0,-5.8357,0.0,-5.9935,-6.0762,-6.08,-6.08,-6.08,-6.08,-6.08,-6.08,-6.08,-6.08,-6.08,-6.08,-6.08,-6.08,-6.08,-6.0777,-6.0685,-6.0685,-6.0629,-6.0499,-6.0499,-6.0444,-6.0389,-6.0389,-6.0389,-6.0389,-6.0389,-6.0389,-6.0389,-6.0389,-6.0389,-6.0389,-6.0389,-6.0389,-6.0389,-6.0389,-6.0389,-6.0389,-6.0389,-6.0389,-6.0389,-6.0389,-6.0389,-6.0389,-6.0389,-6.0389,-6.0389,-6.0389,-6.0389,-6.0389,-6.0389,-6.0389,-6.0389,-6.0389,-6.0389,-6.0389,-6.0389,-6.0389,-6.0389,-6.0389,-6.0389,-6.0389,-6.0389,-6.0389,-6.0389,-6.0389,-6.0389,-6.0389,-6.0389,-6.0389,-6.0389,-6.0389,-6.0389,-6.0389,-6.0389,-6.0389,-6.0389,-6.0389,-6.0389,-6.0207,-5.9791,-5.9397,-5.8969,-4.8295,-4.9263,-5.0245,-5.0796,-5.107,-5.1181,-5.1132,-5.0978,-5.1244,-5.2715,-5.3109,-5.3645,0.0,0.0,0.0,-5.5703,-5.5703,0.0,-5.5703,-5.5703,0.0,-5.5703,0.0,-5.603,-5.6915,-5.778,0.0,0.0,-5.9992,-6.0569,-6.0781,-6.08,-6.08,-6.08,-6.08,-6.08,-6.08,-6.08,-6.08,-6.08,-6.08,-6.0757,-6.0729,-6.0729,-6.0704,-6.0629,-6.0578,-6.0525,-6.0499,-6.0444,-6.0417,-6.0389,-6.0389,-6.0389,-6.0389,-6.0389,-6.0389,-6.0389,-6.0389,-6.0389,-6.0389,-6.0389,-6.0389,-6.0389,-6.0389,-6.0389,-6.0389,-6.0389,-6.0389,-6.0389,-6.0389,-6.0389,-6.0389,-6.0389,-6.0389,-6.0389,-6.0389,-6.0389,-6.0389,-6.0389,-6.0389,-6.0389,-6.0389,-6.0389,-6.0389,-6.0389,-6.0389,-6.0389,-6.0389,-6.0389,-6.0389,-6.0389,-6.0389,-6.0389,-6.0389,-6.0389,-6.0389,-6.0389,-6.0389,-6.0389,-6.0389,-6.0389,-6.0389,-6.0389,-6.0389,-6.0389,-6.0389,-6.0389,-6.0207,-5.9791,-5.9397,-5.8969,-4.8658,-4.9731,-5.0777,-5.1226,-5.131,-5.1261,-5.1113,-5.0966,-5.1231,-5.245,-5.2935,0.0,-5.4914,-5.5453,0.0,0.0,0.0,0.0,-5.5703,-5.5703,-5.5703,0.0,-5.5703,0.0,-5.7453,-5.8011,-5.88,0.0,-6.0512,-6.08,-6.08,-6.08,-6.08,-6.08,-6.08,-6.08,-6.08,-6.08,-6.08,-6.0753,-6.0753,-6.071,-6.0655,-6.0655,-6.0629,-6.0552,-6.0525,-6.0472,-6.0444,-6.0417,-6.0389,-6.0389,-6.0389,-6.0389,-6.0389,-6.0389,-6.0389,-6.0389,-6.0389,-6.0389,-6.0389,-6.0389,-6.0389,-6.0389,-6.0389,-6.0389,-6.0389,-6.0389,-6.0389,-6.0389,-6.0389,-6.0389,-6.0389,-6.0389,-6.0389,-6.0389,-6.0389,-6.0389,-6.0389,-6.0389,-6.0389,-6.0389,-6.0389,-6.0389,-6.0389,-6.0389,-6.0389,-6.0389,-6.0389,-6.0389,-6.0389,-6.0389,-6.0389,-6.0389,-6.0389,-6.0389,-6.0389,-6.0389,-6.0389,-6.0389,-6.0389,-6.0389,-6.0389,-6.0389,-6.0389,-6.0389,-6.0389,-6.0389,-6.0207,-5.9791,-5.9397,-5.8969,-4.8925,-5.0147,-5.1388,-5.1382,-5.1361,-5.1284,-5.0984,-5.094,-5.1121,-5.1722,0.0,-5.3255,-5.4318,-5.5068,-5.5568,-5.5684,0.0,-5.5703,-5.5703,-5.5703,-5.5703,-5.5703,-5.5703,-5.6376,-5.8127,-5.83,-5.8992,-6.0666,-6.08,-6.08,-6.08,-6.08,-6.08,-6.08,-6.08,-6.08,-6.08,-6.08,-6.0777,-6.0685,-6.0685,-6.0655,-6.0578,-6.0578,-6.0552,-6.0499,-6.0499,-6.0444,-6.0389,-6.0389,-6.0389,-6.0389,-6.0389,-6.0389,-6.0389,-6.0389,-6.0389,-6.0389,-6.0389,-6.0389,-6.0389,-6.0389,-6.0389,-6.0389,-6.0389,-6.0389,-6.0389,-6.0389,-6.0389,-6.0389,-6.0389,-6.0389,-6.0389,-6.0389,-6.0389,-6.0389,-6.0389,-6.0389,-6.0389,-6.0389,-6.0389,-6.0389,-6.0389,-6.0389,-6.0389,-6.0389,-6.0389,-6.0389,-6.0389,-6.0389,-6.0389,-6.0389,-6.0389,-6.0389,-6.0389,-6.0389,-6.0389,-6.0389,-6.0389,-6.0389,-6.0389,-6.0389,-6.0389,-6.0389,-6.0389,-6.0389,-6.0389,-6.0389,-6.0178,-5.9725,-5.9361,-5.8949,-4.9613,-5.0543,-5.1303,-5.1249,-5.123,-5.1181,-5.1023,-5.0855,0.0,0.0,-5.203,-5.2525,-5.4203,-5.4607,-5.4934,-5.5588,-5.5703,-5.5703,-5.5703,-5.5703,-5.5703,0.0,-5.5703,-5.6376,-5.8127,-5.83,0.0,0.0,-6.08,-6.08,-6.08,-6.08,-6.08,-6.08,-6.08,-6.08,-6.08,-6.0753,-6.071,-6.0685,-6.0635,-6.0578,-6.0525,-6.0525,-6.0472,-6.0417,-6.0417,0.0,-6.0389,-6.0389,-6.0389,-6.0389,-6.0389,-6.0389,-6.0389,-6.0389,-6.0389,-6.0389,-6.0389,-6.0389,-6.0389,-6.0389,-6.0389,-6.0389,-6.0389,-6.0389,-6.0389,-6.0389,-6.0389,-6.0389,-6.0389,-6.0389,-6.0389,-6.0389,-6.0389,-6.0389,-6.0389,-6.0389,-6.0389,-6.0389,-6.0389,-6.0389,-6.0389,-6.0389,-6.0389,-6.0389,-6.0389,-6.0389,-6.0389,-6.0389,-6.0389,-6.0389,-6.0389,-6.0389,-6.0389,-6.0389,-6.0389,-6.0389,-6.0389,-6.0389,-6.0389,-6.0389,-6.0389,-6.0389,-6.0389,-6.0389,-6.0389,-6.0389,-6.0019,-5.9306,-5.9233,-5.8791,-4.9781,-5.0611,-5.1228,-5.121,-5.115,-5.1047,-5.0894,0.0,0.0,0.0,-5.1547,-5.2195,-5.3567,-5.4184,0.0,-5.5568,-5.5703,-5.5703,-5.5703,-5.5703,-5.5703,-5.5703,-5.5703,-5.6376,-5.8127,-5.83,-5.8992,-6.0666,-6.08,-6.08,-6.08,-6.08,-6.08,-6.0753,-6.0777,-6.08,-6.0753,-6.0729,-6.066,-6.0604,-6.0578,-6.0525,-6.0444,-6.0444,-6.0417,-6.0389,-6.0389,-6.0389,-6.0389,-6.0389,-6.0389,-6.0389,-6.0389,-6.0389,-6.0389,-6.0389,-6.0389,-6.0389,-6.0389,-6.0389,-6.0389,-6.0389,-6.0389,-6.0389,-6.0389,-6.0389,-6.0389,-6.0389,-6.0389,-6.0389,-6.0389,-6.0389,-6.0389,-6.0389,-6.0389,-6.0389,-6.0389,-6.0389,-6.0389,-6.0389,-6.0389,-6.0389,-6.0389,-6.0389,-6.0389,-6.0389,-6.0389,-6.0389,-6.0389,-6.0389,-6.0389,-6.0389,-6.0389,-6.0389,-6.0389,-6.0389,-6.0389,-6.0389,-6.0389,-6.0389,-6.0389,-6.0389,-6.0389,-6.0389,-6.0207,-6.0099,-6.0099,-5.9874,-5.9571,-5.9196,-5.8988,-5.8669,-4.9746,-5.0548,-5.1171,-5.1105,-5.103,-5.0912,-5.0736,-5.0682,0.0,-5.0565,-5.108,-5.183,-5.2759,-5.3626,-5.4491,0.0,-5.5588,-5.5703,-5.5703,-5.5703,-5.5703,0.0,-5.5703,0.0,-5.8127,-5.83,0.0,-6.0642,-6.0777,-6.0777,-6.0777,-6.08,-6.0777,-6.0685,-6.0777,-6.0777,-6.0685,-6.0704,-6.0629,-6.0499,-6.0499,-6.0444,-6.0389,-6.0389,-6.0389,-6.0389,-6.0389,-6.0389,-6.0389,-6.0389,-6.0389,-6.0389,-6.0389,-6.0389,-6.0389,-6.0389,-6.0389,-6.0389,-6.0389,-6.0389,-6.0389,-6.0389,-6.0389,-6.0389,-6.0389,-6.0389,-6.0389,-6.0389,-6.0389,-6.0389,-6.0389,-6.0389,-6.0389,-6.0389,-6.0389,-6.0389,-6.0389,-6.0389,-6.0389,-6.0389,-6.0389,-6.0389,-6.0389,-6.0389,-6.0389,-6.0389,-6.0389,-6.0389,-6.0389,-6.0389,-6.0389,-6.0389,-6.0389,-6.0389,-6.0389,-6.0389,-6.0389,-6.0389,-6.0389,-6.0389,-6.0389,-6.0389,-6.0389,-6.0389,-6.0019,-5.9791,-5.9791,-5.9397,-5.9178,-5.9046,-5.875,-5.8656,-4.9625,-5.045,-5.1047,-5.0813,-5.0784,-5.0786,-5.0721,0.0,-5.0604,-5.0663,-5.07,-5.0968,-5.1855,-5.2741,-5.3606,-5.4472,0.0,-5.5703,-5.5703,-5.5703,-5.5703,-5.5703,0.0,0.0,-5.8127,-5.83,-5.8969,-6.0594,-6.0655,-6.0635,-6.0729,-6.0777,-6.0777,-6.0685,-6.0777,-6.0777,-6.0685,-6.0655,-6.0578,-6.0499,-6.0444,-6.0417,-6.0389,-6.0389,-6.0389,-6.0389,-6.0389,-6.0389,0.0,-6.0389,-6.0389,-6.0389,-6.0389,-6.0389,-6.0389,-6.0389,-6.0389,-6.0389,-6.0389,-6.0389,-6.0389,-6.0389,-6.0389,-6.0389,-6.0389,-6.0389,-6.0389,-6.0389,-6.0389,-6.0389,-6.0389,-6.0389,-6.0389,-6.0389,-6.0389,-6.0389,-6.0389,-6.0389,-6.0389,-6.0389,-6.0389,-6.0389,-6.0389,-6.0389,-6.0389,-6.0389,-6.0389,-6.0389,-6.0389,-6.0389,-6.0389,-6.0389,-6.0389,-6.0389,-6.0389,-6.0389,-6.0389,-6.0389,-6.0389,-6.0389,-6.0389,-6.0389,-6.0389,-6.0389,-6.0019,-5.9791,-5.9791,-5.9397,-5.9008,-5.8669,-5.8628,-5.8801,-4.9528,-5.0286,-5.084,-5.0784,-5.0718,-5.0664,-5.0643,0.0,-5.0603,-5.0623,-5.0623,-5.0873,-5.174,-5.2606,-5.3491,-5.4357,0.0,0.0,-5.5684,-5.5682,-5.564,-5.5703,-5.5703,0.0,0.0,0.0,-5.8899,-6.052,-6.0629,-6.0604,-6.0578,-6.0685,-6.0729,-6.0655,-6.0685,-6.0704,-6.0578,-6.0552,-6.0499,-6.0444,-6.0417,-6.0389,-6.0389,-6.0389,-6.0389,-6.0389,-6.0389,-6.0389,0.0,-6.0389,-6.0389,-6.0389,-6.0389,-6.0389,-6.0389,-6.0389,-6.0389,-6.0389,-6.0389,-6.0389,-6.0389,-6.0389,-6.0389,-6.0389,-6.0389,-6.0389,-6.0389,-6.0389,-6.0389,-6.0389,-6.0389,-6.0389,-6.0389,-6.0389,-6.0389,-6.0389,-6.0389,-6.0389,-6.0389,-6.0389,-6.0389,-6.0389,-6.0389,-6.0389,-6.0389,-6.0389,-6.0389,-6.0389,-6.0389,-6.0389,-6.0389,-6.0389,-6.0389,-6.0389,-6.0389,-6.0389,-6.0389,-6.0389,-6.0389,-6.0389,-6.0389,-6.0389,-6.0285,-6.0049,-5.9639,-5.9306,-5.9084,-5.8669,-5.8412,-5.8275,-5.8729,-5.9062,-4.9005,-4.9757,-5.0389,-5.0659,-5.0645,-5.0582,0.0,0.0,-5.0623,-5.0623,-5.0623,-5.0816,-5.1413,-5.2452,-5.3395,0.0,0.0,-5.5618,-5.5703,-5.5618,-5.5596,-5.5662,0.0,-5.6472,0.0,-5.8626,-5.9363,-6.0501,-6.0552,-6.048,-6.0351,-6.0514,-6.0629,-6.0578,-6.0655,-6.0629,-6.0499,-6.0499,-6.0472,-6.0389,-6.0389,-6.0389,-6.0389,-6.0389,-6.0389,-6.0389,-6.0389,-6.0389,0.0,-6.0389,-6.0389,-6.0389,-6.0389,-6.0389,-6.0389,-6.0389,-6.0389,-6.0389,-6.0389,-6.0389,-6.0389,-6.0389,-6.0389,-6.0389,-6.0389,-6.0389,-6.0389,-6.0389,-6.0389,-6.0389,-6.0389,-6.0389,-6.0389,-6.0389,-6.0389,-6.0389,-6.0389,-6.0389,-6.0389,-6.0389,-6.0389,-6.0389,-6.0389,-6.0389,-6.0389,-6.0389,-6.0389,-6.0389,-6.0389,-6.0389,-6.0389,-6.0389,-6.0389,-6.0389,-6.0389,-6.0389,-6.0389,-6.0389,-6.0389,-6.0389,-6.0389,-6.0389,-6.0207,-5.9791,-5.9378,-5.9008,-5.8586,-5.8186,-5.8125,-5.8364,-5.8951,-5.9465,-4.7928,-4.8752,-4.9586,-5.0393,-5.0542,-5.0542,0.0,0.0,-5.0702,-5.0702,-5.0702,-5.0702,-5.0702,-5.2087,-5.3203,-5.3222,-5.4564,0.0,-5.5703,-5.5573,-5.5527,0.0,0.0,-5.6709,-5.7991,-5.9556,-6.048,-6.0499,-6.0444,0.0,-5.9899,-6.0275,-6.0499,-6.0499,-6.0578,-6.0578,-6.0499,-6.0499,-6.0472,-6.0389,-6.0389,-6.0389,-6.0389,-6.0389,-6.0389,-6.0389,-6.0389,-6.0389,0.0,-6.0389,-6.0389,-6.0389,-6.0389,-6.0389,-6.0389,-6.0389,-6.0389,-6.0389,-6.0389,-6.0389,-6.0389,-6.0389,-6.0389,-6.0389,-6.0389,-6.0389,-6.0389,-6.0389,-6.0389,-6.0389,-6.0389,-6.0389,-6.0389,-6.0389,-6.0389,-6.0389,-6.0389,-6.0389,-6.0389,-6.0389,-6.0389,-6.0389,-6.0389,-6.0389,-6.0389,-6.0389,-6.0389,-6.0389,-6.0389,-6.0389,-6.0389,-6.0389,-6.0389,-6.0389,-6.0389,-6.0389,-6.0389,-6.0389,-6.0389,-6.0389,-6.0389,-6.0389,-6.0207,-5.9791,-5.9378,-5.9008,-5.8586,-5.8186,-5.8419,-5.9208,-5.9208,-6.0052,-4.7144,-4.7818,-4.8664,-4.9567,-4.974,-4.9853,-5.0529,0.0,-5.0702,-5.0702,-5.0702,-5.0702,-5.0702,-5.2068,-5.3203,-5.3203,-5.4501,0.0,0.0,0.0,0.0,-5.5256,-5.6347,-5.7357,0.0,0.0,-6.037,-6.0049,-6.0019,-5.9823,-5.9449,-5.9518,-5.9739,-6.0091,-6.0379,-6.0499,-6.0417,-6.0417,-6.0417,-6.0389,-6.0389,-6.0389,-6.0389,-6.0389,-6.0389,-6.0389,-6.0389,-6.0389,-6.0389,-6.0389,-6.0389,-6.0389,-6.0389,-6.0389,-6.0389,-6.0389,-6.0389,-6.0389,-6.0389,-6.0389,-6.0389,-6.0389,-6.0389,-6.0389,-6.0389,-6.0389,-6.0389,-6.0389,-6.0389,-6.0389,-6.0389,-6.0389,-6.0389,-6.0389,-6.0389,-6.0389,-6.0389,-6.0389,-6.0389,-6.0389,-6.0389,-6.0389,-6.0389,-6.0389,-6.0389,-6.0389,-6.0389,-6.0389,-6.0389,-6.0389,-6.0389,-6.0389,-6.0389,-6.0389,-6.0389,-6.0389,-6.0389,-6.0389,-6.0389,-6.0389,-6.0389,-6.0389,-6.008,-5.9397,-5.927,-5.887,-5.8186,-5.807,-5.8694,-6.0034,-6.0584,-6.141,0.0,-4.7146,-4.7722,-4.8683,-4.9125,0.0,0.0,-5.0452,-5.0702,-5.0702,-5.0702,-5.0702,-5.0702,-5.2068,-5.3182,-5.3161,-5.4498,0.0,0.0,0.0,0.0,-5.5025,0.0,0.0,0.0,-5.9121,-5.9887,-5.9605,-5.9571,-5.9397,-5.9026,-5.9122,-5.9342,-5.962,-6.003,-6.0294,-6.0389,-6.0389,-6.0389,-6.0389,-6.0389,-6.0389,-6.0389,-6.0389,-6.0389,-6.0389,-6.0389,-6.0389,0.0,-6.0389,-6.0389,-6.0389,-6.0389,-6.0389,-6.0389,-6.0389,-6.0389,-6.0389,-6.0389,-6.0389,-6.0389,-6.0389,-6.0389,-6.0389,-6.0389,-6.0389,-6.0389,-6.0389,-6.0389,-6.0389,-6.0389,-6.0389,-6.0389,-6.0389,-6.0389,-6.0389,-6.0389,-6.0389,-6.0389,-6.0389,-6.0389,-6.0389,-6.0389,-6.0389,-6.0389,-6.0389,-6.0389,-6.0389,-6.0389,-6.0389,-6.0389,-6.0389,-6.0389,-6.0389,-6.0389,-6.0389,-6.0389,-6.0389,-6.0389,-6.0389,-6.0389,-6.0389,-6.0019,-5.9215,-5.9215,-5.8791,-5.7997,-5.8602,-5.9362,-6.0323,-6.149,-6.2228,0.0,-4.6666,-4.6858,-4.7779,-4.8625,0.0,0.0,0.0,0.0,-5.0702,-5.0702,-5.0702,-5.074,-5.2086,-5.314,-5.3133,-5.4407,0.0,0.0,-5.4847,0.0,0.0,-5.5958,0.0,-5.7385,-5.8501,-5.9215,-5.9178,-5.9178,-5.8969,-5.8586,-5.8891,-5.9122,-5.9215,-5.9571,-5.9937,-6.0389,-6.0389,-6.0389,-6.0389,-6.0389,-6.0389,-6.0389,-6.0389,-6.0389,0.0,-6.0389,-6.0389,-6.0389,-6.0389,-6.0389,-6.0389,-6.0389,-6.0389,-6.0389,-6.0389,-6.0389,-6.0389,-6.0389,-6.0389,-6.0389,-6.0389,-6.0389,-6.0389,-6.0389,-6.0389,-6.0389,-6.0389,-6.0389,-6.0389,-6.0389,-6.0389,-6.0389,-6.0389,-6.0389,-6.0389,-6.0389,-6.0389,-6.0389,-6.0389,-6.0389,-6.0389,-6.0389,-6.0389,-6.0389,-6.0389,-6.0389,-6.0389,-6.0389,-6.0389,-6.0389,-6.0389,-6.0389,-6.0389,-6.0389,-6.0389,-6.0389,-6.0389,-6.0389,-6.0389,-6.0389,-6.0389,-6.0019,-5.9215,-5.9122,-5.875,-5.7997,-5.9612,-6.0304,-6.0243,-6.1853,-6.25,-4.5818,0.0,-4.6087,-4.6971,-4.7779,-4.8567,0.0,0.0,-5.0702,-5.0702,0.0,-5.0836,-5.1235,-5.215,-5.2895,-5.3195,0.0,-5.472,-5.4628,0.0,0.0,-5.5263,-5.5921,-5.6704,-5.7679,-5.8634,-5.9046,-5.8772,-5.875,-5.8563,-5.8142,-5.8231,-5.8563,-5.9178,-5.927,-5.9692,-6.0389,-6.0389,-6.0389,-6.0389,-6.0389,-6.0389,-6.0389,-6.0389,-6.0389,-6.0389,-6.0389,-6.0389,-6.0389,-6.0389,-6.0389,-6.0389,-6.0389,-6.0389,-6.0389,-6.0389,-6.0389,-6.0389,-6.0389,-6.0389,-6.0389,-6.0389,-6.0389,-6.0389,-6.0389,-6.0389,-6.0389,-6.0389,-6.0389,-6.0389,-6.0389,-6.0389,-6.0389,-6.0389,-6.0389,-6.0389,-6.0389,-6.0389,-6.0389,-6.0389,-6.0389,-6.0389,-6.0389,-6.0389,-6.0389,-6.0389,-6.0389,-6.0389,-6.0389,-6.0389,-6.0389,-6.0389,-6.0389,-6.0389,-6.0389,-6.0389,-6.0389,-6.0389,-6.0389,-6.0389,-6.0389,-6.0389,-6.0019,-5.9215,-5.8605,-5.8186,-5.7997,-5.9516,-6.0237,-6.0243,-6.177,-6.2415,-4.5586,-4.5568,-4.5683,-4.6182,-4.7221,-4.8221,0.0,0.0,0.0,0.0,0.0,0.0,0.0,0.0,0.0,0.0,-5.4099,0.0,0.0,0.0,-5.4158,-5.4407,-5.5658,-5.658,0.0,-5.7921,-5.8563,-5.8326,-5.8326,-5.8213,-5.7997,-5.7997,-5.8301,-5.891,-5.9084,-5.9571,-6.0389,-6.0389,-6.0389,-6.0389,-6.0389,-6.0389,-6.0389,-6.0389,-6.0389,-6.0389,-6.0389,-6.0389,-6.0389,-6.0389,-6.0389,-6.0389,-6.0389,-6.0389,-6.0389,-6.0389,-6.0389,-6.0389,-6.0389,-6.0389,-6.0389,-6.0389,-6.0389,-6.0389,-6.0389,-6.0389,-6.0389,-6.0389,-6.0389,-6.0389,-6.0389,-6.0389,-6.0389,-6.0389,-6.0389,-6.0389,-6.0389,-6.0389,-6.0389,-6.0389,-6.0389,-6.0389,-6.0389,-6.0389,-6.0389,-6.0389,-6.0389,-6.0389,-6.0389,-6.0389,-6.0389,-6.0389,-6.0389,-6.0389,-6.0389,-6.0389,-6.0389,-6.0389,-6.0389,-6.0389,-6.0389,-6.0389,-6.0019,-5.9215,-5.8412,-5.795,-5.7904,-5.9468,-6.0157,-6.0044,-6.1615,-6.2257,-4.5586,-4.5568,-4.5531,-4.5586,-4.6855,-4.8105,-4.8105,0.0,0.0,0.0,0.0,0.0,0.0,-5.2094,0.0,0.0,0.0,0.0,-5.372,-5.399,-5.4014,-5.3463,-5.5299,0.0,-5.5831,-5.7134,-5.7997,-5.7997,-5.7997,-5.7997,-5.7997,-5.7997,-5.8168,-5.8586,-5.8969,-5.9571,-6.0313,-6.0361,-6.0389,-6.0389,-6.0389,-6.0389,-6.0389,-6.0389,-6.0389,-6.0389,-6.0389,0.0,-6.0389,-6.0389,-6.0389,-6.0389,-6.0389,-6.0389,-6.0389,-6.0389,-6.0389,-6.0389,-6.0389,-6.0389,-6.0389,-6.0389,-6.0389,-6.0389,-6.0389,-6.0389,-6.0389,-6.0389,-6.0389,-6.0389,-6.0389,-6.0389,-6.0389,-6.0389,-6.0389,-6.0389,-6.0389,-6.0389,-6.0389,-6.0389,-6.0389,-6.0389,-6.0389,-6.0389,-6.0389,-6.0389,-6.0389,-6.0389,-6.0389,-6.0389,-6.0389,-6.0389,-6.0389,-6.0389,-6.0389,-6.0389,-6.0389,-6.0389,-6.0389,-6.0389,-6.0389,-6.0285,-5.9906,-5.9196,-5.8369,-5.7904,-5.7792,-5.9353,-6.0008,-5.9859,-6.1405,-6.2114,-4.5586,-4.5586,-4.5586,-4.5586,-4.6855,-4.8105,-4.8105,0.0,0.0,0.0,0.0,0.0,0.0,-5.1926,-5.2221,0.0,0.0,-5.34,0.0,0.0,-5.3592,-5.4161,0.0,-5.5996,-5.6565,-5.7464,-5.7997,-5.7997,-5.7997,-5.7997,-5.7997,-5.7997,-5.8168,-5.8586,-5.8969,-5.9432,-5.9874,-6.0237,-6.0389,-6.0389,-6.0389,-6.0389,-6.0389,-6.0389,-6.0389,-6.0389,0.0,-6.0389,-6.0389,-6.0389,-6.0389,-6.0389,-6.0389,-6.0389,-6.0389,-6.0389,-6.0389,-6.0389,-6.0389,-6.0389,-6.0389,-6.0389,-6.0389,-6.0389,-6.0389,-6.0389,-6.0389,-6.0389,-6.0389,-6.0389,-6.0389,-6.0389,-6.0389,-6.0389,-6.0389,-6.0389,-6.0389,-6.0389,-6.0389,-6.0389,-6.0389,-6.0389,-6.0389,-6.0389,-6.0389,-6.0389,-6.0389,-6.0389,-6.0389,-6.0389,-6.0389,-6.0389,-6.0389,-6.0389,-6.0389,-6.0389,-6.0389,-6.0389,-6.0389,-6.0389,-6.0389,-5.9758,-5.9325,-5.9196,-5.8307,-5.7792,-5.7792,-5.9174,-5.9856,-5.9859,-6.1317,-6.2005,-4.5586,-4.5586,-4.5701,-4.6182,-4.7221,-4.8221,-4.8702,0.0,0.0,0.0,0.0,0.0,0.0,0.0,-5.2092,-5.3535,0.0,-5.3206,-5.3206,-5.3573,-5.383,0.0,0.0,-5.5739,-5.6106,-5.6877,-5.7538,-5.796,-5.7997,-5.7997,-5.7997,-5.7997,-5.807,-5.8257,-5.8669,-5.8969,-5.9159,-5.9758,-6.0159,-6.0389,-6.0389,-6.0389,-6.0389,-6.0389,-6.0389,-6.0389,0.0,-6.0389,-6.0389,-6.0389,-6.0389,-6.0389,-6.0389,-6.0389,-6.0389,-6.0389,-6.0389,-6.0389,-6.0389,-6.0389,-6.0389,-6.0389,-6.0389,-6.0389,-6.0389,-6.0389,-6.0389,-6.0389,-6.0389,-6.0389,-6.0389,-6.0389,-6.0389,-6.0389,-6.0389,-6.0389,-6.0389,-6.0389,-6.0389,-6.0389,-6.0389,-6.0389,-6.0389,-6.0389,-6.0389,-6.0389,-6.0389,-6.0389,-6.0389,-6.0389,-6.0389,-6.0389,-6.0389,-6.0389,-6.0389,-6.038,-6.038,-6.0389,-6.0389,-6.0389,-6.0389,-5.9553,-5.9103,-5.9103,-5.8157,-5.7649,-5.7601,-5.8637,-5.9335,-5.9738,-6.081,-6.1589,-4.5586,-4.5586,-4.5836,-4.6932,-4.7644,-4.8317,-4.9183,0.0,0.0,0.0,0.0,0.0,0.0,-5.2071,0.0,-5.3419,-5.3359,-5.3206,-5.3206,-5.3739,-5.3904,-5.328,-5.4454,-5.5372,-5.5574,-5.6326,-5.7134,-5.7941,-5.7997,-5.7997,-5.7997,-5.7997,-5.7997,-5.7997,-5.8412,-5.8586,-5.8586,-5.9306,-5.9874,-6.0266,-6.0342,-6.0389,-6.0389,-6.0389,-6.0389,-6.0389,-6.0389,-6.0389,-6.0389,-6.0389,-6.0389,-6.0389,-6.0389,-6.0389,-6.0389,-6.0389,-6.0389,-6.0389,-6.0389,-6.0389,-6.0389,-6.0389,-6.0389,-6.0389,-6.0389,-6.0389,-6.0389,-6.0389,-6.0389,-6.0389,-6.0389,-6.0389,-6.0389,-6.0389,-6.0389,-6.0389,-6.0389,-6.0389,-6.0389,-6.0389,-6.0389,-6.0389,-6.0389,-6.0389,-6.0389,-6.0389,-6.0389,-6.0389,-6.0389,-6.0389,-6.0389,-6.0389,-6.0389,-6.0389,-6.038,-6.0304,-6.0245,-6.0207,-6.0237,-6.0237,-6.0217,-5.934,-5.8854,-5.8796,-5.7978,-5.7486,-5.7388,-5.8173,-5.8921,-5.9633,-6.043,-6.1245,-4.5586,-4.5586,-4.599,-4.7605,-4.8067,0.0,-4.9105,-4.9786,0.0,-4.974,0.0,0.0,0.0,-5.2604,-5.3493,-5.3295,-5.3206,-5.3206,-5.3206,0.0,-5.328,-5.3225,-5.3959,-5.4785,-5.5519,-5.6326,-5.7134,-5.7941,-5.7997,-5.7997,-5.7997,-5.7997,-5.7997,-5.7997,-5.8412,-5.8586,-5.8586,-5.9008,-5.9432,-5.9842,-6.0207,-6.0389,-6.0389,-6.0389,-6.0389,-6.0389,-6.0389,-6.0389,-6.0389,-6.0389,-6.0389,-6.0389,-6.0389,-6.0389,-6.0389,-6.0389,-6.0389,-6.0389,-6.0389,-6.0389,-6.0389,-6.0389,-6.0389,-6.0389,-6.0389,-6.0389,-6.0389,-6.0389,-6.0389,-6.0389,-6.0389,-6.0389,-6.0389,-6.0389,-6.0389,-6.0389,-6.0389,-6.0389,-6.0389,-6.0389,-6.0389,-6.0389,-6.0389,-6.0389,-6.0389,-6.0389,-6.0389,-6.0389,-6.0389,-6.0389,-6.0389,-6.0389,-6.0389,-6.0361,-6.0294,-6.0197,-5.9956,-5.9605,-5.9758,-5.9791,-5.9668,-5.8893,-5.8363,-5.8277,-5.7719,-5.7406,-5.7388,-5.8054,-5.8818,-5.9633,-6.043,-6.1245,-4.5586,-4.5586,-4.5935,-4.7371,-4.779,0.0,0.0,-4.9883,-4.9838,-4.937,-4.9246,0.0,0.0,0.0,-5.3584,-5.323,-5.3206,-5.3206,-5.3206,-5.3206,-5.3206,-5.3206,-5.3482,-5.4179,-5.5464,-5.5868,-5.6583,-5.7886,-5.7997,-5.7997,-5.7997,-5.7997,-5.7997,-5.7997,-5.8142,-5.8231,-5.8231,-5.8628,-5.9008,-5.9432,-5.9823,-6.0159,-6.0389,-6.0389,-6.0389,-6.0389,-6.0389,-6.0389,-6.0389,-6.0389,-6.0389,-6.0389,-6.0389,-6.0389,-6.0389,-6.0389,-6.0389,-6.0389,-6.0389,-6.0389,-6.0389,-6.0389,-6.0389,-6.0389,-6.0389,-6.0389,-6.0389,-6.0389,-6.0389,-6.0389,-6.0389,-6.0389,-6.0389,-6.0389,-6.0389,-6.0389,-6.0389,-6.0389,-6.0389,-6.0389,-6.0389,-6.0389,-6.0389,-6.0389,-6.0389,-6.0389,-6.0389,-6.0389,-6.0389,-6.0159,-6.0019,-6.0019,-5.9739,-5.9518,-5.9451,-5.9359,-5.9232,-5.9008,-5.9413,-5.9465,-5.9121,-5.8512,-5.812,-5.8058,-5.7528,-5.7307,-5.7307,-5.7547,-5.8076,-5.8872,-5.9687,-6.0484,-4.5568,-4.5687,-4.607,0.0,0.0,0.0,-4.9424,-4.9655,-4.9502,-4.9085,-4.9381,0.0,0.0,0.0,0.0,0.0,-5.3206,-5.3206,-5.3206,-5.3206,-5.3206,-5.3206,-5.3206,-5.3739,-5.5078,-5.5207,-5.5886,-5.7501,-5.7611,-5.7721,-5.7997,-5.7997,-5.807,-5.8186,-5.8186,-5.8257,-5.8369,-5.8628,-5.9008,-5.9397,-5.9692,-6.0019,-6.0389,-6.0389,-6.0389,-6.0389,-6.0389,-6.0389,-6.0389,-6.0389,-6.0389,-6.0389,-6.0389,-6.0389,-6.0389,-6.0389,-6.0389,-6.0389,-6.0389,-6.0389,-6.0389,-6.0389,-6.0389,-6.0389,-6.0389,-6.0389,-6.0389,-6.0389,-6.0389,-6.0389,-6.0389,-6.0389,-6.0389,-6.0389,-6.0389,-6.0389,-6.0389,-6.0389,-6.0389,-6.0389,-6.0389,-6.0389,-6.0389,-6.0389,-6.0389,-6.0389,-6.0389,-6.0342,-6.0237,-5.9988,-5.9725,-5.9571,-5.9159,-5.8912,-5.8852,-5.8775,-5.8635,-5.8466,-5.8775,-5.8835,-5.8576,-5.8058,-5.7776,-5.7729,-5.7401,-5.7188,-5.7188,-5.7188,-5.7605,-5.842,-5.8963,-5.9796,-4.5495,-4.5833,-4.6411,0.0,0.0,0.0,-4.8729,-4.9048,-4.9118,-4.885,0.0,-5.0802,-5.0802,-5.2123,0.0,-5.3206,-5.3206,-5.3206,-5.3206,-5.3206,-5.3206,-5.3206,-5.3206,-5.3518,-5.4326,-5.4399,-5.506,-5.6675,-5.6804,-5.7152,-5.7941,-5.7978,-5.8168,-5.8586,-5.8586,-5.8791,-5.9215,-5.9215,-5.9397,-5.9791,-5.9791,-6.0019,-6.0389,-6.0389,-6.0389,-6.0389,-6.0389,-6.0389,-6.0389,-6.0389,-6.0389,-6.0389,-6.0389,-6.0389,-6.0389,-6.0389,-6.0389,-6.0389,-6.0389,-6.0389,-6.0389,-6.0389,-6.0389,-6.0389,-6.0389,-6.0389,-6.0389,-6.0389,-6.0389,-6.0389,-6.0389,-6.0389,-6.0389,-6.0389,-6.0389,-6.0389,-6.0389,-6.0389,-6.0389,-6.0389,-6.0389,-6.0389,-6.0389,-6.0389,-6.0389,-6.0389,-6.0389,-6.0237,-5.9823,-5.9791,-5.9587,-5.9046,-5.8814,-5.8694,-5.8694,-5.8609,-5.8375,-5.7905,-5.7905,-5.7932,-5.7986,-5.7594,-5.7356,-5.7188,-5.7188,-5.7188,-5.7188,-5.7188,-5.7605,-5.8402,-5.8402,-5.9253,-4.4962,-4.5456,0.0,-4.6599,0.0,0.0,0.0,-4.8623,0.0,0.0,-5.0118,-5.1139,-5.1157,-5.249,0.0,-5.3248,-5.3206,-5.3206,-5.3206,-5.3206,-5.3272,-5.3524,-5.3545,-5.3977,-5.5063,-5.5175,-5.5622,-5.6667,-5.6741,-5.7096,-5.7898,-5.7935,-5.8293,-5.8989,-5.9008,-5.9084,-5.9215,-5.9215,-5.9397,-5.9791,-5.9791,-6.0019,-6.0389,-6.0389,-6.0389,-6.0389,-6.0389,-6.0389,-6.0389,-6.0389,-6.0389,-6.0389,-6.0389,-6.0389,-6.0389,-6.0389,-6.0389,-6.0389,-6.0389,-6.0389,-6.0389,-6.0389,-6.0389,-6.0389,-6.0389,-6.0389,-6.0389,-6.0389,-6.0389,-6.0389,-6.0389,-6.0389,-6.0389,-6.0389,-6.0389,-6.0389,-6.0389,-6.0389,-6.0389,-6.0389,-6.0389,-6.0389,-6.0389,-6.0389,-6.0389,-6.0389,-6.0389,-6.0129,-5.9323,-5.897,-5.8613,-5.8068,-5.7905,-5.7812,-5.7812,-5.7671,-5.7546,-5.7419,-5.7419,-5.7419,-5.7449,-5.732,-5.7239,-5.7188,-5.7188,-5.7188,-5.7188,-5.7188,-5.7315,-5.7569,-5.8148,-5.8655,-4.4624,-4.5339,0.0,-4.6331,-4.7203,-4.8048,-4.8254,0.0,0.0,0.0,0.0,-5.1286,-5.1287,-5.2605,0.0,-5.323,-5.3206,-5.3206,-5.3206,-5.3206,-5.3336,-5.3643,-5.372,-5.4056,-5.4921,-5.5028,-5.535,-5.6157,-5.6213,-5.657,-5.7377,-5.7414,-5.773,-5.8434,-5.8754,-5.8993,-5.9148,-5.9521,-5.9791,-6.0019,-6.0019,-6.0178,-6.0389,-6.0389,-6.0389,-6.0389,-6.0389,-6.0389,-6.0389,-6.0389,-6.0389,-6.0389,-6.0389,-6.0389,-6.0389,-6.0389,-6.0389,-6.0389,-6.0389,-6.0389,-6.0389,-6.0389,-6.0389,-6.0389,-6.0389,-6.0389,-6.0389,-6.0389,-6.0389,-6.0389,-6.0389,-6.0389,-6.0389,-6.0389,-6.0389,-6.0389,-6.0389,-6.0389,-6.0389,-6.0389,-6.0389,-6.0389,-6.0361,-6.0352,-6.0332,-6.0285,-6.0019,-5.9518,-5.8775,-5.8295,-5.7905,-5.7534,-5.7388,-5.7289,-5.7289,-5.7257,-5.7188,-5.7188,-5.7188,-5.7188,-5.7188,-5.7188,-5.7188,-5.7188,-5.7188,-5.7188,-5.7188,-5.7188,-5.7188,-5.7206,-5.7695,-5.8094,-4.4532,0.0,0.0,-4.6465,-4.737,0.0,-4.8306,-4.8344,-4.8421,-4.8781,0.0,-5.134,-5.1413,-5.2735,-5.3682,-5.3336,-5.3314,-5.3314,-5.3314,-5.3314,-5.344,-5.3758,-5.3814,-5.3961,-5.4364,-5.4416,-5.4717,-5.5435,-5.5491,-5.583,-5.6657,-5.6694,-5.687,-5.7327,-5.806,-5.8631,-5.8994,-5.9778,-6.0198,-6.0274,-6.0274,-6.0313,-6.0389,-6.0389,-6.0389,-6.0389,-6.0389,-6.0389,-6.0389,-6.0389,-6.0389,-6.0389,-6.0389,-6.0389,-6.0389,-6.0389,-6.0389,-6.0389,-6.0389,-6.0389,-6.0389,-6.0389,-6.0389,-6.0389,-6.0389,-6.0389,-6.0389,-6.0389,-6.0389,-6.0389,-6.0389,-6.0389,-6.0389,-6.0389,-6.0389,-6.0389,-6.0389,-6.0389,-6.0389,-6.0389,-6.0389,-6.0361,-6.0313,-6.0313,-6.0216,-6.0068,-5.9342,-5.8691,-5.8252,-5.7719,-5.7406,-5.7388,-5.7289,-5.7188,-5.7188,-5.7188,-5.7188,-5.7188,-5.7188,-5.7188,-5.7188,-5.7188,-5.7188,-5.7188,-5.7188,-5.7188,-5.7188,-5.7188,-5.7188,-5.7188,-5.7188,-5.7587,-4.4619,-4.5445,0.0,0.0,-4.7628,-4.8306,-4.8306,-4.8495,-4.8781,-4.9113,-5.052,-5.178,-5.2039,-5.344,-5.4444,-5.4142,-5.4071,-5.4071,-5.4071,-5.4071,-5.4193,-5.4541,-5.4572,-5.4716,-5.5132,-5.5159,-5.5236,-5.5426,-5.5426,-5.5769,-5.6587,-5.6625,-5.6977,-5.7739,-5.7929,-5.808,-5.8154,-5.8345,-5.8746,-5.9376,-5.9376,-5.9739,-6.0389,-6.0389,-6.0389,-6.0389,-6.0389,-6.0389,-6.0389,-6.0389,-6.0389,-6.0389,-6.0389,-6.0389,-6.0389,-6.0389,-6.0389,-6.0389,-6.0389,-6.0389,-6.0389,-6.0389,-6.0389,-6.0389,-6.0389,-6.0389,-6.0389,-6.0389,-6.0389,-6.0389,-6.0389,-6.0389,-6.0389,-6.0389,-6.0389,-6.0389,-6.0389,-6.0389,-6.0389,-6.0389,-6.0352,-6.0342,-6.0313,-6.0216,-6.0038,-5.9673,-5.8893,-5.8277,-5.8058,-5.7671,-5.7338,-5.7239,-5.7206,-5.7188,-5.7188,-5.7188,-5.7188,-5.7188,-5.7188,-5.7188,-5.7188,-5.7188,-5.7188,-5.7188,-5.7188,-5.7188,-5.7188,-5.7188,-5.7188,-5.7188,-5.7188,-5.7279,-4.4575,0.0,0.0,-4.7853,0.0,-4.8586,-4.8728,-4.8816,-4.8934,-4.9453,-5.0862,-5.2092,-5.2276,-5.3688,-5.4685,-5.4364,-5.4315,-5.4315,-5.4315,-5.4315,-5.443,-5.4746,-5.4806,-5.4962,-5.5358,-5.5403,-5.5403,-5.5403,-5.5403,-5.5575,-5.5995,-5.6033,-5.6224,-5.6683,-5.7084,-5.7275,-5.7275,-5.7695,-5.8116,-5.8536,-5.8536,-5.8765,-5.9224,-6.0026,-6.0389,-6.0389,-6.0389,-6.0389,-6.0389,-6.0389,-6.0389,-6.0389,-6.0389,-6.0389,-6.0389,-6.0389,-6.0389,-6.0389,-6.0389,-6.0389,-6.0389,-6.0389,-6.0389,-6.0389,-6.0389,-6.0389,-6.0389,-6.0389,-6.038,-6.0352,-6.0352,-6.0304,-6.0256,-6.0256,-6.0313,-6.0389,-6.0389,-6.0361,-6.0352,-6.0352,-6.0275,-6.0167,-6.0156,-5.9912,-5.9467,-5.8814,-5.8338,-5.7959,-5.7653,-5.7401,-5.7307,-5.7206,-5.7188,-5.7188,-5.7188,-5.7188,-5.7188,-5.7188,-5.7188,-5.7188,-5.7188,-5.7188,-5.7188,-5.7188,-5.7188,-5.7188,-5.7188,-5.7188,-5.7188,-5.7188,-5.7188,-5.7188,-4.469,0.0,-4.7125,-4.8808,-4.9001,0.0,-4.9221,-4.9145,-4.9113,-4.9674,-5.1016,-5.2163,-5.2342,-5.3632,-5.4655,-5.4528,-5.4482,-5.4482,-5.4482,-5.4482,-5.461,-5.4855,-5.4914,-5.5038,-5.5377,-5.5403,-5.5403,-5.5403,-5.5403,-5.5403,-5.5403,-5.5403,-5.5403,-5.5403,-5.6052,-5.6377,-5.6377,-5.7103,-5.7542,-5.7676,-5.7829,-5.7905,-5.7944,-5.9338,-6.0026,-6.0179,-6.0332,-6.0389,-6.0389,-6.0389,-6.0389,-6.0389,-6.0389,-6.0389,-6.0389,-6.0389,-6.0389,-6.0389,-6.0389,-6.0389,-6.0389,-6.0389,-6.0389,-6.0389,-6.0389,-6.0389,-6.0389,-6.0389,-6.0323,-6.0264,-6.0264,-6.0167,-6.0099,-6.0099,-6.0226,-6.0361,-6.0361,-6.0304,-6.0264,-6.0264,-6.0087,-5.9925,-5.9796,-5.9325,-5.8713,-5.7996,-5.7812,-5.7642,-5.7239,-5.7188,-5.7188,-5.7188,-5.7188,-5.7188,-5.7188,-5.7188,-5.7188,-5.7188,-5.7188,-5.7188,-5.7188,-5.7188,-5.7188,-5.7188,-5.7188,-5.7188,-5.7188,-5.7188,-5.7188,-5.7188,-5.7188,-5.7188,0.0,0.0,-4.82,0.0,-4.8832,-4.89,0.0,0.0,-4.9702,0.0,-5.058,-5.1554,-5.2533,-5.3538,-5.4428,-5.5145,-5.526,-5.526,-5.526,-5.526,-5.526,-5.5332,-5.5332,-5.5332,-5.5403,-5.5403,-5.5403,-5.5403,-5.5403,-5.5403,-5.5403,-5.5403,-5.5403,-5.5403,-5.5498,-5.5556,-5.5556,-5.5689,-5.6091,-5.6778,-5.7542,-5.7905,-5.7905,-5.8135,-5.8612,-5.9319,-6.0064,-6.0389,-6.0389,-6.0389,-6.0389,-6.0389,-6.0389,-6.0389,-6.0389,-6.0389,-6.0389,-6.0389,-6.0389,-6.0389,-6.0389,-6.0389,-6.0389,-6.0389,-6.0389,-6.0352,-6.0294,-6.0294,-6.0216,-6.0118,-6.0118,-6.0118,-6.0099,-6.0099,-6.0099,-6.0148,-6.0148,-6.0148,-6.0118,-6.0118,-5.9796,-5.9344,-5.887,-5.84,-5.8023,-5.7905,-5.7546,-5.7289,-5.7206,-5.7188,-5.7188,-5.7188,-5.7188,-5.7188,-5.7188,-5.7188,-5.7188,-5.7188,-5.7188,-5.7188,-5.7188,-5.7188,-5.7188,-5.7188,-5.7188,-5.7188,-5.7188,-5.7188,-5.7188,-5.7188,-5.7188,-5.7188,-4.6463,-4.7699,-4.864,0.0,-4.8934,-4.89,-4.9221,0.0,-4.957,-4.9757,-5.0259,-5.1097,-5.2532,-5.3511,-5.439,-5.5269,-5.5403,-5.5403,-5.5403,-5.5403,-5.5403,-5.5403,-5.5403,-5.5403,-5.5403,-5.5403,-5.5403,-5.5403,-5.5403,-5.5403,-5.5403,-5.5403,-5.5403,-5.5403,-5.5403,-5.5403,-5.5403,-5.5403,-5.5575,-5.5938,-5.632,-5.6511,-5.6511,-5.6969,-5.7619,-5.8459,-5.8822,-5.9262,-5.9663,-5.9663,-5.995,-6.0389,-6.0389,-6.0389,-6.0389,-6.0389,-6.0389,-6.0389,-6.0389,-6.0389,-6.0389,-6.0389,-6.0389,-6.0389,-6.0352,-6.0323,-6.0264,-6.0216,-6.0137,-6.0057,-6.0057,-6.0026,-5.9994,-5.9994,-5.9994,-5.9994,-5.9994,-6.0026,-5.9944,-5.9658,-5.9451,-5.9065,-5.8332,-5.8041,-5.7812,-5.7565,-5.732,-5.7188,-5.7188,-5.7188,-5.7188,-5.7188,-5.7188,-5.7188,-5.7188,-5.7188,-5.7188,-5.7188,-5.7188,-5.7188,-5.7188,-5.7188,-5.7188,-5.7188,-5.7188,-5.7188,-5.7188,-5.7188,-5.7188,-5.7188,-5.7188,-5.7188,0.0,0.0,-4.8746,-4.908,-4.8982,-4.89,0.0,0.0,-4.9512,0.0,-5.0076,-5.0741,-5.2212,-5.3187,-5.4123,-5.5231,-5.5403,-5.5403,-5.5403,-5.5403,-5.5403,-5.5403,-5.5403,-5.5403,-5.5403,-5.5403,-5.5403,-5.5403,-5.5403,-5.5403,-5.5403,-5.5403,-5.5403,-5.5403,-5.5403,-5.5403,-5.5403,-5.5403,-5.5403,-5.5403,-5.5403,-5.5403,-5.5422,-5.6014,-5.6645,-5.7294,-5.7714,-5.8249,-5.8803,-5.8803,-5.93,-6.0064,-6.0064,-6.0198,-6.0389,-6.0285,-6.0237,-6.0237,-6.0129,-6.0159,-6.0237,-6.0237,-6.0332,-6.038,-6.0313,-6.0264,-6.0186,-6.0087,-6.0026,-5.9963,-5.9963,-5.995,-5.9885,-5.9767,-5.9715,-5.9715,-5.9715,-5.9782,-5.959,-5.9008,-5.8872,-5.8632,-5.7859,-5.7737,-5.7594,-5.7239,-5.7188,-5.7188,-5.7188,-5.7188,-5.7188,-5.7188,-5.7188,-5.7188,-5.7188,-5.7188,-5.7188,-5.7188,-5.7188,-5.7188,-5.7188,-5.7188,-5.7188,-5.7188,-5.7188,-5.7188,-5.7188,-5.7188,-5.7188,-5.7188,-5.7188,-5.7188,0.0,-4.8307,0.0,-4.8746,-4.8816,0.0,0.0,0.0,-4.9757,-4.9803,-5.0076,-5.0588,-5.1486,-5.2327,-5.3416,-5.5116,-5.5403,-5.5403,-5.5403,-5.5403,-5.5403,-5.5403,-5.5403,-5.5403,-5.5403,-5.5403,-5.5403,-5.5403,-5.5403,-5.5403,-5.5403,-5.5403,-5.5403,-5.5403,-5.5403,-5.5403,-5.5403,-5.5403,-5.5403,-5.5403,-5.5403,-5.5403,-5.5403,-5.5441,-5.5498,-5.5632,-5.7218,-5.7925,-5.7963,-5.7963,-5.844,-5.9185,-5.9185,-5.9663,-6.0342,-5.9988,-5.9842,-5.9758,-5.9378,-5.9502,-5.9842,-5.9842,-6.0057,-6.0294,-6.0313,-6.0156,-5.9994,-5.9994,-5.995,-5.9885,-5.9885,-5.9885,-5.9801,-5.9325,-5.9252,-5.9252,-5.9252,-5.9252,-5.9008,-5.8157,-5.7951,-5.7812,-5.732,-5.7239,-5.7239,-5.7188,-5.7188,-5.7188,-5.7188,-5.7188,-5.7188,-5.7188,-5.7188,-5.7188,-5.7188,-5.7188,-5.7188,-5.7188,-5.7188,-5.7188,-5.7188,-5.7188,-5.7188,-5.7188,-5.7188,-5.7188,-5.7188,-5.7188,-5.7188,-5.7188,-5.7188,-5.7188,0.0,0.0,0.0,-4.8458,-4.8458,-4.8532,-4.864,-4.8934,-4.9145,-4.9145,-4.9589,-5.0247,-5.1121,-5.2113,-5.3187,-5.4371,-5.504,-5.5403,-5.5403,-5.5403,-5.5403,-5.5403,-5.5403,-5.5358,-5.5294,-5.5275,-5.5275,-5.5275,-5.5275,-5.5313,-5.5403,-5.5403,-5.5403,-5.5403,-5.5403,-5.5403,-5.5403,-5.5403,-5.5403,-5.5403,-5.5403,-5.5403,-5.5403,-5.5403,-5.5403,-5.5441,-5.6033,-5.6587,-5.7065,-5.7065,-5.7562,-5.8383,-5.8899,-5.915,-5.9209,-5.9633,-5.9658,-5.9378,-5.914,-5.9178,-5.9323,-5.9537,-5.9465,-5.943,-5.9944,-5.9677,-5.9233,-5.9451,-5.9289,-5.9083,-5.9083,-5.9083,-5.9026,-5.8852,-5.8812,-5.8732,-5.8442,-5.8609,-5.8609,-5.8041,-5.7905,-5.7737,-5.7289,-5.7188,-5.7188,-5.7188,-5.7188,-5.7188,-5.7188,-5.7188,-5.7188,-5.7188,-5.7188,-5.7188,-5.7188,-5.7188,-5.7188,-5.7188,-5.7188,-5.7188,-5.7188,-5.7188,-5.7188,-5.7188,-5.7188,-5.7188,-5.7188,-5.7188,-5.7188,-5.7188,-5.7188,-5.7188,-4.8159,0.0,0.0,0.0,0.0,-4.8306,-4.8306,-4.8569,-4.8816,-4.8816,-4.924,-4.9939,-5.0921,-5.1939,-5.2952,-5.3926,-5.483,-5.5403,-5.5403,-5.5403,-5.5403,-5.5403,-5.5403,-5.5358,-5.5229,-5.5183,-5.5183,-5.5176,-5.5203,0.0,-5.5339,-5.5377,-5.5403,-5.5403,-5.5403,-5.5403,-5.5403,-5.5358,-5.5339,-5.5339,-5.5313,-5.5286,-5.5286,-5.5286,-5.5286,-5.5286,-5.5286,-5.5637,-5.6205,-5.6205,-5.6702,-5.7542,-5.8234,-5.8448,-5.8513,-5.9163,-5.9178,-5.8833,-5.8673,-5.8673,-5.8775,-5.9008,-5.8913,-5.8874,-5.9413,-5.914,-5.8713,-5.893,-5.8831,-5.8586,-5.8586,-5.8503,-5.8375,-5.8375,-5.8245,-5.8023,-5.7719,-5.8023,-5.8245,-5.7784,-5.769,-5.7546,-5.7239,-5.7188,-5.7188,-5.7188,-5.7188,-5.7188,-5.7188,-5.7188,-5.7188,-5.7188,-5.7188,-5.7188,-5.7188,-5.7188,-5.7188,-5.7188,-5.7188,-5.7188,-5.7188,-5.7188,-5.7188,-5.7188,-5.7188,-5.7188,-5.7188,-5.7188,-5.7188,-5.7188,-5.7188,-5.7188,0.0,0.0,0.0,0.0,0.0,0.0,-4.8306,0.0,-4.8781,-4.8781,-4.9048,-4.9657,-5.0866,-5.1736,-5.2674,-5.39,-5.483,-5.5403,-5.5403,-5.5403,-5.5403,-5.5403,-5.5403,-5.5339,-5.5203,-5.5203,-5.5176,-5.5094,-5.5176,-5.5183,-5.5203,-5.5313,-5.5403,-5.5403,-5.5403,-5.5403,-5.5403,-5.5248,-5.5183,-5.5183,-5.5102,-5.5066,-5.5047,-5.5047,-5.5047,-5.5047,-5.5047,-5.5187,-5.5377,-5.5377,-5.5816,-5.6572,-5.7059,-5.7648,-5.8272,-5.8497,-5.8381,-5.8139,-5.7867,-5.7969,-5.8183,-5.8183,-5.8424,-5.8654,-5.8694,-5.8632,-5.8545,-5.8586,-5.8586,-5.8545,-5.8545,-5.8201,-5.7859,-5.7859,-5.7546,-5.7188,-5.7188,-5.7546,-5.7719,-5.7289,-5.7188,-5.7188,-5.7188,-5.7188,-5.7188,-5.7188,-5.7188,-5.7188,-5.7188,-5.7188,-5.7188,-5.7188,-5.7188,-5.7188,-5.7188,-5.7188,-5.7188,-5.7188,-5.7188,-5.7188,-5.7188,-5.7188,-5.7188,-5.7188,-5.7188,-5.7188,-5.7188,-5.7188,-5.7188,-5.7188,-5.7188,-5.7188,-4.8306,0.0,0.0,0.0,0.0,0.0,0.0,0.0,-4.8439,-4.8439,-4.8711,-4.921,-5.0131,-5.1204,-5.2333,-5.3519,-5.468,-5.5358,-5.5275,-5.5339,-5.5358,-5.5267,-5.5248,-5.5222,-5.5149,-5.5066,-5.5057,0.0,-5.5038,-5.5066,-5.5121,-5.5222,-5.5248,-5.5248,-5.5248,-5.5248,-5.5248,-5.5176,-5.4971,-5.4708,-5.4678,-5.4503,-5.4236,-5.4236,-5.4236,-5.4236,-5.4236,-5.427,-5.4355,-5.4616,-5.489,-5.5144,-5.5582,-5.607,-5.6565,-5.7196,-5.7553,-5.7755,-5.7583,-5.7583,-5.7642,-5.7886,-5.7812,-5.7747,-5.8442,-5.8139,-5.7671,-5.7996,-5.7859,-5.7594,-5.7594,-5.7498,-5.737,-5.737,-5.7289,-5.7188,-5.7188,-5.7289,-5.7388,-5.7257,-5.7188,-5.7188,-5.7188,-5.7188,-5.7188,-5.7188,-5.7188,-5.7188,-5.7188,-5.7188,-5.7188,-5.7188,-5.7188,-5.7188,-5.7188,-5.7188,-5.7188,-5.7188,-5.7188,-5.7188,-5.7188,-5.7188,-5.7188,-5.7188,-5.7188,-5.7188,-5.7188,-5.7188,-5.7188,-5.7188,-5.7188,-5.7188,-4.8306,-4.8306,-4.8306,-4.8306,0.0,0.0,-4.8306,-4.8306,-4.8306,0.0,-4.8734,-4.9399,-5.0359,-5.1391,-5.2454,-5.3628,-5.4413,-5.4943,-5.5157,-5.5222,-5.5241,-5.5176,-5.5176,-5.5121,-5.5066,-5.5028,-5.5,-5.4941,-5.4971,-5.5028,-5.5094,-5.5149,-5.5176,-5.5176,-5.5176,-5.5075,-5.4905,-5.4836,-5.4604,-5.4221,-5.4187,-5.4048,-5.3832,-5.3832,-5.3832,-5.3832,-5.3832,-5.3832,-5.3832,-5.3905,-5.4048,-5.4296,-5.4764,-5.5273,-5.5791,-5.6515,-5.7042,-5.7455,-5.7406,-5.7338,-5.7338,-5.7546,-5.7419,-5.727,-5.7859,-5.7624,-5.7239,-5.7546,-5.7419,-5.7188,-5.7188,-5.7188,-5.7188,-5.7188,-5.7188,-5.7188,-5.7188,-5.7188,-5.7188,-5.7188,-5.7188,-5.7188,-5.7188,-5.7188,-5.7188,-5.7188,-5.7188,-5.7188,-5.7188,-5.7188,-5.7188,-5.7188,-5.7188,-5.7188,-5.7188,-5.7188,-5.7188,-5.7188,-5.7188,-5.7188,-5.7188,-5.7188,-5.7188,-5.7188,-5.7188,-5.7188,-5.7188,-5.7188,-5.7188,-5.7188,-5.7188,-5.7188,-4.8306,-4.8306,-4.8306,-4.8306,-4.8306,0.0,-4.8306,-4.8306,-4.8343,0.0,-4.9003,-4.9892,-5.112,-5.1937,-5.2791,-5.3865,-5.4032,-5.4274,-5.5028,-5.5075,-5.5066,-5.5094,-5.5094,-5.5085,-5.5,-5.5,-5.4971,-5.4901,-5.496,-5.5028,-5.5066,-5.5038,-5.5019,-5.5019,-5.499,-5.4787,-5.4439,-5.4359,-5.4102,-5.374,-5.3644,-5.3606,-5.3586,-5.3586,-5.3586,-5.3586,-5.3586,-5.3586,-5.3547,-5.3162,-5.333,-5.3851,-5.4205,-5.4865,-5.5574,-5.6071,-5.6625,-5.7206,-5.7356,-5.7289,-5.7188,-5.7188,-5.7188,-5.7188,-5.7188,-5.7188,-5.7188,-5.7188,-5.7188,-5.7188,-5.7188,-5.7188,-5.7188,-5.7188,-5.7188,-5.7188,-5.7188,-5.7188,-5.7188,-5.7188,-5.7188,-5.7188,-5.7188,-5.7188,-5.7188,-5.7188,-5.7188,-5.7188,-5.7188,-5.7188,-5.7188,-5.7188,-5.7188,-5.7188,-5.7188,-5.7188,-5.7188,-5.7188,-5.7188,-5.7188,-5.7188,-5.7188,-5.7188,-5.7188,-5.7188,-5.7188,-5.7188,-5.7188,-5.7188,-5.7188,-5.7188,-5.7188,-4.8286,-4.8306,-4.8306,-4.8306,-4.8306,0.0,-4.8306,-4.8306,-4.8508,0.0,-4.9462,-5.0013,-5.1444,-5.1848,-5.2302,-5.3439,-5.3508,-5.3701,-5.4458,-5.4585,-5.4727,-5.4981,-5.5028,-5.5028,-5.5,-5.4941,-5.4901,-5.4901,-5.4901,-5.4931,-5.4931,-5.4673,-5.4541,-5.4541,-5.4206,-5.4032,-5.3941,-5.3851,-5.3644,-5.3244,-5.3244,-5.3054,-5.2717,-5.2717,-5.2717,-5.2717,-5.2717,-5.2717,-5.2717,-5.2645,-5.2857,-5.3244,-5.2996,-5.3771,-5.5032,-5.5148,-5.6042,-5.7188,-5.7257,-5.7188,-5.7188,-5.7188,-5.7188,-5.7188,-5.7188,-5.7188,-5.7188,-5.7188,-5.7188,-5.7188,-5.7188,-5.7188,-5.7188,-5.7188,-5.7188,-5.7188,-5.7188,-5.7188,-5.7188,-5.7188,-5.7188,-5.7188,-5.7188,-5.7188,-5.7188,-5.7188,-5.7188,-5.7188,-5.7188,-5.7188,-5.7188,-5.7188,-5.7188,-5.7188,-5.7188,-5.7188,-5.7188,-5.7188,-5.7188,-5.7188,-5.7188,-5.7188,-5.7188,-5.7188,-5.7188,-5.7188,-5.7188,-5.7188,-5.7188,-5.7188,-5.7188,-5.7188,-4.8247,-4.8267,-4.8306,-4.8306,-4.8267,0.0,0.0,-4.8909,-4.9108,-5.0013,-5.0468,-5.0941,-5.1663,-5.2096,-5.2462,-5.2962,-5.2993,-5.3138,-5.3683,-5.4121,-5.4528,-5.4912,-5.4773,-5.4661,-5.4661,-5.4629,-5.468,-5.4871,-5.4711,-5.4597,-5.4597,-5.4243,-5.405,-5.405,-5.387,-5.3626,-5.345,-5.3428,-5.3203,-5.2787,-5.2787,-5.269,-5.2498,-5.2498,-5.2498,-5.2498,-5.2498,-5.2498,-5.2498,-5.2498,-5.2599,-5.2806,-5.2572,-5.3476,-5.4907,-5.4907,-5.5884,-5.7188,-5.7188,-5.7188,-5.7188,-5.7188,-5.7188,-5.7188,-5.7188,-5.7188,-5.7188,-5.7188,-5.7188,-5.7188,-5.7188,-5.7188,-5.7188,-5.7188,-5.7188,-5.7188,-5.7188,-5.7188,-5.7188,-5.7188,-5.7188,-5.7188,-5.7188,-5.7188,-5.7188,-5.7188,-5.7188,-5.7188,-5.7188,-5.7188,-5.7188,-5.7188,-5.7188,-5.7188,-5.7188,-5.7188,-5.7188,-5.7188,-5.7188,-5.7188,-5.7188,-5.7188,-5.7188,-5.7188,-5.7188,-5.7188,-5.7188,-5.7188,-5.7188,-5.7188,-5.7188,-5.7188,-4.8148,-4.8318,-4.8467,-4.8467,-4.8556,-4.8828,0.0,0.0,0.0,-5.0776,-5.1394,-5.1804,-5.1907,0.0,0.0,-5.2409,0.0,0.0,0.0,-5.357,0.0,-5.4629,-5.4449,-5.4262,-5.4193,-5.4043,-5.4161,-5.4629,-5.4232,-5.4024,-5.4193,-5.3796,-5.3567,-5.3567,-5.3508,-5.3308,-5.2987,-5.2969,-5.2831,-5.2498,-5.2498,-5.2498,-5.2498,-5.2498,-5.2498,-5.2498,-5.2498,-5.2498,-5.2498,-5.2498,-5.2498,-5.2498,-5.2498,-5.3385,-5.4689,-5.4852,-5.5776,-5.6989,-5.7152,-5.7188,-5.7188,-5.7188,-5.7188,-5.7188,-5.7188,-5.7188,-5.7188,-5.7188,-5.7188,-5.7188,-5.7188,-5.7188,-5.7188,-5.7188,-5.7188,-5.7188,-5.7188,-5.7188,-5.7188,-5.7188,-5.7188,-5.7188,-5.7188,-5.7188,-5.7188,-5.7188,-5.7188,-5.7188,-5.7188,-5.7188,-5.7188,-5.7188,-5.7188,-5.7188,-5.7188,-5.7188,-5.7188,-5.7188,-5.7188,-5.7188,-5.7188,-5.7188,-5.7188,-5.7188,-5.7188,-5.7188,-5.7188,-5.7188,-5.7188,-5.7188,-5.7188,-5.7188,-4.801,-4.8561,-4.9109,-4.9109,-4.9615,-5.018,-5.0253,0.0,-5.0508,-5.1353,0.0,-5.1821,-5.2381,0.0,0.0,0.0,0.0,0.0,-5.2242,-5.2803,-5.3407,-5.3796,-5.4104,-5.4158,-5.3796,-5.3107,-5.3032,-5.3777,-5.3125,-5.3014,-5.3721,-5.3388,-5.3162,-5.3162,-5.2831,-5.2599,-5.2572,-5.2572,-5.2544,-5.2498,-5.2498,-5.2498,-5.2498,-5.2498,-5.2498,-5.2498,-5.2498,-5.2498,-5.2498,-5.2498,-5.2498,-5.2498,-5.2498,-5.3041,-5.3929,-5.4653,-5.5414,-5.6228,-5.6953,-5.7188,-5.7188,-5.7188,-5.7188,-5.7188,-5.7188,-5.7188,-5.7188,-5.7188,-5.7188,-5.7188,-5.7188,-5.7188,-5.7188,-5.7188,-5.7188,-5.7188,-5.7188,-5.7188,-5.7188,-5.7188,-5.7188,-5.7188,-5.7188,-5.7188,-5.7188,-5.7188,-5.7188,-5.7188,-5.7188,-5.7188,-5.7188,-5.7188,-5.7188,-5.7188,-5.7188,-5.7188,-5.7188,-5.7188,-5.7188,-5.7188,-5.7188,-5.7188,-5.7188,-5.7188,-5.7188,-5.7188,-5.7188,-5.7188,-5.7188,-5.7188,-5.7188,-5.7188,-4.9252,-4.9591,-4.9906,-4.9906,-5.0101,-5.0441,-5.0958,-5.1085,-5.1279,-5.2149,0.0,0.0,0.0,0.0,0.0,0.0,-5.2327,-5.2463,0.0,0.0,-5.2987,-5.3606,0.0,0.0,-5.3348,-5.261,-5.258,-5.3627,-5.2749,-5.2499,-5.3311,-5.2987,-5.2761,-5.2761,-5.2572,-5.2498,-5.2498,-5.2498,-5.2498,-5.2498,-5.2498,-5.2498,-5.2498,-5.2498,-5.2498,-5.2498,-5.2498,-5.2498,-5.2498,-5.2498,-5.2498,-5.2498,-5.2498,-5.2987,-5.3802,-5.4599,-5.5377,-5.612,-5.6917,-5.7188,-5.7188,-5.7188,-5.7188,-5.7188,-5.7188,-5.7188,-5.7188,-5.7188,-5.7188,-5.7188,-5.7188,-5.7188,-5.7188,-5.7188,-5.7188,-5.7188,-5.7188,-5.7188,-5.7188,-5.7188,-5.7188,-5.7188,-5.7188,-5.7188,-5.7188,-5.7188,-5.7188,-5.7188,-5.7188,-5.7188,-5.7188,-5.7188,-5.7188,-5.7188,-5.7188,-5.7188,-5.7188,-5.7188,-5.7188,-5.7188,-5.7188,-5.7188,-5.7188,-5.7188,-5.7188,-5.7188,-5.7188,-5.7188,-5.7188,-5.7188,-5.7188,-5.7188,-5.0185,-5.0391,-5.0678,-5.0678,-5.0737,-5.1002,-5.1671,-5.1791,-5.1928,-5.2581,-5.2627,0.0,0.0,0.0,0.0,0.0,0.0,-5.2426,0.0,-5.2353,0.0,0.0,0.0,0.0,0.0,-5.2077,-5.1935,-5.3274,-5.2165,-5.1846,-5.2889,-5.2645,-5.2498,-5.2498,-5.2498,-5.2498,-5.2498,-5.2498,-5.2498,-5.2498,-5.2498,-5.2498,-5.2498,-5.2498,-5.2498,-5.2498,-5.2498,-5.2498,-5.2498,-5.2498,-5.2498,-5.2498,-5.2498,-5.286,-5.3494,-5.4526,-5.5233,-5.583,-5.6844,-5.7188,-5.7188,-5.7188,-5.7188,-5.7188,-5.7188,-5.7188,-5.7188,-5.7188,-5.7188,-5.7188,-5.7188,-5.7188,-5.7188,-5.7188,-5.7188,-5.7188,-5.7188,-5.7188,-5.7188,-5.7188,-5.7188,-5.7188,-5.7188,-5.7188,-5.7188,-5.7188,-5.7188,-5.7188,-5.7188,-5.7188,-5.7188,-5.7188,-5.7188,-5.7188,-5.7188,-5.7188,-5.7188,-5.7188,-5.7188,-5.7188,-5.7188,-5.7188,-5.7188,-5.7188,-5.7188,-5.7188,-5.7188,-5.7188,-5.7188,-5.7188,-5.7188,-5.7188,0.0,0.0,0.0,-5.1249,0.0,0.0,0.0,0.0,-5.2462,0.0,0.0,-5.2498,-5.2498,0.0,0.0,0.0,0.0,0.0,0.0,0.0,-5.2498,-5.2544,0.0,0.0,0.0,-5.1322,-5.0822,-5.2417,-5.1058,-5.0859,-5.2454,-5.2498,-5.2498,-5.2498,-5.2498,-5.2498,-5.2498,-5.2498,-5.2498,-5.2498,-5.2498,-5.2498,-5.2498,-5.2498,-5.2498,-5.2498,-5.2498,-5.2498,-5.2498,-5.2498,-5.2498,-5.2498,-5.2498,-5.2516,-5.2733,-5.4327,-5.4925,-5.516,-5.6663,-5.7188,-5.7188,-5.7188,-5.7188,-5.7188,-5.7188,-5.7188,-5.7188,-5.7188,-5.7188,-5.7188,-5.7188,-5.7188,-5.7188,-5.7188,-5.7188,-5.7188,-5.7188,-5.7188,-5.7188,-5.7188,-5.7188,-5.7188,-5.7188,-5.7188,-5.7188,-5.7188,-5.7188,-5.7188,-5.7188,-5.7188,-5.7188,-5.7188,-5.7188,-5.7188,-5.7188,-5.7188,-5.7188,-5.7188,-5.7188,-5.7188,-5.7188,-5.7188,-5.7188,-5.7188,-5.7188,-5.7188,-5.7188,-5.7188,-5.7188,-5.7188,-5.7188,-5.7188,0.0,0.0,-5.2082,-5.2082,0.0,0.0,0.0,0.0,0.0,0.0,0.0,0.0,0.0,0.0,0.0,0.0,0.0,0.0,0.0,-5.2317,-5.2498,-5.2498,-5.2498,0.0,0.0,0.0,-5.1339,-5.2426,-5.1484,-5.1357,-5.2444,-5.2498,-5.2498,-5.2498,-5.2498,-5.2498,-5.2498,-5.2498,-5.2498,-5.2498,-5.2498,-5.2498,-5.2498,-5.2498,-5.2498,-5.2498,-5.2498,-5.2498,-5.2498,-5.2498,-5.2498,-5.2498,-5.2498,-5.2498,-5.2679,-5.4309,-5.4907,-5.5124,-5.6663,-5.7188,-5.7188,-5.7188,-5.7188,-5.7188,-5.7188,-5.7188,-5.7188,-5.7188,-5.7188,-5.7188,-5.7188,-5.7188,-5.7188,-5.7188,-5.7188,-5.7188,-5.7188,-5.7188,-5.7188,-5.7188,-5.7188,-5.7188,-5.7188,-5.7188,-5.7188,-5.7188,-5.7188,-5.7188,-5.7188,-5.7188,-5.7188,-5.7188,-5.7188,-5.7188,-5.7188,-5.7188,-5.7188,-5.7188,-5.7188,-5.7188,-5.7188,-5.7188,-5.7188,-5.7188,-5.7188,-5.7188,-5.7188,-5.7188,-5.7188,-5.7188,-5.7188,-5.7188,-5.2498,-5.2498,0.0,-5.2498,-5.2498,0.0,-5.2498,0.0,-5.2498,0.0,0.0,0.0,0.0,0.0,0.0,0.0,0.0,0.0,0.0,-5.2498,-5.2498,-5.2498,-5.2498,-5.2498,0.0,-5.1756,-5.1629,-5.2426,-5.1737,-5.1647,-5.2462,-5.2498,-5.2498,-5.2498,-5.2498,-5.2498,-5.2498,-5.2498,-5.2498,-5.2498,-5.2498,-5.2498,-5.2498,-5.2498,-5.2498,-5.2498,-5.2498,-5.2498,-5.2498,-5.2498,-5.2498,-5.2498,-5.2498,-5.2498,-5.2679,-5.4309,-5.5251,-5.5866,-5.6862,-5.7188,-5.7188,-5.7188,-5.7188,-5.7188,-5.7188,-5.7188,-5.7134,-5.6844,-5.6971,-5.7134,-5.6844,-5.6989,-5.7188,-5.7188,-5.7188,-5.7188,-5.7188,-5.7188,-5.7188,-5.7188,-5.7188,-5.7188,-5.7188,-5.7188,-5.7188,-5.7188,-5.7188,-5.7188,-5.7188,-5.7188,-5.7188,-5.7188,-5.7188,-5.7188,-5.7188,-5.7188,-5.7188,-5.7188,-5.7188,-5.7188,-5.7188,-5.7188,-5.7188,-5.7188,-5.7188,-5.7188,-5.7188,-5.7188,-5.7188,-5.7188,-5.7188,-5.7188]}]]